<?xml version="1.0" encoding="UTF-8" standalone="no" ?>
<gpx xmlns="http://www.topografix.com/GPX/1/1" xmlns:xsi="http://www.w3.org/2001/XMLSchema-instance" xsi:schemaLocation="http://www.topografix.com/GPX/1/1 http://www.topografix.com/GPX/1/1/gpx.xsd" version="1.1" creator="VisuGPX - https://www.visugpx.com">
  <metadata>
    <name>vtt circuit n° 13 vsm gr 1</name>
    <desc><![CDATA[sortie vtt le matin température am 33° circuit roulant et ombragé]]></desc>
  </metadata>
  <trk>
    <name><![CDATA[2019-06-01-09-45-02 on GPSies.com]]></name>
    <trkseg>
      <trkpt lat="47.34438" lon="-1.16129">
        <ele>13</ele>
        <time>2019-06-01T09:45:02Z</time>
      </trkpt>
      <trkpt lat="47.34441" lon="-1.16134">
        <ele>13.5</ele>
        <time>2019-06-01T09:45:24Z</time>
      </trkpt>
      <trkpt lat="47.34443" lon="-1.1614">
        <ele>13.8</ele>
        <time>2019-06-01T09:45:26Z</time>
      </trkpt>
      <trkpt lat="47.34447" lon="-1.16153">
        <ele>14</ele>
        <time>2019-06-01T09:45:30Z</time>
      </trkpt>
      <trkpt lat="47.3445" lon="-1.1616">
        <ele>14.1</ele>
        <time>2019-06-01T09:45:32Z</time>
      </trkpt>
      <trkpt lat="47.34458" lon="-1.16185">
        <ele>1</ele>
        <time>2019-06-01T09:45:39Z</time>
      </trkpt>
      <trkpt lat="47.34464" lon="-1.16191">
        <ele>1</ele>
        <time>2019-06-01T09:45:42Z</time>
      </trkpt>
      <trkpt lat="47.34466" lon="-1.16191">
        <ele>1</ele>
        <time>2019-06-01T09:45:43Z</time>
      </trkpt>
      <trkpt lat="47.34468" lon="-1.1619">
        <ele>1</ele>
        <time>2019-06-01T09:45:44Z</time>
      </trkpt>
      <trkpt lat="47.34475" lon="-1.16177">
        <ele>2</ele>
        <time>2019-06-01T09:45:48Z</time>
      </trkpt>
      <trkpt lat="47.34489" lon="-1.16147">
        <ele>3</ele>
        <time>2019-06-01T09:45:56Z</time>
      </trkpt>
      <trkpt lat="47.34503" lon="-1.16116">
        <ele>4</ele>
        <time>2019-06-01T09:46:04Z</time>
      </trkpt>
      <trkpt lat="47.34511" lon="-1.16087">
        <ele>5</ele>
        <time>2019-06-01T09:46:11Z</time>
      </trkpt>
      <trkpt lat="47.34513" lon="-1.16078">
        <ele>6</ele>
        <time>2019-06-01T09:46:13Z</time>
      </trkpt>
      <trkpt lat="47.3452" lon="-1.16045">
        <ele>7</ele>
        <time>2019-06-01T09:46:20Z</time>
      </trkpt>
      <trkpt lat="47.34521" lon="-1.1604">
        <ele>7</ele>
        <time>2019-06-01T09:46:21Z</time>
      </trkpt>
      <trkpt lat="47.34528" lon="-1.15992">
        <ele>7</ele>
        <time>2019-06-01T09:46:30Z</time>
      </trkpt>
      <trkpt lat="47.34531" lon="-1.15943">
        <ele>7</ele>
        <time>2019-06-01T09:46:39Z</time>
      </trkpt>
      <trkpt lat="47.34527" lon="-1.15895">
        <ele>7</ele>
        <time>2019-06-01T09:46:47Z</time>
      </trkpt>
      <trkpt lat="47.34518" lon="-1.15842">
        <ele>7</ele>
        <time>2019-06-01T09:46:55Z</time>
      </trkpt>
      <trkpt lat="47.34506" lon="-1.15802">
        <ele>7</ele>
        <time>2019-06-01T09:47:02Z</time>
      </trkpt>
      <trkpt lat="47.34496" lon="-1.15774">
        <ele>7</ele>
        <time>2019-06-01T09:47:09Z</time>
      </trkpt>
      <trkpt lat="47.34498" lon="-1.15766">
        <ele>8</ele>
        <time>2019-06-01T09:47:11Z</time>
      </trkpt>
      <trkpt lat="47.34504" lon="-1.15761">
        <ele>8</ele>
        <time>2019-06-01T09:47:13Z</time>
      </trkpt>
      <trkpt lat="47.34512" lon="-1.15754">
        <ele>8</ele>
        <time>2019-06-01T09:47:15Z</time>
      </trkpt>
      <trkpt lat="47.34524" lon="-1.15741">
        <ele>8</ele>
        <time>2019-06-01T09:47:18Z</time>
      </trkpt>
      <trkpt lat="47.34532" lon="-1.15715">
        <ele>8</ele>
        <time>2019-06-01T09:47:22Z</time>
      </trkpt>
      <trkpt lat="47.34532" lon="-1.15702">
        <ele>8</ele>
        <time>2019-06-01T09:47:24Z</time>
      </trkpt>
      <trkpt lat="47.3453" lon="-1.15681">
        <ele>8</ele>
        <time>2019-06-01T09:47:27Z</time>
      </trkpt>
      <trkpt lat="47.34526" lon="-1.15646">
        <ele>9</ele>
        <time>2019-06-01T09:47:32Z</time>
      </trkpt>
      <trkpt lat="47.34526" lon="-1.15639">
        <ele>9</ele>
        <time>2019-06-01T09:47:33Z</time>
      </trkpt>
      <trkpt lat="47.34527" lon="-1.15625">
        <ele>9</ele>
        <time>2019-06-01T09:47:35Z</time>
      </trkpt>
      <trkpt lat="47.34531" lon="-1.15571">
        <ele>9</ele>
        <time>2019-06-01T09:47:43Z</time>
      </trkpt>
      <trkpt lat="47.3453" lon="-1.15557">
        <ele>10</ele>
        <time>2019-06-01T09:47:45Z</time>
      </trkpt>
      <trkpt lat="47.34528" lon="-1.15544">
        <ele>10</ele>
        <time>2019-06-01T09:47:47Z</time>
      </trkpt>
      <trkpt lat="47.34526" lon="-1.15538">
        <ele>10</ele>
        <time>2019-06-01T09:47:48Z</time>
      </trkpt>
      <trkpt lat="47.34524" lon="-1.15532">
        <ele>10</ele>
        <time>2019-06-01T09:47:49Z</time>
      </trkpt>
      <trkpt lat="47.34508" lon="-1.15482">
        <ele>10</ele>
        <time>2019-06-01T09:47:57Z</time>
      </trkpt>
      <trkpt lat="47.3449" lon="-1.15428">
        <ele>11</ele>
        <time>2019-06-01T09:48:06Z</time>
      </trkpt>
      <trkpt lat="47.34475" lon="-1.1537">
        <ele>11</ele>
        <time>2019-06-01T09:48:15Z</time>
      </trkpt>
      <trkpt lat="47.34475" lon="-1.15356">
        <ele>11</ele>
        <time>2019-06-01T09:48:17Z</time>
      </trkpt>
      <trkpt lat="47.34479" lon="-1.15336">
        <ele>11</ele>
        <time>2019-06-01T09:48:20Z</time>
      </trkpt>
      <trkpt lat="47.34484" lon="-1.15317">
        <ele>12</ele>
        <time>2019-06-01T09:48:23Z</time>
      </trkpt>
      <trkpt lat="47.34489" lon="-1.15305">
        <ele>12</ele>
        <time>2019-06-01T09:48:25Z</time>
      </trkpt>
      <trkpt lat="47.34493" lon="-1.15292">
        <ele>12</ele>
        <time>2019-06-01T09:48:27Z</time>
      </trkpt>
      <trkpt lat="47.34518" lon="-1.15229">
        <ele>12</ele>
        <time>2019-06-01T09:48:37Z</time>
      </trkpt>
      <trkpt lat="47.34539" lon="-1.15172">
        <ele>12</ele>
        <time>2019-06-01T09:48:46Z</time>
      </trkpt>
      <trkpt lat="47.3455" lon="-1.15117">
        <ele>12</ele>
        <time>2019-06-01T09:48:54Z</time>
      </trkpt>
      <trkpt lat="47.34557" lon="-1.15052">
        <ele>12</ele>
        <time>2019-06-01T09:49:03Z</time>
      </trkpt>
      <trkpt lat="47.34559" lon="-1.15009">
        <ele>12</ele>
        <time>2019-06-01T09:49:09Z</time>
      </trkpt>
      <trkpt lat="47.3456" lon="-1.14988">
        <ele>12</ele>
        <time>2019-06-01T09:49:12Z</time>
      </trkpt>
      <trkpt lat="47.3456" lon="-1.14935">
        <ele>12</ele>
        <time>2019-06-01T09:49:20Z</time>
      </trkpt>
      <trkpt lat="47.34564" lon="-1.14922">
        <ele>12</ele>
        <time>2019-06-01T09:49:23Z</time>
      </trkpt>
      <trkpt lat="47.34568" lon="-1.1492">
        <ele>11</ele>
        <time>2019-06-01T09:49:24Z</time>
      </trkpt>
      <trkpt lat="47.34583" lon="-1.14921">
        <ele>11</ele>
        <time>2019-06-01T09:49:27Z</time>
      </trkpt>
      <trkpt lat="47.34588" lon="-1.14922">
        <ele>11</ele>
        <time>2019-06-01T09:49:28Z</time>
      </trkpt>
      <trkpt lat="47.34628" lon="-1.14919">
        <ele>10</ele>
        <time>2019-06-01T09:49:35Z</time>
      </trkpt>
      <trkpt lat="47.34633" lon="-1.14917">
        <ele>10</ele>
        <time>2019-06-01T09:49:36Z</time>
      </trkpt>
      <trkpt lat="47.34668" lon="-1.14903">
        <ele>9</ele>
        <time>2019-06-01T09:49:43Z</time>
      </trkpt>
      <trkpt lat="47.34711" lon="-1.14886">
        <ele>9</ele>
        <time>2019-06-01T09:49:52Z</time>
      </trkpt>
      <trkpt lat="47.34716" lon="-1.14885">
        <ele>9</ele>
        <time>2019-06-01T09:49:53Z</time>
      </trkpt>
      <trkpt lat="47.3475" lon="-1.14888">
        <ele>8</ele>
        <time>2019-06-01T09:50:00Z</time>
      </trkpt>
      <trkpt lat="47.3477" lon="-1.14892">
        <ele>8</ele>
        <time>2019-06-01T09:50:04Z</time>
      </trkpt>
      <trkpt lat="47.34795" lon="-1.14898">
        <ele>7</ele>
        <time>2019-06-01T09:50:09Z</time>
      </trkpt>
      <trkpt lat="47.34825" lon="-1.14903">
        <ele>7</ele>
        <time>2019-06-01T09:50:15Z</time>
      </trkpt>
      <trkpt lat="47.34845" lon="-1.14907">
        <ele>6</ele>
        <time>2019-06-01T09:50:19Z</time>
      </trkpt>
      <trkpt lat="47.34881" lon="-1.14909">
        <ele>5</ele>
        <time>2019-06-01T09:50:26Z</time>
      </trkpt>
      <trkpt lat="47.34887" lon="-1.14909">
        <ele>5</ele>
        <time>2019-06-01T09:50:27Z</time>
      </trkpt>
      <trkpt lat="47.3492" lon="-1.14905">
        <ele>4</ele>
        <time>2019-06-01T09:50:33Z</time>
      </trkpt>
      <trkpt lat="47.34932" lon="-1.14903">
        <ele>4</ele>
        <time>2019-06-01T09:50:35Z</time>
      </trkpt>
      <trkpt lat="47.34944" lon="-1.149">
        <ele>4</ele>
        <time>2019-06-01T09:50:37Z</time>
      </trkpt>
      <trkpt lat="47.34963" lon="-1.1489">
        <ele>3</ele>
        <time>2019-06-01T09:50:40Z</time>
      </trkpt>
      <trkpt lat="47.34992" lon="-1.14878">
        <ele>2</ele>
        <time>2019-06-01T09:50:44Z</time>
      </trkpt>
      <trkpt lat="47.35007" lon="-1.14872">
        <ele>1</ele>
        <time>2019-06-01T09:50:46Z</time>
      </trkpt>
      <trkpt lat="47.3503" lon="-1.14861">
        <ele>9.9</ele>
        <time>2019-06-01T09:50:49Z</time>
      </trkpt>
      <trkpt lat="47.35036" lon="-1.14855">
        <ele>-1</ele>
        <time>2019-06-01T09:50:50Z</time>
      </trkpt>
      <trkpt lat="47.35041" lon="-1.14846">
        <ele>-1</ele>
        <time>2019-06-01T09:50:51Z</time>
      </trkpt>
      <trkpt lat="47.35045" lon="-1.14825">
        <ele>-1</ele>
        <time>2019-06-01T09:50:53Z</time>
      </trkpt>
      <trkpt lat="47.35045" lon="-1.14814">
        <ele>-2</ele>
        <time>2019-06-01T09:50:54Z</time>
      </trkpt>
      <trkpt lat="47.35047" lon="-1.14805">
        <ele>-2</ele>
        <time>2019-06-01T09:50:55Z</time>
      </trkpt>
      <trkpt lat="47.3505" lon="-1.14767">
        <ele>-2</ele>
        <time>2019-06-01T09:50:59Z</time>
      </trkpt>
      <trkpt lat="47.3506" lon="-1.14693">
        <ele>-2</ele>
        <time>2019-06-01T09:51:08Z</time>
      </trkpt>
      <trkpt lat="47.35063" lon="-1.14687">
        <ele>-3</ele>
        <time>2019-06-01T09:51:09Z</time>
      </trkpt>
      <trkpt lat="47.3507" lon="-1.14686">
        <ele>-3</ele>
        <time>2019-06-01T09:51:11Z</time>
      </trkpt>
      <trkpt lat="47.35079" lon="-1.14691">
        <ele>-3</ele>
        <time>2019-06-01T09:51:13Z</time>
      </trkpt>
      <trkpt lat="47.35083" lon="-1.14694">
        <ele>-3</ele>
        <time>2019-06-01T09:51:14Z</time>
      </trkpt>
      <trkpt lat="47.35117" lon="-1.14707">
        <ele>-3</ele>
        <time>2019-06-01T09:51:20Z</time>
      </trkpt>
      <trkpt lat="47.35161" lon="-1.14727">
        <ele>-3</ele>
        <time>2019-06-01T09:51:28Z</time>
      </trkpt>
      <trkpt lat="47.35185" lon="-1.14738">
        <ele>-3</ele>
        <time>2019-06-01T09:51:33Z</time>
      </trkpt>
      <trkpt lat="47.35189" lon="-1.14741">
        <ele>-3</ele>
        <time>2019-06-01T09:51:34Z</time>
      </trkpt>
      <trkpt lat="47.35195" lon="-1.14738">
        <ele>-3</ele>
        <time>2019-06-01T09:51:36Z</time>
      </trkpt>
      <trkpt lat="47.35196" lon="-1.14732">
        <ele>-3</ele>
        <time>2019-06-01T09:51:37Z</time>
      </trkpt>
      <trkpt lat="47.352" lon="-1.14714">
        <ele>-3</ele>
        <time>2019-06-01T09:51:40Z</time>
      </trkpt>
      <trkpt lat="47.35202" lon="-1.14701">
        <ele>-3</ele>
        <time>2019-06-01T09:51:42Z</time>
      </trkpt>
      <trkpt lat="47.35212" lon="-1.14648">
        <ele>-4</ele>
        <time>2019-06-01T09:51:49Z</time>
      </trkpt>
      <trkpt lat="47.35218" lon="-1.14634">
        <ele>-4</ele>
        <time>2019-06-01T09:51:51Z</time>
      </trkpt>
      <trkpt lat="47.35225" lon="-1.14622">
        <ele>-4</ele>
        <time>2019-06-01T09:51:53Z</time>
      </trkpt>
      <trkpt lat="47.35229" lon="-1.14616">
        <ele>-4</ele>
        <time>2019-06-01T09:51:54Z</time>
      </trkpt>
      <trkpt lat="47.35255" lon="-1.14563">
        <ele>-4</ele>
        <time>2019-06-01T09:52:02Z</time>
      </trkpt>
      <trkpt lat="47.35256" lon="-1.14556">
        <ele>-4</ele>
        <time>2019-06-01T09:52:03Z</time>
      </trkpt>
      <trkpt lat="47.35261" lon="-1.14527">
        <ele>-4</ele>
        <time>2019-06-01T09:52:07Z</time>
      </trkpt>
      <trkpt lat="47.35266" lon="-1.14474">
        <ele>-4</ele>
        <time>2019-06-01T09:52:14Z</time>
      </trkpt>
      <trkpt lat="47.35267" lon="-1.14443">
        <ele>-4</ele>
        <time>2019-06-01T09:52:18Z</time>
      </trkpt>
      <trkpt lat="47.35265" lon="-1.14427">
        <ele>-4</ele>
        <time>2019-06-01T09:52:20Z</time>
      </trkpt>
      <trkpt lat="47.35253" lon="-1.14383">
        <ele>-4</ele>
        <time>2019-06-01T09:52:26Z</time>
      </trkpt>
      <trkpt lat="47.35251" lon="-1.14376">
        <ele>-4</ele>
        <time>2019-06-01T09:52:27Z</time>
      </trkpt>
      <trkpt lat="47.35242" lon="-1.14348">
        <ele>-4</ele>
        <time>2019-06-01T09:52:31Z</time>
      </trkpt>
      <trkpt lat="47.35242" lon="-1.14331">
        <ele>-4</ele>
        <time>2019-06-01T09:52:33Z</time>
      </trkpt>
      <trkpt lat="47.35243" lon="-1.14315">
        <ele>-4</ele>
        <time>2019-06-01T09:52:35Z</time>
      </trkpt>
      <trkpt lat="47.35247" lon="-1.14277">
        <ele>-4</ele>
        <time>2019-06-01T09:52:40Z</time>
      </trkpt>
      <trkpt lat="47.35249" lon="-1.14222">
        <ele>-4</ele>
        <time>2019-06-01T09:52:48Z</time>
      </trkpt>
      <trkpt lat="47.35252" lon="-1.14169">
        <ele>-4</ele>
        <time>2019-06-01T09:52:55Z</time>
      </trkpt>
      <trkpt lat="47.35256" lon="-1.1414">
        <ele>-4</ele>
        <time>2019-06-01T09:52:59Z</time>
      </trkpt>
      <trkpt lat="47.3526" lon="-1.14125">
        <ele>-4</ele>
        <time>2019-06-01T09:53:01Z</time>
      </trkpt>
      <trkpt lat="47.35273" lon="-1.14078">
        <ele>-4</ele>
        <time>2019-06-01T09:53:08Z</time>
      </trkpt>
      <trkpt lat="47.35289" lon="-1.14023">
        <ele>-4</ele>
        <time>2019-06-01T09:53:16Z</time>
      </trkpt>
      <trkpt lat="47.35304" lon="-1.13983">
        <ele>-4</ele>
        <time>2019-06-01T09:53:22Z</time>
      </trkpt>
      <trkpt lat="47.35316" lon="-1.13938">
        <ele>-4</ele>
        <time>2019-06-01T09:53:28Z</time>
      </trkpt>
      <trkpt lat="47.35331" lon="-1.13875">
        <ele>-4</ele>
        <time>2019-06-01T09:53:36Z</time>
      </trkpt>
      <trkpt lat="47.35338" lon="-1.13836">
        <ele>-4</ele>
        <time>2019-06-01T09:53:41Z</time>
      </trkpt>
      <trkpt lat="47.35339" lon="-1.13827">
        <ele>-4</ele>
        <time>2019-06-01T09:53:42Z</time>
      </trkpt>
      <trkpt lat="47.35343" lon="-1.13764">
        <ele>-4</ele>
        <time>2019-06-01T09:53:50Z</time>
      </trkpt>
      <trkpt lat="47.35349" lon="-1.13717">
        <ele>-4</ele>
        <time>2019-06-01T09:53:57Z</time>
      </trkpt>
      <trkpt lat="47.35347" lon="-1.13714">
        <ele>-4</ele>
        <time>2019-06-01T09:53:58Z</time>
      </trkpt>
      <trkpt lat="47.35342" lon="-1.13711">
        <ele>-4</ele>
        <time>2019-06-01T09:54:00Z</time>
      </trkpt>
      <trkpt lat="47.35331" lon="-1.1371">
        <ele>-4</ele>
        <time>2019-06-01T09:54:03Z</time>
      </trkpt>
      <trkpt lat="47.35324" lon="-1.1371">
        <ele>-4</ele>
        <time>2019-06-01T09:54:05Z</time>
      </trkpt>
      <trkpt lat="47.35292" lon="-1.13709">
        <ele>-4</ele>
        <time>2019-06-01T09:54:12Z</time>
      </trkpt>
      <trkpt lat="47.35259" lon="-1.13706">
        <ele>-4</ele>
        <time>2019-06-01T09:54:19Z</time>
      </trkpt>
      <trkpt lat="47.35209" lon="-1.13704">
        <ele>-3</ele>
        <time>2019-06-01T09:54:30Z</time>
      </trkpt>
      <trkpt lat="47.35169" lon="-1.1371">
        <ele>-3</ele>
        <time>2019-06-01T09:54:39Z</time>
      </trkpt>
      <trkpt lat="47.35165" lon="-1.1371">
        <ele>-3</ele>
        <time>2019-06-01T09:54:40Z</time>
      </trkpt>
      <trkpt lat="47.35139" lon="-1.13704">
        <ele>-2</ele>
        <time>2019-06-01T09:54:46Z</time>
      </trkpt>
      <trkpt lat="47.35134" lon="-1.13702">
        <ele>-1</ele>
        <time>2019-06-01T09:54:47Z</time>
      </trkpt>
      <trkpt lat="47.35096" lon="-1.1369">
        <ele>-1</ele>
        <time>2019-06-01T09:54:56Z</time>
      </trkpt>
      <trkpt lat="47.35092" lon="-1.13689">
        <ele>12.7</ele>
        <time>2019-06-01T09:54:57Z</time>
      </trkpt>
      <trkpt lat="47.35054" lon="-1.13678">
        <ele>13</ele>
        <time>2019-06-01T09:55:06Z</time>
      </trkpt>
      <trkpt lat="47.35042" lon="-1.13673">
        <ele>1</ele>
        <time>2019-06-01T09:55:09Z</time>
      </trkpt>
      <trkpt lat="47.35018" lon="-1.13662">
        <ele>1</ele>
        <time>2019-06-01T09:55:15Z</time>
      </trkpt>
      <trkpt lat="47.34986" lon="-1.13653">
        <ele>2</ele>
        <time>2019-06-01T09:55:23Z</time>
      </trkpt>
      <trkpt lat="47.34979" lon="-1.13651">
        <ele>2</ele>
        <time>2019-06-01T09:55:25Z</time>
      </trkpt>
      <trkpt lat="47.34948" lon="-1.13645">
        <ele>3</ele>
        <time>2019-06-01T09:55:33Z</time>
      </trkpt>
      <trkpt lat="47.34944" lon="-1.13644">
        <ele>3</ele>
        <time>2019-06-01T09:55:34Z</time>
      </trkpt>
      <trkpt lat="47.34931" lon="-1.13641">
        <ele>4</ele>
        <time>2019-06-01T09:55:39Z</time>
      </trkpt>
      <trkpt lat="47.34929" lon="-1.13628">
        <ele>4</ele>
        <time>2019-06-01T09:55:42Z</time>
      </trkpt>
      <trkpt lat="47.34929" lon="-1.13622">
        <ele>4</ele>
        <time>2019-06-01T09:55:43Z</time>
      </trkpt>
      <trkpt lat="47.34929" lon="-1.13595">
        <ele>4</ele>
        <time>2019-06-01T09:55:47Z</time>
      </trkpt>
      <trkpt lat="47.34926" lon="-1.13542">
        <ele>4</ele>
        <time>2019-06-01T09:55:54Z</time>
      </trkpt>
      <trkpt lat="47.34915" lon="-1.13497">
        <ele>4</ele>
        <time>2019-06-01T09:56:00Z</time>
      </trkpt>
      <trkpt lat="47.34896" lon="-1.13432">
        <ele>4</ele>
        <time>2019-06-01T09:56:09Z</time>
      </trkpt>
      <trkpt lat="47.34881" lon="-1.13365">
        <ele>4</ele>
        <time>2019-06-01T09:56:18Z</time>
      </trkpt>
      <trkpt lat="47.34877" lon="-1.13302">
        <ele>4</ele>
        <time>2019-06-01T09:56:26Z</time>
      </trkpt>
      <trkpt lat="47.34869" lon="-1.13234">
        <ele>5</ele>
        <time>2019-06-01T09:56:35Z</time>
      </trkpt>
      <trkpt lat="47.34857" lon="-1.13184">
        <ele>5</ele>
        <time>2019-06-01T09:56:42Z</time>
      </trkpt>
      <trkpt lat="47.34852" lon="-1.13171">
        <ele>5</ele>
        <time>2019-06-01T09:56:44Z</time>
      </trkpt>
      <trkpt lat="47.34833" lon="-1.13131">
        <ele>6</ele>
        <time>2019-06-01T09:56:51Z</time>
      </trkpt>
      <trkpt lat="47.34822" lon="-1.1311">
        <ele>6</ele>
        <time>2019-06-01T09:56:55Z</time>
      </trkpt>
      <trkpt lat="47.34809" lon="-1.13083">
        <ele>7</ele>
        <time>2019-06-01T09:57:00Z</time>
      </trkpt>
      <trkpt lat="47.34789" lon="-1.13043">
        <ele>7</ele>
        <time>2019-06-01T09:57:08Z</time>
      </trkpt>
      <trkpt lat="47.3478" lon="-1.13032">
        <ele>7</ele>
        <time>2019-06-01T09:57:12Z</time>
      </trkpt>
      <trkpt lat="47.34776" lon="-1.13035">
        <ele>7</ele>
        <time>2019-06-01T09:57:13Z</time>
      </trkpt>
      <trkpt lat="47.34759" lon="-1.13041">
        <ele>7</ele>
        <time>2019-06-01T09:57:18Z</time>
      </trkpt>
      <trkpt lat="47.34721" lon="-1.13042">
        <ele>8</ele>
        <time>2019-06-01T09:57:27Z</time>
      </trkpt>
      <trkpt lat="47.34704" lon="-1.13038">
        <ele>8</ele>
        <time>2019-06-01T09:57:31Z</time>
      </trkpt>
      <trkpt lat="47.34691" lon="-1.13036">
        <ele>9</ele>
        <time>2019-06-01T09:57:34Z</time>
      </trkpt>
      <trkpt lat="47.34661" lon="-1.13036">
        <ele>9</ele>
        <time>2019-06-01T09:57:41Z</time>
      </trkpt>
      <trkpt lat="47.34657" lon="-1.13036">
        <ele>9</ele>
        <time>2019-06-01T09:57:42Z</time>
      </trkpt>
      <trkpt lat="47.34629" lon="-1.13049">
        <ele>10</ele>
        <time>2019-06-01T09:57:49Z</time>
      </trkpt>
      <trkpt lat="47.34621" lon="-1.13054">
        <ele>10</ele>
        <time>2019-06-01T09:57:51Z</time>
      </trkpt>
      <trkpt lat="47.34597" lon="-1.13068">
        <ele>11</ele>
        <time>2019-06-01T09:57:57Z</time>
      </trkpt>
      <trkpt lat="47.34574" lon="-1.13082">
        <ele>11</ele>
        <time>2019-06-01T09:58:03Z</time>
      </trkpt>
      <trkpt lat="47.34567" lon="-1.13087">
        <ele>11</ele>
        <time>2019-06-01T09:58:05Z</time>
      </trkpt>
      <trkpt lat="47.34547" lon="-1.13094">
        <ele>12</ele>
        <time>2019-06-01T09:58:11Z</time>
      </trkpt>
      <trkpt lat="47.34537" lon="-1.1309">
        <ele>12</ele>
        <time>2019-06-01T09:58:15Z</time>
      </trkpt>
      <trkpt lat="47.34535" lon="-1.13087">
        <ele>12</ele>
        <time>2019-06-01T09:58:16Z</time>
      </trkpt>
      <trkpt lat="47.34534" lon="-1.13078">
        <ele>12</ele>
        <time>2019-06-01T09:58:18Z</time>
      </trkpt>
      <trkpt lat="47.34535" lon="-1.13068">
        <ele>13</ele>
        <time>2019-06-01T09:58:20Z</time>
      </trkpt>
      <trkpt lat="47.34534" lon="-1.13044">
        <ele>13</ele>
        <time>2019-06-01T09:58:25Z</time>
      </trkpt>
      <trkpt lat="47.34524" lon="-1.1304">
        <ele>13</ele>
        <time>2019-06-01T09:58:29Z</time>
      </trkpt>
      <trkpt lat="47.3452" lon="-1.1304">
        <ele>13</ele>
        <time>2019-06-01T09:58:30Z</time>
      </trkpt>
      <trkpt lat="47.34511" lon="-1.13041">
        <ele>13</ele>
        <time>2019-06-01T09:58:32Z</time>
      </trkpt>
      <trkpt lat="47.345" lon="-1.13038">
        <ele>14</ele>
        <time>2019-06-01T09:58:35Z</time>
      </trkpt>
      <trkpt lat="47.34484" lon="-1.13034">
        <ele>14</ele>
        <time>2019-06-01T09:58:40Z</time>
      </trkpt>
      <trkpt lat="47.34475" lon="-1.13053">
        <ele>14</ele>
        <time>2019-06-01T09:58:44Z</time>
      </trkpt>
      <trkpt lat="47.34452" lon="-1.13071">
        <ele>14</ele>
        <time>2019-06-01T09:58:50Z</time>
      </trkpt>
      <trkpt lat="47.34442" lon="-1.13074">
        <ele>14</ele>
        <time>2019-06-01T09:58:52Z</time>
      </trkpt>
      <trkpt lat="47.34432" lon="-1.13087">
        <ele>15</ele>
        <time>2019-06-01T09:58:55Z</time>
      </trkpt>
      <trkpt lat="47.34429" lon="-1.13099">
        <ele>15</ele>
        <time>2019-06-01T09:58:57Z</time>
      </trkpt>
      <trkpt lat="47.34426" lon="-1.13116">
        <ele>15</ele>
        <time>2019-06-01T09:59:00Z</time>
      </trkpt>
      <trkpt lat="47.34418" lon="-1.13133">
        <ele>14</ele>
        <time>2019-06-01T09:59:05Z</time>
      </trkpt>
      <trkpt lat="47.34417" lon="-1.13132">
        <ele>14</ele>
        <time>2019-06-01T09:59:06Z</time>
      </trkpt>
      <trkpt lat="47.34407" lon="-1.13127">
        <ele>15</ele>
        <time>2019-06-01T09:59:34Z</time>
      </trkpt>
      <trkpt lat="47.34394" lon="-1.13126">
        <ele>15</ele>
        <time>2019-06-01T09:59:39Z</time>
      </trkpt>
      <trkpt lat="47.34366" lon="-1.13122">
        <ele>15</ele>
        <time>2019-06-01T09:59:48Z</time>
      </trkpt>
      <trkpt lat="47.34343" lon="-1.13116">
        <ele>15</ele>
        <time>2019-06-01T09:59:55Z</time>
      </trkpt>
      <trkpt lat="47.34316" lon="-1.13117">
        <ele>15</ele>
        <time>2019-06-01T10:00:03Z</time>
      </trkpt>
      <trkpt lat="47.34305" lon="-1.13124">
        <ele>15</ele>
        <time>2019-06-01T10:00:06Z</time>
      </trkpt>
      <trkpt lat="47.34295" lon="-1.1313">
        <ele>15</ele>
        <time>2019-06-01T10:00:09Z</time>
      </trkpt>
      <trkpt lat="47.34267" lon="-1.13139">
        <ele>15</ele>
        <time>2019-06-01T10:00:17Z</time>
      </trkpt>
      <trkpt lat="47.3424" lon="-1.13144">
        <ele>16</ele>
        <time>2019-06-01T10:00:25Z</time>
      </trkpt>
      <trkpt lat="47.34206" lon="-1.13148">
        <ele>16</ele>
        <time>2019-06-01T10:00:36Z</time>
      </trkpt>
      <trkpt lat="47.34203" lon="-1.13149">
        <ele>17</ele>
        <time>2019-06-01T10:00:37Z</time>
      </trkpt>
      <trkpt lat="47.3419" lon="-1.13156">
        <ele>17</ele>
        <time>2019-06-01T10:00:42Z</time>
      </trkpt>
      <trkpt lat="47.34184" lon="-1.13163">
        <ele>18</ele>
        <time>2019-06-01T10:00:46Z</time>
      </trkpt>
      <trkpt lat="47.34182" lon="-1.13166">
        <ele>19</ele>
        <time>2019-06-01T10:00:51Z</time>
      </trkpt>
      <trkpt lat="47.34177" lon="-1.13173">
        <ele>19</ele>
        <time>2019-06-01T10:00:54Z</time>
      </trkpt>
      <trkpt lat="47.34175" lon="-1.13174">
        <ele>19</ele>
        <time>2019-06-01T10:00:55Z</time>
      </trkpt>
      <trkpt lat="47.34167" lon="-1.13176">
        <ele>19</ele>
        <time>2019-06-01T10:00:59Z</time>
      </trkpt>
      <trkpt lat="47.34165" lon="-1.13178">
        <ele>19</ele>
        <time>2019-06-01T10:01:00Z</time>
      </trkpt>
      <trkpt lat="47.34158" lon="-1.13187">
        <ele>20</ele>
        <time>2019-06-01T10:01:04Z</time>
      </trkpt>
      <trkpt lat="47.3415" lon="-1.13196">
        <ele>20</ele>
        <time>2019-06-01T10:01:08Z</time>
      </trkpt>
      <trkpt lat="47.34142" lon="-1.13204">
        <ele>21</ele>
        <time>2019-06-01T10:01:12Z</time>
      </trkpt>
      <trkpt lat="47.34138" lon="-1.13208">
        <ele>21</ele>
        <time>2019-06-01T10:01:15Z</time>
      </trkpt>
      <trkpt lat="47.3413" lon="-1.13214">
        <ele>22</ele>
        <time>2019-06-01T10:01:20Z</time>
      </trkpt>
      <trkpt lat="47.34127" lon="-1.13216">
        <ele>22</ele>
        <time>2019-06-01T10:01:22Z</time>
      </trkpt>
      <trkpt lat="47.34121" lon="-1.13223">
        <ele>23</ele>
        <time>2019-06-01T10:01:27Z</time>
      </trkpt>
      <trkpt lat="47.34118" lon="-1.13226">
        <ele>23</ele>
        <time>2019-06-01T10:01:30Z</time>
      </trkpt>
      <trkpt lat="47.34109" lon="-1.13229">
        <ele>25</ele>
        <time>2019-06-01T10:01:35Z</time>
      </trkpt>
      <trkpt lat="47.34102" lon="-1.13232">
        <ele>26</ele>
        <time>2019-06-01T10:01:40Z</time>
      </trkpt>
      <trkpt lat="47.34098" lon="-1.13233">
        <ele>26</ele>
        <time>2019-06-01T10:01:43Z</time>
      </trkpt>
      <trkpt lat="47.34096" lon="-1.13233">
        <ele>27</ele>
        <time>2019-06-01T10:01:44Z</time>
      </trkpt>
      <trkpt lat="47.34089" lon="-1.13234">
        <ele>28</ele>
        <time>2019-06-01T10:01:49Z</time>
      </trkpt>
      <trkpt lat="47.34086" lon="-1.13234">
        <ele>29</ele>
        <time>2019-06-01T10:01:51Z</time>
      </trkpt>
      <trkpt lat="47.3408" lon="-1.13233">
        <ele>29</ele>
        <time>2019-06-01T10:01:54Z</time>
      </trkpt>
      <trkpt lat="47.34074" lon="-1.13233">
        <ele>30</ele>
        <time>2019-06-01T10:01:58Z</time>
      </trkpt>
      <trkpt lat="47.34068" lon="-1.13231">
        <ele>31</ele>
        <time>2019-06-01T10:02:02Z</time>
      </trkpt>
      <trkpt lat="47.34062" lon="-1.13229">
        <ele>33</ele>
        <time>2019-06-01T10:02:07Z</time>
      </trkpt>
      <trkpt lat="47.34057" lon="-1.13228">
        <ele>33</ele>
        <time>2019-06-01T10:02:10Z</time>
      </trkpt>
      <trkpt lat="47.34056" lon="-1.13227">
        <ele>34</ele>
        <time>2019-06-01T10:02:11Z</time>
      </trkpt>
      <trkpt lat="47.34049" lon="-1.13224">
        <ele>35</ele>
        <time>2019-06-01T10:02:15Z</time>
      </trkpt>
      <trkpt lat="47.34048" lon="-1.13223">
        <ele>35</ele>
        <time>2019-06-01T10:02:16Z</time>
      </trkpt>
      <trkpt lat="47.34039" lon="-1.13215">
        <ele>36</ele>
        <time>2019-06-01T10:02:22Z</time>
      </trkpt>
      <trkpt lat="47.34037" lon="-1.13213">
        <ele>36</ele>
        <time>2019-06-01T10:02:23Z</time>
      </trkpt>
      <trkpt lat="47.3403" lon="-1.13206">
        <ele>37</ele>
        <time>2019-06-01T10:02:28Z</time>
      </trkpt>
      <trkpt lat="47.34027" lon="-1.13203">
        <ele>37</ele>
        <time>2019-06-01T10:02:30Z</time>
      </trkpt>
      <trkpt lat="47.34019" lon="-1.13197">
        <ele>38</ele>
        <time>2019-06-01T10:02:35Z</time>
      </trkpt>
      <trkpt lat="47.34016" lon="-1.13191">
        <ele>39</ele>
        <time>2019-06-01T10:02:38Z</time>
      </trkpt>
      <trkpt lat="47.34016" lon="-1.13178">
        <ele>39</ele>
        <time>2019-06-01T10:02:42Z</time>
      </trkpt>
      <trkpt lat="47.34017" lon="-1.13172">
        <ele>40</ele>
        <time>2019-06-01T10:02:44Z</time>
      </trkpt>
      <trkpt lat="47.34018" lon="-1.13161">
        <ele>40</ele>
        <time>2019-06-01T10:02:47Z</time>
      </trkpt>
      <trkpt lat="47.3402" lon="-1.13138">
        <ele>41</ele>
        <time>2019-06-01T10:02:54Z</time>
      </trkpt>
      <trkpt lat="47.34024" lon="-1.13098">
        <ele>42</ele>
        <time>2019-06-01T10:03:05Z</time>
      </trkpt>
      <trkpt lat="47.34024" lon="-1.13094">
        <ele>42</ele>
        <time>2019-06-01T10:03:06Z</time>
      </trkpt>
      <trkpt lat="47.34029" lon="-1.13057">
        <ele>43</ele>
        <time>2019-06-01T10:03:15Z</time>
      </trkpt>
      <trkpt lat="47.34032" lon="-1.13021">
        <ele>43</ele>
        <time>2019-06-01T10:03:23Z</time>
      </trkpt>
      <trkpt lat="47.34034" lon="-1.13004">
        <ele>43</ele>
        <time>2019-06-01T10:03:27Z</time>
      </trkpt>
      <trkpt lat="47.34035" lon="-1.12995">
        <ele>43</ele>
        <time>2019-06-01T10:03:29Z</time>
      </trkpt>
      <trkpt lat="47.34035" lon="-1.12978">
        <ele>44</ele>
        <time>2019-06-01T10:03:33Z</time>
      </trkpt>
      <trkpt lat="47.34038" lon="-1.12945">
        <ele>44</ele>
        <time>2019-06-01T10:03:40Z</time>
      </trkpt>
      <trkpt lat="47.34045" lon="-1.12907">
        <ele>44</ele>
        <time>2019-06-01T10:03:48Z</time>
      </trkpt>
      <trkpt lat="47.34055" lon="-1.12866">
        <ele>42</ele>
        <time>2019-06-01T10:03:55Z</time>
      </trkpt>
      <trkpt lat="47.34059" lon="-1.12844">
        <ele>41</ele>
        <time>2019-06-01T10:03:59Z</time>
      </trkpt>
      <trkpt lat="47.34061" lon="-1.12828">
        <ele>40</ele>
        <time>2019-06-01T10:04:02Z</time>
      </trkpt>
      <trkpt lat="47.34062" lon="-1.12823">
        <ele>40</ele>
        <time>2019-06-01T10:04:03Z</time>
      </trkpt>
      <trkpt lat="47.34066" lon="-1.12803">
        <ele>39</ele>
        <time>2019-06-01T10:04:07Z</time>
      </trkpt>
      <trkpt lat="47.34069" lon="-1.12788">
        <ele>38</ele>
        <time>2019-06-01T10:04:10Z</time>
      </trkpt>
      <trkpt lat="47.34069" lon="-1.12778">
        <ele>37</ele>
        <time>2019-06-01T10:04:12Z</time>
      </trkpt>
      <trkpt lat="47.34066" lon="-1.12763">
        <ele>36</ele>
        <time>2019-06-01T10:04:15Z</time>
      </trkpt>
      <trkpt lat="47.34065" lon="-1.12743">
        <ele>35</ele>
        <time>2019-06-01T10:04:19Z</time>
      </trkpt>
      <trkpt lat="47.34064" lon="-1.12738">
        <ele>35</ele>
        <time>2019-06-01T10:04:20Z</time>
      </trkpt>
      <trkpt lat="47.34058" lon="-1.12725">
        <ele>34</ele>
        <time>2019-06-01T10:04:24Z</time>
      </trkpt>
      <trkpt lat="47.34046" lon="-1.12719">
        <ele>34</ele>
        <time>2019-06-01T10:04:30Z</time>
      </trkpt>
      <trkpt lat="47.34031" lon="-1.12718">
        <ele>34</ele>
        <time>2019-06-01T10:04:37Z</time>
      </trkpt>
      <trkpt lat="47.34016" lon="-1.12716">
        <ele>35</ele>
        <time>2019-06-01T10:04:45Z</time>
      </trkpt>
      <trkpt lat="47.34004" lon="-1.12715">
        <ele>36</ele>
        <time>2019-06-01T10:04:51Z</time>
      </trkpt>
      <trkpt lat="47.33998" lon="-1.12715">
        <ele>36</ele>
        <time>2019-06-01T10:04:54Z</time>
      </trkpt>
      <trkpt lat="47.33989" lon="-1.1271">
        <ele>37</ele>
        <time>2019-06-01T10:04:59Z</time>
      </trkpt>
      <trkpt lat="47.33984" lon="-1.12708">
        <ele>37</ele>
        <time>2019-06-01T10:05:02Z</time>
      </trkpt>
      <trkpt lat="47.33974" lon="-1.12706">
        <ele>39</ele>
        <time>2019-06-01T10:05:08Z</time>
      </trkpt>
      <trkpt lat="47.33967" lon="-1.12705">
        <ele>40</ele>
        <time>2019-06-01T10:05:12Z</time>
      </trkpt>
      <trkpt lat="47.33964" lon="-1.12704">
        <ele>40</ele>
        <time>2019-06-01T10:05:14Z</time>
      </trkpt>
      <trkpt lat="47.33955" lon="-1.12703">
        <ele>41</ele>
        <time>2019-06-01T10:05:20Z</time>
      </trkpt>
      <trkpt lat="47.33948" lon="-1.12702">
        <ele>42</ele>
        <time>2019-06-01T10:05:24Z</time>
      </trkpt>
      <trkpt lat="47.33945" lon="-1.12701">
        <ele>42</ele>
        <time>2019-06-01T10:05:26Z</time>
      </trkpt>
      <trkpt lat="47.33936" lon="-1.127">
        <ele>43</ele>
        <time>2019-06-01T10:05:32Z</time>
      </trkpt>
      <trkpt lat="47.33929" lon="-1.12699">
        <ele>44</ele>
        <time>2019-06-01T10:05:36Z</time>
      </trkpt>
      <trkpt lat="47.33922" lon="-1.12698">
        <ele>45</ele>
        <time>2019-06-01T10:05:40Z</time>
      </trkpt>
      <trkpt lat="47.3392" lon="-1.12698">
        <ele>45</ele>
        <time>2019-06-01T10:05:41Z</time>
      </trkpt>
      <trkpt lat="47.3391" lon="-1.12697">
        <ele>46</ele>
        <time>2019-06-01T10:05:47Z</time>
      </trkpt>
      <trkpt lat="47.33907" lon="-1.12697">
        <ele>46</ele>
        <time>2019-06-01T10:05:49Z</time>
      </trkpt>
      <trkpt lat="47.33898" lon="-1.12695">
        <ele>47</ele>
        <time>2019-06-01T10:05:54Z</time>
      </trkpt>
      <trkpt lat="47.33897" lon="-1.12695">
        <ele>47</ele>
        <time>2019-06-01T10:05:55Z</time>
      </trkpt>
      <trkpt lat="47.33886" lon="-1.12695">
        <ele>49</ele>
        <time>2019-06-01T10:06:01Z</time>
      </trkpt>
      <trkpt lat="47.33885" lon="-1.12696">
        <ele>49</ele>
        <time>2019-06-01T10:06:02Z</time>
      </trkpt>
      <trkpt lat="47.33878" lon="-1.12692">
        <ele>49</ele>
        <time>2019-06-01T10:06:07Z</time>
      </trkpt>
      <trkpt lat="47.33877" lon="-1.1269">
        <ele>50</ele>
        <time>2019-06-01T10:06:08Z</time>
      </trkpt>
      <trkpt lat="47.33876" lon="-1.12676">
        <ele>50</ele>
        <time>2019-06-01T10:06:12Z</time>
      </trkpt>
      <trkpt lat="47.33876" lon="-1.12671">
        <ele>51</ele>
        <time>2019-06-01T10:06:14Z</time>
      </trkpt>
      <trkpt lat="47.33876" lon="-1.12653">
        <ele>51</ele>
        <time>2019-06-01T10:06:19Z</time>
      </trkpt>
      <trkpt lat="47.33875" lon="-1.12634">
        <ele>52</ele>
        <time>2019-06-01T10:06:24Z</time>
      </trkpt>
      <trkpt lat="47.33875" lon="-1.1263">
        <ele>52</ele>
        <time>2019-06-01T10:06:25Z</time>
      </trkpt>
      <trkpt lat="47.33879" lon="-1.12605">
        <ele>52</ele>
        <time>2019-06-01T10:06:32Z</time>
      </trkpt>
      <trkpt lat="47.33881" lon="-1.12588">
        <ele>53</ele>
        <time>2019-06-01T10:06:37Z</time>
      </trkpt>
      <trkpt lat="47.33884" lon="-1.1257">
        <ele>53</ele>
        <time>2019-06-01T10:06:42Z</time>
      </trkpt>
      <trkpt lat="47.33887" lon="-1.12556">
        <ele>54</ele>
        <time>2019-06-01T10:06:46Z</time>
      </trkpt>
      <trkpt lat="47.33888" lon="-1.12548">
        <ele>54</ele>
        <time>2019-06-01T10:06:48Z</time>
      </trkpt>
      <trkpt lat="47.33892" lon="-1.12514">
        <ele>55</ele>
        <time>2019-06-01T10:06:56Z</time>
      </trkpt>
      <trkpt lat="47.33893" lon="-1.12501">
        <ele>55</ele>
        <time>2019-06-01T10:06:59Z</time>
      </trkpt>
      <trkpt lat="47.33896" lon="-1.12474">
        <ele>56</ele>
        <time>2019-06-01T10:07:05Z</time>
      </trkpt>
      <trkpt lat="47.33897" lon="-1.1247">
        <ele>56</ele>
        <time>2019-06-01T10:07:06Z</time>
      </trkpt>
      <trkpt lat="47.33903" lon="-1.12438">
        <ele>56</ele>
        <time>2019-06-01T10:07:13Z</time>
      </trkpt>
      <trkpt lat="47.33908" lon="-1.12408">
        <ele>57</ele>
        <time>2019-06-01T10:07:20Z</time>
      </trkpt>
      <trkpt lat="47.33907" lon="-1.12369">
        <ele>57</ele>
        <time>2019-06-01T10:07:28Z</time>
      </trkpt>
      <trkpt lat="47.33899" lon="-1.1234">
        <ele>58</ele>
        <time>2019-06-01T10:07:35Z</time>
      </trkpt>
      <trkpt lat="47.33891" lon="-1.12327">
        <ele>58</ele>
        <time>2019-06-01T10:07:39Z</time>
      </trkpt>
      <trkpt lat="47.33887" lon="-1.12316">
        <ele>58</ele>
        <time>2019-06-01T10:07:42Z</time>
      </trkpt>
      <trkpt lat="47.33878" lon="-1.12284">
        <ele>59</ele>
        <time>2019-06-01T10:07:49Z</time>
      </trkpt>
      <trkpt lat="47.33875" lon="-1.12271">
        <ele>59</ele>
        <time>2019-06-01T10:07:52Z</time>
      </trkpt>
      <trkpt lat="47.33868" lon="-1.12241">
        <ele>59</ele>
        <time>2019-06-01T10:07:58Z</time>
      </trkpt>
      <trkpt lat="47.33861" lon="-1.122">
        <ele>58</ele>
        <time>2019-06-01T10:08:05Z</time>
      </trkpt>
      <trkpt lat="47.3386" lon="-1.12186">
        <ele>58</ele>
        <time>2019-06-01T10:08:07Z</time>
      </trkpt>
      <trkpt lat="47.33858" lon="-1.12164">
        <ele>57</ele>
        <time>2019-06-01T10:08:11Z</time>
      </trkpt>
      <trkpt lat="47.33855" lon="-1.12159">
        <ele>57</ele>
        <time>2019-06-01T10:08:13Z</time>
      </trkpt>
      <trkpt lat="47.33852" lon="-1.12159">
        <ele>57</ele>
        <time>2019-06-01T10:08:14Z</time>
      </trkpt>
      <trkpt lat="47.33841" lon="-1.12163">
        <ele>57</ele>
        <time>2019-06-01T10:08:17Z</time>
      </trkpt>
      <trkpt lat="47.33831" lon="-1.12166">
        <ele>57</ele>
        <time>2019-06-01T10:08:20Z</time>
      </trkpt>
      <trkpt lat="47.33813" lon="-1.12164">
        <ele>58</ele>
        <time>2019-06-01T10:08:26Z</time>
      </trkpt>
      <trkpt lat="47.3381" lon="-1.12163">
        <ele>58</ele>
        <time>2019-06-01T10:08:27Z</time>
      </trkpt>
      <trkpt lat="47.33801" lon="-1.12157">
        <ele>59</ele>
        <time>2019-06-01T10:08:31Z</time>
      </trkpt>
      <trkpt lat="47.33797" lon="-1.12153">
        <ele>59</ele>
        <time>2019-06-01T10:08:33Z</time>
      </trkpt>
      <trkpt lat="47.33788" lon="-1.12144">
        <ele>60</ele>
        <time>2019-06-01T10:08:37Z</time>
      </trkpt>
      <trkpt lat="47.33781" lon="-1.12137">
        <ele>61</ele>
        <time>2019-06-01T10:08:41Z</time>
      </trkpt>
      <trkpt lat="47.33775" lon="-1.12131">
        <ele>61</ele>
        <time>2019-06-01T10:08:45Z</time>
      </trkpt>
      <trkpt lat="47.3377" lon="-1.12127">
        <ele>62</ele>
        <time>2019-06-01T10:08:48Z</time>
      </trkpt>
      <trkpt lat="47.33766" lon="-1.12127">
        <ele>62</ele>
        <time>2019-06-01T10:08:50Z</time>
      </trkpt>
      <trkpt lat="47.33755" lon="-1.1213">
        <ele>63</ele>
        <time>2019-06-01T10:08:55Z</time>
      </trkpt>
      <trkpt lat="47.33752" lon="-1.1213">
        <ele>63</ele>
        <time>2019-06-01T10:08:56Z</time>
      </trkpt>
      <trkpt lat="47.33739" lon="-1.12134">
        <ele>64</ele>
        <time>2019-06-01T10:09:02Z</time>
      </trkpt>
      <trkpt lat="47.33727" lon="-1.1214">
        <ele>66</ele>
        <time>2019-06-01T10:09:08Z</time>
      </trkpt>
      <trkpt lat="47.33725" lon="-1.12141">
        <ele>66</ele>
        <time>2019-06-01T10:09:09Z</time>
      </trkpt>
      <trkpt lat="47.33714" lon="-1.1215">
        <ele>67</ele>
        <time>2019-06-01T10:09:14Z</time>
      </trkpt>
      <trkpt lat="47.3371" lon="-1.12155">
        <ele>67</ele>
        <time>2019-06-01T10:09:16Z</time>
      </trkpt>
      <trkpt lat="47.33703" lon="-1.12168">
        <ele>68</ele>
        <time>2019-06-01T10:09:20Z</time>
      </trkpt>
      <trkpt lat="47.33699" lon="-1.1218">
        <ele>68</ele>
        <time>2019-06-01T10:09:23Z</time>
      </trkpt>
      <trkpt lat="47.33685" lon="-1.12212">
        <ele>69</ele>
        <time>2019-06-01T10:09:31Z</time>
      </trkpt>
      <trkpt lat="47.33671" lon="-1.12237">
        <ele>69</ele>
        <time>2019-06-01T10:09:38Z</time>
      </trkpt>
      <trkpt lat="47.33654" lon="-1.12264">
        <ele>70</ele>
        <time>2019-06-01T10:09:45Z</time>
      </trkpt>
      <trkpt lat="47.33637" lon="-1.12287">
        <ele>70</ele>
        <time>2019-06-01T10:09:52Z</time>
      </trkpt>
      <trkpt lat="47.33631" lon="-1.12293">
        <ele>70</ele>
        <time>2019-06-01T10:09:54Z</time>
      </trkpt>
      <trkpt lat="47.33618" lon="-1.12318">
        <ele>70</ele>
        <time>2019-06-01T10:10:00Z</time>
      </trkpt>
      <trkpt lat="47.33619" lon="-1.12348">
        <ele>70</ele>
        <time>2019-06-01T10:10:06Z</time>
      </trkpt>
      <trkpt lat="47.33623" lon="-1.12391">
        <ele>69</ele>
        <time>2019-06-01T10:10:14Z</time>
      </trkpt>
      <trkpt lat="47.33627" lon="-1.12396">
        <ele>69</ele>
        <time>2019-06-01T10:10:16Z</time>
      </trkpt>
      <trkpt lat="47.33629" lon="-1.12397">
        <ele>69</ele>
        <time>2019-06-01T10:10:17Z</time>
      </trkpt>
      <trkpt lat="47.33648" lon="-1.12397">
        <ele>69</ele>
        <time>2019-06-01T10:10:23Z</time>
      </trkpt>
      <trkpt lat="47.33677" lon="-1.12396">
        <ele>69</ele>
        <time>2019-06-01T10:10:33Z</time>
      </trkpt>
      <trkpt lat="47.33691" lon="-1.12402">
        <ele>69</ele>
        <time>2019-06-01T10:10:39Z</time>
      </trkpt>
      <trkpt lat="47.33693" lon="-1.12406">
        <ele>68</ele>
        <time>2019-06-01T10:10:47Z</time>
      </trkpt>
      <trkpt lat="47.33694" lon="-1.12409">
        <ele>68</ele>
        <time>2019-06-01T10:10:48Z</time>
      </trkpt>
      <trkpt lat="47.33697" lon="-1.12432">
        <ele>68</ele>
        <time>2019-06-01T10:10:53Z</time>
      </trkpt>
      <trkpt lat="47.33704" lon="-1.12471">
        <ele>68</ele>
        <time>2019-06-01T10:11:00Z</time>
      </trkpt>
      <trkpt lat="47.33705" lon="-1.12477">
        <ele>68</ele>
        <time>2019-06-01T10:11:01Z</time>
      </trkpt>
      <trkpt lat="47.33715" lon="-1.12529">
        <ele>67</ele>
        <time>2019-06-01T10:11:09Z</time>
      </trkpt>
      <trkpt lat="47.3372" lon="-1.12561">
        <ele>66</ele>
        <time>2019-06-01T10:11:15Z</time>
      </trkpt>
      <trkpt lat="47.33718" lon="-1.12579">
        <ele>65</ele>
        <time>2019-06-01T10:11:19Z</time>
      </trkpt>
      <trkpt lat="47.33718" lon="-1.12589">
        <ele>65</ele>
        <time>2019-06-01T10:11:21Z</time>
      </trkpt>
      <trkpt lat="47.33716" lon="-1.12604">
        <ele>64</ele>
        <time>2019-06-01T10:11:24Z</time>
      </trkpt>
      <trkpt lat="47.3371" lon="-1.12652">
        <ele>64</ele>
        <time>2019-06-01T10:11:32Z</time>
      </trkpt>
      <trkpt lat="47.33704" lon="-1.12697">
        <ele>63</ele>
        <time>2019-06-01T10:11:38Z</time>
      </trkpt>
      <trkpt lat="47.33703" lon="-1.12704">
        <ele>62</ele>
        <time>2019-06-01T10:11:39Z</time>
      </trkpt>
      <trkpt lat="47.337" lon="-1.12724">
        <ele>62</ele>
        <time>2019-06-01T10:11:42Z</time>
      </trkpt>
      <trkpt lat="47.33698" lon="-1.12742">
        <ele>60</ele>
        <time>2019-06-01T10:11:45Z</time>
      </trkpt>
      <trkpt lat="47.33695" lon="-1.12758">
        <ele>59</ele>
        <time>2019-06-01T10:11:48Z</time>
      </trkpt>
      <trkpt lat="47.33694" lon="-1.12773">
        <ele>58</ele>
        <time>2019-06-01T10:11:51Z</time>
      </trkpt>
      <trkpt lat="47.33693" lon="-1.12777">
        <ele>58</ele>
        <time>2019-06-01T10:11:52Z</time>
      </trkpt>
      <trkpt lat="47.33692" lon="-1.12784">
        <ele>57</ele>
        <time>2019-06-01T10:11:54Z</time>
      </trkpt>
      <trkpt lat="47.33689" lon="-1.12791">
        <ele>55</ele>
        <time>2019-06-01T10:11:57Z</time>
      </trkpt>
      <trkpt lat="47.33688" lon="-1.12792">
        <ele>55</ele>
        <time>2019-06-01T10:11:58Z</time>
      </trkpt>
      <trkpt lat="47.33686" lon="-1.12792">
        <ele>54</ele>
        <time>2019-06-01T10:11:59Z</time>
      </trkpt>
      <trkpt lat="47.33682" lon="-1.12789">
        <ele>54</ele>
        <time>2019-06-01T10:12:01Z</time>
      </trkpt>
      <trkpt lat="47.33677" lon="-1.12787">
        <ele>54</ele>
        <time>2019-06-01T10:12:03Z</time>
      </trkpt>
      <trkpt lat="47.33666" lon="-1.12776">
        <ele>54</ele>
        <time>2019-06-01T10:12:09Z</time>
      </trkpt>
      <trkpt lat="47.33657" lon="-1.12763">
        <ele>54</ele>
        <time>2019-06-01T10:12:15Z</time>
      </trkpt>
      <trkpt lat="47.33649" lon="-1.12746">
        <ele>55</ele>
        <time>2019-06-01T10:12:23Z</time>
      </trkpt>
      <trkpt lat="47.33637" lon="-1.12725">
        <ele>57</ele>
        <time>2019-06-01T10:12:31Z</time>
      </trkpt>
      <trkpt lat="47.33627" lon="-1.12704">
        <ele>57</ele>
        <time>2019-06-01T10:12:37Z</time>
      </trkpt>
      <trkpt lat="47.33623" lon="-1.12695">
        <ele>58</ele>
        <time>2019-06-01T10:12:39Z</time>
      </trkpt>
      <trkpt lat="47.33616" lon="-1.12667">
        <ele>59</ele>
        <time>2019-06-01T10:12:44Z</time>
      </trkpt>
      <trkpt lat="47.33614" lon="-1.12661">
        <ele>59</ele>
        <time>2019-06-01T10:12:45Z</time>
      </trkpt>
      <trkpt lat="47.33607" lon="-1.12632">
        <ele>60</ele>
        <time>2019-06-01T10:12:51Z</time>
      </trkpt>
      <trkpt lat="47.33604" lon="-1.1262">
        <ele>60</ele>
        <time>2019-06-01T10:12:53Z</time>
      </trkpt>
      <trkpt lat="47.33594" lon="-1.12583">
        <ele>61</ele>
        <time>2019-06-01T10:13:00Z</time>
      </trkpt>
      <trkpt lat="47.33591" lon="-1.12574">
        <ele>61</ele>
        <time>2019-06-01T10:13:02Z</time>
      </trkpt>
      <trkpt lat="47.33584" lon="-1.12558">
        <ele>61</ele>
        <time>2019-06-01T10:13:06Z</time>
      </trkpt>
      <trkpt lat="47.33573" lon="-1.12545">
        <ele>62</ele>
        <time>2019-06-01T10:13:10Z</time>
      </trkpt>
      <trkpt lat="47.33569" lon="-1.12542">
        <ele>62</ele>
        <time>2019-06-01T10:13:11Z</time>
      </trkpt>
      <trkpt lat="47.33564" lon="-1.1254">
        <ele>62</ele>
        <time>2019-06-01T10:13:12Z</time>
      </trkpt>
      <trkpt lat="47.33539" lon="-1.12532">
        <ele>61</ele>
        <time>2019-06-01T10:13:17Z</time>
      </trkpt>
      <trkpt lat="47.33534" lon="-1.12531">
        <ele>60</ele>
        <time>2019-06-01T10:13:18Z</time>
      </trkpt>
      <trkpt lat="47.33519" lon="-1.12528">
        <ele>59</ele>
        <time>2019-06-01T10:13:21Z</time>
      </trkpt>
      <trkpt lat="47.33506" lon="-1.12522">
        <ele>58</ele>
        <time>2019-06-01T10:13:24Z</time>
      </trkpt>
      <trkpt lat="47.33496" lon="-1.12513">
        <ele>57</ele>
        <time>2019-06-01T10:13:27Z</time>
      </trkpt>
      <trkpt lat="47.33493" lon="-1.12511">
        <ele>56</ele>
        <time>2019-06-01T10:13:28Z</time>
      </trkpt>
      <trkpt lat="47.33488" lon="-1.1251">
        <ele>55</ele>
        <time>2019-06-01T10:13:30Z</time>
      </trkpt>
      <trkpt lat="47.33482" lon="-1.12516">
        <ele>55</ele>
        <time>2019-06-01T10:13:32Z</time>
      </trkpt>
      <trkpt lat="47.33479" lon="-1.12521">
        <ele>54</ele>
        <time>2019-06-01T10:13:33Z</time>
      </trkpt>
      <trkpt lat="47.33471" lon="-1.12535">
        <ele>53</ele>
        <time>2019-06-01T10:13:36Z</time>
      </trkpt>
      <trkpt lat="47.33458" lon="-1.12557">
        <ele>53</ele>
        <time>2019-06-01T10:13:41Z</time>
      </trkpt>
      <trkpt lat="47.33436" lon="-1.12594">
        <ele>53</ele>
        <time>2019-06-01T10:13:48Z</time>
      </trkpt>
      <trkpt lat="47.33414" lon="-1.1262">
        <ele>54</ele>
        <time>2019-06-01T10:13:55Z</time>
      </trkpt>
      <trkpt lat="47.33407" lon="-1.12624">
        <ele>54</ele>
        <time>2019-06-01T10:13:57Z</time>
      </trkpt>
      <trkpt lat="47.33394" lon="-1.12631">
        <ele>55</ele>
        <time>2019-06-01T10:14:01Z</time>
      </trkpt>
      <trkpt lat="47.3339" lon="-1.12632">
        <ele>56</ele>
        <time>2019-06-01T10:14:02Z</time>
      </trkpt>
      <trkpt lat="47.33376" lon="-1.12636">
        <ele>56</ele>
        <time>2019-06-01T10:14:06Z</time>
      </trkpt>
      <trkpt lat="47.33359" lon="-1.12638">
        <ele>57</ele>
        <time>2019-06-01T10:14:11Z</time>
      </trkpt>
      <trkpt lat="47.33355" lon="-1.12637">
        <ele>57</ele>
        <time>2019-06-01T10:14:12Z</time>
      </trkpt>
      <trkpt lat="47.3333" lon="-1.12631">
        <ele>58</ele>
        <time>2019-06-01T10:14:19Z</time>
      </trkpt>
      <trkpt lat="47.33303" lon="-1.12621">
        <ele>59</ele>
        <time>2019-06-01T10:14:27Z</time>
      </trkpt>
      <trkpt lat="47.333" lon="-1.1262">
        <ele>59</ele>
        <time>2019-06-01T10:14:28Z</time>
      </trkpt>
      <trkpt lat="47.33273" lon="-1.1261">
        <ele>61</ele>
        <time>2019-06-01T10:14:36Z</time>
      </trkpt>
      <trkpt lat="47.33248" lon="-1.12601">
        <ele>62</ele>
        <time>2019-06-01T10:14:44Z</time>
      </trkpt>
      <trkpt lat="47.3324" lon="-1.12597">
        <ele>62</ele>
        <time>2019-06-01T10:14:47Z</time>
      </trkpt>
      <trkpt lat="47.33234" lon="-1.12594">
        <ele>63</ele>
        <time>2019-06-01T10:14:49Z</time>
      </trkpt>
      <trkpt lat="47.33224" lon="-1.12589">
        <ele>63</ele>
        <time>2019-06-01T10:14:53Z</time>
      </trkpt>
      <trkpt lat="47.33223" lon="-1.12585">
        <ele>64</ele>
        <time>2019-06-01T10:14:54Z</time>
      </trkpt>
      <trkpt lat="47.33223" lon="-1.12576">
        <ele>64</ele>
        <time>2019-06-01T10:14:56Z</time>
      </trkpt>
      <trkpt lat="47.33226" lon="-1.12565">
        <ele>64</ele>
        <time>2019-06-01T10:14:58Z</time>
      </trkpt>
      <trkpt lat="47.33228" lon="-1.1256">
        <ele>64</ele>
        <time>2019-06-01T10:14:59Z</time>
      </trkpt>
      <trkpt lat="47.33234" lon="-1.1254">
        <ele>64</ele>
        <time>2019-06-01T10:15:02Z</time>
      </trkpt>
      <trkpt lat="47.33239" lon="-1.12529">
        <ele>64</ele>
        <time>2019-06-01T10:15:04Z</time>
      </trkpt>
      <trkpt lat="47.33248" lon="-1.12506">
        <ele>63</ele>
        <time>2019-06-01T10:15:08Z</time>
      </trkpt>
      <trkpt lat="47.33254" lon="-1.12494">
        <ele>62</ele>
        <time>2019-06-01T10:15:10Z</time>
      </trkpt>
      <trkpt lat="47.33257" lon="-1.12489">
        <ele>62</ele>
        <time>2019-06-01T10:15:11Z</time>
      </trkpt>
      <trkpt lat="47.33263" lon="-1.12478">
        <ele>62</ele>
        <time>2019-06-01T10:15:13Z</time>
      </trkpt>
      <trkpt lat="47.33277" lon="-1.12456">
        <ele>61</ele>
        <time>2019-06-01T10:15:18Z</time>
      </trkpt>
      <trkpt lat="47.33296" lon="-1.12421">
        <ele>62</ele>
        <time>2019-06-01T10:15:26Z</time>
      </trkpt>
      <trkpt lat="47.33308" lon="-1.12386">
        <ele>62</ele>
        <time>2019-06-01T10:15:33Z</time>
      </trkpt>
      <trkpt lat="47.33317" lon="-1.12346">
        <ele>62</ele>
        <time>2019-06-01T10:15:40Z</time>
      </trkpt>
      <trkpt lat="47.33329" lon="-1.12295">
        <ele>62</ele>
        <time>2019-06-01T10:15:49Z</time>
      </trkpt>
      <trkpt lat="47.33338" lon="-1.12256">
        <ele>63</ele>
        <time>2019-06-01T10:15:57Z</time>
      </trkpt>
      <trkpt lat="47.33339" lon="-1.12251">
        <ele>63</ele>
        <time>2019-06-01T10:15:58Z</time>
      </trkpt>
      <trkpt lat="47.33345" lon="-1.12224">
        <ele>64</ele>
        <time>2019-06-01T10:16:04Z</time>
      </trkpt>
      <trkpt lat="47.33347" lon="-1.12215">
        <ele>64</ele>
        <time>2019-06-01T10:16:06Z</time>
      </trkpt>
      <trkpt lat="47.33348" lon="-1.1221">
        <ele>64</ele>
        <time>2019-06-01T10:16:07Z</time>
      </trkpt>
      <trkpt lat="47.33346" lon="-1.12192">
        <ele>64</ele>
        <time>2019-06-01T10:16:11Z</time>
      </trkpt>
      <trkpt lat="47.33335" lon="-1.12184">
        <ele>65</ele>
        <time>2019-06-01T10:16:15Z</time>
      </trkpt>
      <trkpt lat="47.33332" lon="-1.12182">
        <ele>65</ele>
        <time>2019-06-01T10:16:16Z</time>
      </trkpt>
      <trkpt lat="47.33313" lon="-1.12171">
        <ele>66</ele>
        <time>2019-06-01T10:16:23Z</time>
      </trkpt>
      <trkpt lat="47.333" lon="-1.12161">
        <ele>67</ele>
        <time>2019-06-01T10:16:28Z</time>
      </trkpt>
      <trkpt lat="47.33285" lon="-1.12152">
        <ele>68</ele>
        <time>2019-06-01T10:16:34Z</time>
      </trkpt>
      <trkpt lat="47.33283" lon="-1.1215">
        <ele>68</ele>
        <time>2019-06-01T10:16:35Z</time>
      </trkpt>
      <trkpt lat="47.33267" lon="-1.1214">
        <ele>69</ele>
        <time>2019-06-01T10:16:41Z</time>
      </trkpt>
      <trkpt lat="47.33262" lon="-1.12137">
        <ele>70</ele>
        <time>2019-06-01T10:16:43Z</time>
      </trkpt>
      <trkpt lat="47.33252" lon="-1.1213">
        <ele>71</ele>
        <time>2019-06-01T10:16:47Z</time>
      </trkpt>
      <trkpt lat="47.33235" lon="-1.12113">
        <ele>71</ele>
        <time>2019-06-01T10:16:53Z</time>
      </trkpt>
      <trkpt lat="47.3322" lon="-1.12103">
        <ele>72</ele>
        <time>2019-06-01T10:16:58Z</time>
      </trkpt>
      <trkpt lat="47.3321" lon="-1.12096">
        <ele>72</ele>
        <time>2019-06-01T10:17:01Z</time>
      </trkpt>
      <trkpt lat="47.33195" lon="-1.12085">
        <ele>73</ele>
        <time>2019-06-01T10:17:06Z</time>
      </trkpt>
      <trkpt lat="47.33183" lon="-1.12077">
        <ele>73</ele>
        <time>2019-06-01T10:17:10Z</time>
      </trkpt>
      <trkpt lat="47.33167" lon="-1.12065">
        <ele>74</ele>
        <time>2019-06-01T10:17:15Z</time>
      </trkpt>
      <trkpt lat="47.33158" lon="-1.12058">
        <ele>74</ele>
        <time>2019-06-01T10:17:18Z</time>
      </trkpt>
      <trkpt lat="47.33136" lon="-1.12043">
        <ele>75</ele>
        <time>2019-06-01T10:17:25Z</time>
      </trkpt>
      <trkpt lat="47.33129" lon="-1.12037">
        <ele>75</ele>
        <time>2019-06-01T10:17:27Z</time>
      </trkpt>
      <trkpt lat="47.33099" lon="-1.12016">
        <ele>76</ele>
        <time>2019-06-01T10:17:36Z</time>
      </trkpt>
      <trkpt lat="47.33079" lon="-1.11997">
        <ele>76</ele>
        <time>2019-06-01T10:17:43Z</time>
      </trkpt>
      <trkpt lat="47.33081" lon="-1.11979">
        <ele>76</ele>
        <time>2019-06-01T10:17:47Z</time>
      </trkpt>
      <trkpt lat="47.33097" lon="-1.1195">
        <ele>76</ele>
        <time>2019-06-01T10:17:53Z</time>
      </trkpt>
      <trkpt lat="47.33104" lon="-1.11935">
        <ele>76</ele>
        <time>2019-06-01T10:17:56Z</time>
      </trkpt>
      <trkpt lat="47.33119" lon="-1.11904">
        <ele>76</ele>
        <time>2019-06-01T10:18:02Z</time>
      </trkpt>
      <trkpt lat="47.33141" lon="-1.11856">
        <ele>76</ele>
        <time>2019-06-01T10:18:10Z</time>
      </trkpt>
      <trkpt lat="47.33162" lon="-1.11803">
        <ele>76</ele>
        <time>2019-06-01T10:18:19Z</time>
      </trkpt>
      <trkpt lat="47.33184" lon="-1.11738">
        <ele>75</ele>
        <time>2019-06-01T10:18:29Z</time>
      </trkpt>
      <trkpt lat="47.33201" lon="-1.11688">
        <ele>75</ele>
        <time>2019-06-01T10:18:36Z</time>
      </trkpt>
      <trkpt lat="47.33204" lon="-1.11681">
        <ele>75</ele>
        <time>2019-06-01T10:18:37Z</time>
      </trkpt>
      <trkpt lat="47.33226" lon="-1.11635">
        <ele>75</ele>
        <time>2019-06-01T10:18:45Z</time>
      </trkpt>
      <trkpt lat="47.33235" lon="-1.11619">
        <ele>74</ele>
        <time>2019-06-01T10:18:48Z</time>
      </trkpt>
      <trkpt lat="47.33244" lon="-1.11597">
        <ele>74</ele>
        <time>2019-06-01T10:18:52Z</time>
      </trkpt>
      <trkpt lat="47.33248" lon="-1.11579">
        <ele>74</ele>
        <time>2019-06-01T10:18:56Z</time>
      </trkpt>
      <trkpt lat="47.33249" lon="-1.11576">
        <ele>74</ele>
        <time>2019-06-01T10:18:57Z</time>
      </trkpt>
      <trkpt lat="47.33259" lon="-1.11564">
        <ele>74</ele>
        <time>2019-06-01T10:19:01Z</time>
      </trkpt>
      <trkpt lat="47.33284" lon="-1.11546">
        <ele>74</ele>
        <time>2019-06-01T10:19:07Z</time>
      </trkpt>
      <trkpt lat="47.33322" lon="-1.11526">
        <ele>74</ele>
        <time>2019-06-01T10:19:15Z</time>
      </trkpt>
      <trkpt lat="47.3333" lon="-1.1152">
        <ele>74</ele>
        <time>2019-06-01T10:19:17Z</time>
      </trkpt>
      <trkpt lat="47.33348" lon="-1.11508">
        <ele>73</ele>
        <time>2019-06-01T10:19:21Z</time>
      </trkpt>
      <trkpt lat="47.33392" lon="-1.11479">
        <ele>73</ele>
        <time>2019-06-01T10:19:30Z</time>
      </trkpt>
      <trkpt lat="47.33426" lon="-1.11451">
        <ele>73</ele>
        <time>2019-06-01T10:19:38Z</time>
      </trkpt>
      <trkpt lat="47.33434" lon="-1.11444">
        <ele>73</ele>
        <time>2019-06-01T10:19:40Z</time>
      </trkpt>
      <trkpt lat="47.3346" lon="-1.11421">
        <ele>73</ele>
        <time>2019-06-01T10:19:47Z</time>
      </trkpt>
      <trkpt lat="47.33467" lon="-1.11397">
        <ele>73</ele>
        <time>2019-06-01T10:19:51Z</time>
      </trkpt>
      <trkpt lat="47.33468" lon="-1.11389">
        <ele>72</ele>
        <time>2019-06-01T10:19:52Z</time>
      </trkpt>
      <trkpt lat="47.33475" lon="-1.11353">
        <ele>72</ele>
        <time>2019-06-01T10:19:57Z</time>
      </trkpt>
      <trkpt lat="47.33477" lon="-1.11339">
        <ele>72</ele>
        <time>2019-06-01T10:19:59Z</time>
      </trkpt>
      <trkpt lat="47.33486" lon="-1.11293">
        <ele>71</ele>
        <time>2019-06-01T10:20:06Z</time>
      </trkpt>
      <trkpt lat="47.33487" lon="-1.11286">
        <ele>71</ele>
        <time>2019-06-01T10:20:07Z</time>
      </trkpt>
      <trkpt lat="47.33498" lon="-1.11233">
        <ele>70</ele>
        <time>2019-06-01T10:20:14Z</time>
      </trkpt>
      <trkpt lat="47.335" lon="-1.11218">
        <ele>70</ele>
        <time>2019-06-01T10:20:16Z</time>
      </trkpt>
      <trkpt lat="47.33509" lon="-1.11168">
        <ele>69</ele>
        <time>2019-06-01T10:20:23Z</time>
      </trkpt>
      <trkpt lat="47.33518" lon="-1.1111">
        <ele>69</ele>
        <time>2019-06-01T10:20:31Z</time>
      </trkpt>
      <trkpt lat="47.33522" lon="-1.1109">
        <ele>69</ele>
        <time>2019-06-01T10:20:34Z</time>
      </trkpt>
      <trkpt lat="47.33533" lon="-1.11026">
        <ele>68</ele>
        <time>2019-06-01T10:20:43Z</time>
      </trkpt>
      <trkpt lat="47.33541" lon="-1.10981">
        <ele>68</ele>
        <time>2019-06-01T10:20:49Z</time>
      </trkpt>
      <trkpt lat="47.33543" lon="-1.10967">
        <ele>68</ele>
        <time>2019-06-01T10:20:51Z</time>
      </trkpt>
      <trkpt lat="47.33545" lon="-1.10952">
        <ele>67</ele>
        <time>2019-06-01T10:20:55Z</time>
      </trkpt>
      <trkpt lat="47.33547" lon="-1.10947">
        <ele>67</ele>
        <time>2019-06-01T10:20:58Z</time>
      </trkpt>
      <trkpt lat="47.33553" lon="-1.10945">
        <ele>67</ele>
        <time>2019-06-01T10:21:00Z</time>
      </trkpt>
      <trkpt lat="47.33564" lon="-1.10949">
        <ele>67</ele>
        <time>2019-06-01T10:21:03Z</time>
      </trkpt>
      <trkpt lat="47.33568" lon="-1.10951">
        <ele>67</ele>
        <time>2019-06-01T10:21:04Z</time>
      </trkpt>
      <trkpt lat="47.33597" lon="-1.10962">
        <ele>67</ele>
        <time>2019-06-01T10:21:11Z</time>
      </trkpt>
      <trkpt lat="47.33629" lon="-1.10975">
        <ele>68</ele>
        <time>2019-06-01T10:21:19Z</time>
      </trkpt>
      <trkpt lat="47.33664" lon="-1.10987">
        <ele>68</ele>
        <time>2019-06-01T10:21:28Z</time>
      </trkpt>
      <trkpt lat="47.3369" lon="-1.10996">
        <ele>68</ele>
        <time>2019-06-01T10:21:36Z</time>
      </trkpt>
      <trkpt lat="47.33709" lon="-1.10999">
        <ele>68</ele>
        <time>2019-06-01T10:21:43Z</time>
      </trkpt>
      <trkpt lat="47.3371" lon="-1.10987">
        <ele>68</ele>
        <time>2019-06-01T10:21:46Z</time>
      </trkpt>
      <trkpt lat="47.33709" lon="-1.10981">
        <ele>68</ele>
        <time>2019-06-01T10:21:47Z</time>
      </trkpt>
      <trkpt lat="47.33705" lon="-1.10947">
        <ele>68</ele>
        <time>2019-06-01T10:21:53Z</time>
      </trkpt>
      <trkpt lat="47.33705" lon="-1.10941">
        <ele>68</ele>
        <time>2019-06-01T10:21:54Z</time>
      </trkpt>
      <trkpt lat="47.33709" lon="-1.10895">
        <ele>68</ele>
        <time>2019-06-01T10:22:01Z</time>
      </trkpt>
      <trkpt lat="47.33709" lon="-1.10846">
        <ele>69</ele>
        <time>2019-06-01T10:22:08Z</time>
      </trkpt>
      <trkpt lat="47.33701" lon="-1.10787">
        <ele>69</ele>
        <time>2019-06-01T10:22:17Z</time>
      </trkpt>
      <trkpt lat="47.33702" lon="-1.10779">
        <ele>69</ele>
        <time>2019-06-01T10:22:19Z</time>
      </trkpt>
      <trkpt lat="47.33705" lon="-1.10776">
        <ele>69</ele>
        <time>2019-06-01T10:22:20Z</time>
      </trkpt>
      <trkpt lat="47.3372" lon="-1.10773">
        <ele>69</ele>
        <time>2019-06-01T10:22:24Z</time>
      </trkpt>
      <trkpt lat="47.33737" lon="-1.10772">
        <ele>69</ele>
        <time>2019-06-01T10:22:28Z</time>
      </trkpt>
      <trkpt lat="47.33749" lon="-1.1077">
        <ele>69</ele>
        <time>2019-06-01T10:22:31Z</time>
      </trkpt>
      <trkpt lat="47.33766" lon="-1.10764">
        <ele>69</ele>
        <time>2019-06-01T10:22:36Z</time>
      </trkpt>
      <trkpt lat="47.33767" lon="-1.10759">
        <ele>69</ele>
        <time>2019-06-01T10:22:37Z</time>
      </trkpt>
      <trkpt lat="47.33768" lon="-1.10739">
        <ele>69</ele>
        <time>2019-06-01T10:22:41Z</time>
      </trkpt>
      <trkpt lat="47.33768" lon="-1.10733">
        <ele>69</ele>
        <time>2019-06-01T10:22:42Z</time>
      </trkpt>
      <trkpt lat="47.3377" lon="-1.10687">
        <ele>69</ele>
        <time>2019-06-01T10:22:49Z</time>
      </trkpt>
      <trkpt lat="47.33776" lon="-1.10621">
        <ele>68</ele>
        <time>2019-06-01T10:22:59Z</time>
      </trkpt>
      <trkpt lat="47.33781" lon="-1.10578">
        <ele>68</ele>
        <time>2019-06-01T10:23:06Z</time>
      </trkpt>
      <trkpt lat="47.33782" lon="-1.10567">
        <ele>67</ele>
        <time>2019-06-01T10:23:08Z</time>
      </trkpt>
      <trkpt lat="47.33786" lon="-1.10513">
        <ele>67</ele>
        <time>2019-06-01T10:23:17Z</time>
      </trkpt>
      <trkpt lat="47.33788" lon="-1.10474">
        <ele>67</ele>
        <time>2019-06-01T10:23:25Z</time>
      </trkpt>
      <trkpt lat="47.33788" lon="-1.1045">
        <ele>67</ele>
        <time>2019-06-01T10:23:32Z</time>
      </trkpt>
      <trkpt lat="47.33785" lon="-1.10421">
        <ele>67</ele>
        <time>2019-06-01T10:23:40Z</time>
      </trkpt>
      <trkpt lat="47.33775" lon="-1.10378">
        <ele>67</ele>
        <time>2019-06-01T10:23:51Z</time>
      </trkpt>
      <trkpt lat="47.33771" lon="-1.10342">
        <ele>67</ele>
        <time>2019-06-01T10:23:59Z</time>
      </trkpt>
      <trkpt lat="47.33772" lon="-1.10299">
        <ele>67</ele>
        <time>2019-06-01T10:24:06Z</time>
      </trkpt>
      <trkpt lat="47.3377" lon="-1.1024">
        <ele>67</ele>
        <time>2019-06-01T10:24:15Z</time>
      </trkpt>
      <trkpt lat="47.33766" lon="-1.10187">
        <ele>67</ele>
        <time>2019-06-01T10:24:23Z</time>
      </trkpt>
      <trkpt lat="47.3376" lon="-1.10119">
        <ele>67</ele>
        <time>2019-06-01T10:24:33Z</time>
      </trkpt>
      <trkpt lat="47.33757" lon="-1.10051">
        <ele>67</ele>
        <time>2019-06-01T10:24:43Z</time>
      </trkpt>
      <trkpt lat="47.33757" lon="-1.10032">
        <ele>67</ele>
        <time>2019-06-01T10:24:46Z</time>
      </trkpt>
      <trkpt lat="47.33757" lon="-1.09992">
        <ele>66</ele>
        <time>2019-06-01T10:24:53Z</time>
      </trkpt>
      <trkpt lat="47.33767" lon="-1.09986">
        <ele>66</ele>
        <time>2019-06-01T10:24:56Z</time>
      </trkpt>
      <trkpt lat="47.3378" lon="-1.09988">
        <ele>66</ele>
        <time>2019-06-01T10:24:59Z</time>
      </trkpt>
      <trkpt lat="47.33789" lon="-1.09988">
        <ele>66</ele>
        <time>2019-06-01T10:25:01Z</time>
      </trkpt>
      <trkpt lat="47.33834" lon="-1.09989">
        <ele>65</ele>
        <time>2019-06-01T10:25:10Z</time>
      </trkpt>
      <trkpt lat="47.33853" lon="-1.09987">
        <ele>64</ele>
        <time>2019-06-01T10:25:14Z</time>
      </trkpt>
      <trkpt lat="47.33857" lon="-1.09979">
        <ele>64</ele>
        <time>2019-06-01T10:25:16Z</time>
      </trkpt>
      <trkpt lat="47.33862" lon="-1.09961">
        <ele>64</ele>
        <time>2019-06-01T10:25:20Z</time>
      </trkpt>
      <trkpt lat="47.33874" lon="-1.09958">
        <ele>64</ele>
        <time>2019-06-01T10:25:23Z</time>
      </trkpt>
      <trkpt lat="47.33879" lon="-1.09958">
        <ele>64</ele>
        <time>2019-06-01T10:25:24Z</time>
      </trkpt>
      <trkpt lat="47.33901" lon="-1.09958">
        <ele>63</ele>
        <time>2019-06-01T10:25:28Z</time>
      </trkpt>
      <trkpt lat="47.33906" lon="-1.09958">
        <ele>63</ele>
        <time>2019-06-01T10:25:29Z</time>
      </trkpt>
      <trkpt lat="47.33917" lon="-1.09958">
        <ele>62</ele>
        <time>2019-06-01T10:25:31Z</time>
      </trkpt>
      <trkpt lat="47.33934" lon="-1.09958">
        <ele>61</ele>
        <time>2019-06-01T10:25:35Z</time>
      </trkpt>
      <trkpt lat="47.33943" lon="-1.09959">
        <ele>60</ele>
        <time>2019-06-01T10:25:38Z</time>
      </trkpt>
      <trkpt lat="47.33945" lon="-1.09961">
        <ele>60</ele>
        <time>2019-06-01T10:25:39Z</time>
      </trkpt>
      <trkpt lat="47.33945" lon="-1.09973">
        <ele>59</ele>
        <time>2019-06-01T10:25:42Z</time>
      </trkpt>
      <trkpt lat="47.33942" lon="-1.09983">
        <ele>59</ele>
        <time>2019-06-01T10:25:44Z</time>
      </trkpt>
      <trkpt lat="47.33941" lon="-1.09989">
        <ele>59</ele>
        <time>2019-06-01T10:25:45Z</time>
      </trkpt>
      <trkpt lat="47.33937" lon="-1.10008">
        <ele>59</ele>
        <time>2019-06-01T10:25:48Z</time>
      </trkpt>
      <trkpt lat="47.33931" lon="-1.10051">
        <ele>59</ele>
        <time>2019-06-01T10:25:54Z</time>
      </trkpt>
      <trkpt lat="47.33929" lon="-1.10063">
        <ele>59</ele>
        <time>2019-06-01T10:25:56Z</time>
      </trkpt>
      <trkpt lat="47.33925" lon="-1.10089">
        <ele>59</ele>
        <time>2019-06-01T10:26:00Z</time>
      </trkpt>
      <trkpt lat="47.33918" lon="-1.10143">
        <ele>59</ele>
        <time>2019-06-01T10:26:08Z</time>
      </trkpt>
      <trkpt lat="47.33907" lon="-1.10188">
        <ele>59</ele>
        <time>2019-06-01T10:26:15Z</time>
      </trkpt>
      <trkpt lat="47.33906" lon="-1.10194">
        <ele>59</ele>
        <time>2019-06-01T10:26:16Z</time>
      </trkpt>
      <trkpt lat="47.33902" lon="-1.10242">
        <ele>60</ele>
        <time>2019-06-01T10:26:24Z</time>
      </trkpt>
      <trkpt lat="47.33901" lon="-1.10248">
        <ele>60</ele>
        <time>2019-06-01T10:26:25Z</time>
      </trkpt>
      <trkpt lat="47.33895" lon="-1.10288">
        <ele>61</ele>
        <time>2019-06-01T10:26:32Z</time>
      </trkpt>
      <trkpt lat="47.33895" lon="-1.10294">
        <ele>61</ele>
        <time>2019-06-01T10:26:33Z</time>
      </trkpt>
      <trkpt lat="47.33893" lon="-1.10345">
        <ele>61</ele>
        <time>2019-06-01T10:26:41Z</time>
      </trkpt>
      <trkpt lat="47.33897" lon="-1.10367">
        <ele>61</ele>
        <time>2019-06-01T10:26:45Z</time>
      </trkpt>
      <trkpt lat="47.33898" lon="-1.10375">
        <ele>61</ele>
        <time>2019-06-01T10:26:46Z</time>
      </trkpt>
      <trkpt lat="47.33899" lon="-1.10417">
        <ele>60</ele>
        <time>2019-06-01T10:26:51Z</time>
      </trkpt>
      <trkpt lat="47.33899" lon="-1.1046">
        <ele>59</ele>
        <time>2019-06-01T10:26:57Z</time>
      </trkpt>
      <trkpt lat="47.33896" lon="-1.10525">
        <ele>60</ele>
        <time>2019-06-01T10:27:07Z</time>
      </trkpt>
      <trkpt lat="47.33894" lon="-1.10555">
        <ele>61</ele>
        <time>2019-06-01T10:27:12Z</time>
      </trkpt>
      <trkpt lat="47.33894" lon="-1.10568">
        <ele>61</ele>
        <time>2019-06-01T10:27:14Z</time>
      </trkpt>
      <trkpt lat="47.33897" lon="-1.10589">
        <ele>61</ele>
        <time>2019-06-01T10:27:17Z</time>
      </trkpt>
      <trkpt lat="47.33902" lon="-1.1061">
        <ele>61</ele>
        <time>2019-06-01T10:27:20Z</time>
      </trkpt>
      <trkpt lat="47.33911" lon="-1.10648">
        <ele>61</ele>
        <time>2019-06-01T10:27:25Z</time>
      </trkpt>
      <trkpt lat="47.33914" lon="-1.10657">
        <ele>60</ele>
        <time>2019-06-01T10:27:27Z</time>
      </trkpt>
      <trkpt lat="47.33915" lon="-1.10661">
        <ele>60</ele>
        <time>2019-06-01T10:27:28Z</time>
      </trkpt>
      <trkpt lat="47.33916" lon="-1.10663">
        <ele>60</ele>
        <time>2019-06-01T10:27:29Z</time>
      </trkpt>
      <trkpt lat="47.33917" lon="-1.10665">
        <ele>60</ele>
        <time>2019-06-01T10:27:31Z</time>
      </trkpt>
      <trkpt lat="47.33918" lon="-1.10665">
        <ele>60</ele>
        <time>2019-06-01T10:27:33Z</time>
      </trkpt>
      <trkpt lat="47.3392" lon="-1.10672">
        <ele>60</ele>
        <time>2019-06-01T10:27:35Z</time>
      </trkpt>
      <trkpt lat="47.33919" lon="-1.10683">
        <ele>59</ele>
        <time>2019-06-01T10:27:38Z</time>
      </trkpt>
      <trkpt lat="47.33917" lon="-1.10691">
        <ele>59</ele>
        <time>2019-06-01T10:27:40Z</time>
      </trkpt>
      <trkpt lat="47.33909" lon="-1.10723">
        <ele>60</ele>
        <time>2019-06-01T10:27:47Z</time>
      </trkpt>
      <trkpt lat="47.33903" lon="-1.10747">
        <ele>61</ele>
        <time>2019-06-01T10:27:52Z</time>
      </trkpt>
      <trkpt lat="47.33898" lon="-1.10761">
        <ele>62</ele>
        <time>2019-06-01T10:27:55Z</time>
      </trkpt>
      <trkpt lat="47.33893" lon="-1.10777">
        <ele>62</ele>
        <time>2019-06-01T10:27:58Z</time>
      </trkpt>
      <trkpt lat="47.33882" lon="-1.10807">
        <ele>63</ele>
        <time>2019-06-01T10:28:04Z</time>
      </trkpt>
      <trkpt lat="47.33879" lon="-1.10816">
        <ele>64</ele>
        <time>2019-06-01T10:28:06Z</time>
      </trkpt>
      <trkpt lat="47.3388" lon="-1.1082">
        <ele>64</ele>
        <time>2019-06-01T10:28:07Z</time>
      </trkpt>
      <trkpt lat="47.33881" lon="-1.10823">
        <ele>64</ele>
        <time>2019-06-01T10:28:08Z</time>
      </trkpt>
      <trkpt lat="47.33891" lon="-1.10831">
        <ele>64</ele>
        <time>2019-06-01T10:28:11Z</time>
      </trkpt>
      <trkpt lat="47.33901" lon="-1.10833">
        <ele>64</ele>
        <time>2019-06-01T10:28:13Z</time>
      </trkpt>
      <trkpt lat="47.33913" lon="-1.10839">
        <ele>63</ele>
        <time>2019-06-01T10:28:16Z</time>
      </trkpt>
      <trkpt lat="47.33924" lon="-1.10853">
        <ele>62</ele>
        <time>2019-06-01T10:28:20Z</time>
      </trkpt>
      <trkpt lat="47.33927" lon="-1.10855">
        <ele>62</ele>
        <time>2019-06-01T10:28:21Z</time>
      </trkpt>
      <trkpt lat="47.33943" lon="-1.10859">
        <ele>61</ele>
        <time>2019-06-01T10:28:25Z</time>
      </trkpt>
      <trkpt lat="47.33958" lon="-1.10863">
        <ele>60</ele>
        <time>2019-06-01T10:28:28Z</time>
      </trkpt>
      <trkpt lat="47.3397" lon="-1.10867">
        <ele>58</ele>
        <time>2019-06-01T10:28:31Z</time>
      </trkpt>
      <trkpt lat="47.33973" lon="-1.1087">
        <ele>58</ele>
        <time>2019-06-01T10:28:32Z</time>
      </trkpt>
      <trkpt lat="47.33978" lon="-1.10879">
        <ele>57</ele>
        <time>2019-06-01T10:28:34Z</time>
      </trkpt>
      <trkpt lat="47.33979" lon="-1.10883">
        <ele>57</ele>
        <time>2019-06-01T10:28:35Z</time>
      </trkpt>
      <trkpt lat="47.33981" lon="-1.1089">
        <ele>56</ele>
        <time>2019-06-01T10:28:37Z</time>
      </trkpt>
      <trkpt lat="47.33982" lon="-1.10894">
        <ele>55</ele>
        <time>2019-06-01T10:28:39Z</time>
      </trkpt>
      <trkpt lat="47.33983" lon="-1.10896">
        <ele>55</ele>
        <time>2019-06-01T10:28:41Z</time>
      </trkpt>
      <trkpt lat="47.33986" lon="-1.10898">
        <ele>54</ele>
        <time>2019-06-01T10:28:47Z</time>
      </trkpt>
      <trkpt lat="47.33993" lon="-1.109">
        <ele>54</ele>
        <time>2019-06-01T10:28:50Z</time>
      </trkpt>
      <trkpt lat="47.33997" lon="-1.10901">
        <ele>54</ele>
        <time>2019-06-01T10:28:51Z</time>
      </trkpt>
      <trkpt lat="47.34014" lon="-1.10905">
        <ele>53</ele>
        <time>2019-06-01T10:28:55Z</time>
      </trkpt>
      <trkpt lat="47.34028" lon="-1.10908">
        <ele>52</ele>
        <time>2019-06-01T10:28:58Z</time>
      </trkpt>
      <trkpt lat="47.34042" lon="-1.10911">
        <ele>51</ele>
        <time>2019-06-01T10:29:01Z</time>
      </trkpt>
      <trkpt lat="47.34051" lon="-1.10913">
        <ele>49</ele>
        <time>2019-06-01T10:29:04Z</time>
      </trkpt>
      <trkpt lat="47.34053" lon="-1.10914">
        <ele>49</ele>
        <time>2019-06-01T10:29:05Z</time>
      </trkpt>
      <trkpt lat="47.34056" lon="-1.10918">
        <ele>48</ele>
        <time>2019-06-01T10:29:07Z</time>
      </trkpt>
      <trkpt lat="47.34055" lon="-1.10927">
        <ele>48</ele>
        <time>2019-06-01T10:29:09Z</time>
      </trkpt>
      <trkpt lat="47.34051" lon="-1.10944">
        <ele>48</ele>
        <time>2019-06-01T10:29:12Z</time>
      </trkpt>
      <trkpt lat="47.34049" lon="-1.10949">
        <ele>48</ele>
        <time>2019-06-01T10:29:13Z</time>
      </trkpt>
      <trkpt lat="47.34046" lon="-1.10955">
        <ele>48</ele>
        <time>2019-06-01T10:29:14Z</time>
      </trkpt>
      <trkpt lat="47.34038" lon="-1.1097">
        <ele>48</ele>
        <time>2019-06-01T10:29:17Z</time>
      </trkpt>
      <trkpt lat="47.34028" lon="-1.1098">
        <ele>49</ele>
        <time>2019-06-01T10:29:20Z</time>
      </trkpt>
      <trkpt lat="47.34025" lon="-1.10983">
        <ele>49</ele>
        <time>2019-06-01T10:29:21Z</time>
      </trkpt>
      <trkpt lat="47.34009" lon="-1.11008">
        <ele>49</ele>
        <time>2019-06-01T10:29:27Z</time>
      </trkpt>
      <trkpt lat="47.34006" lon="-1.11033">
        <ele>50</ele>
        <time>2019-06-01T10:29:31Z</time>
      </trkpt>
      <trkpt lat="47.34005" lon="-1.1104">
        <ele>50</ele>
        <time>2019-06-01T10:29:32Z</time>
      </trkpt>
      <trkpt lat="47.34005" lon="-1.11052">
        <ele>50</ele>
        <time>2019-06-01T10:29:34Z</time>
      </trkpt>
      <trkpt lat="47.34004" lon="-1.11069">
        <ele>50</ele>
        <time>2019-06-01T10:29:37Z</time>
      </trkpt>
      <trkpt lat="47.34001" lon="-1.11113">
        <ele>50</ele>
        <time>2019-06-01T10:29:44Z</time>
      </trkpt>
      <trkpt lat="47.34002" lon="-1.11149">
        <ele>50</ele>
        <time>2019-06-01T10:29:50Z</time>
      </trkpt>
      <trkpt lat="47.3401" lon="-1.11158">
        <ele>49</ele>
        <time>2019-06-01T10:29:53Z</time>
      </trkpt>
      <trkpt lat="47.34014" lon="-1.11159">
        <ele>49</ele>
        <time>2019-06-01T10:29:54Z</time>
      </trkpt>
      <trkpt lat="47.34031" lon="-1.11155">
        <ele>48</ele>
        <time>2019-06-01T10:29:57Z</time>
      </trkpt>
      <trkpt lat="47.34048" lon="-1.11146">
        <ele>47</ele>
        <time>2019-06-01T10:30:00Z</time>
      </trkpt>
      <trkpt lat="47.34061" lon="-1.11139">
        <ele>46</ele>
        <time>2019-06-01T10:30:02Z</time>
      </trkpt>
      <trkpt lat="47.34067" lon="-1.11135">
        <ele>45</ele>
        <time>2019-06-01T10:30:03Z</time>
      </trkpt>
      <trkpt lat="47.34078" lon="-1.11128">
        <ele>44</ele>
        <time>2019-06-01T10:30:05Z</time>
      </trkpt>
      <trkpt lat="47.34088" lon="-1.11123">
        <ele>43</ele>
        <time>2019-06-01T10:30:07Z</time>
      </trkpt>
      <trkpt lat="47.34093" lon="-1.1112">
        <ele>43</ele>
        <time>2019-06-01T10:30:08Z</time>
      </trkpt>
      <trkpt lat="47.34097" lon="-1.11118">
        <ele>42</ele>
        <time>2019-06-01T10:30:09Z</time>
      </trkpt>
      <trkpt lat="47.34104" lon="-1.11113">
        <ele>41</ele>
        <time>2019-06-01T10:30:11Z</time>
      </trkpt>
      <trkpt lat="47.34114" lon="-1.11108">
        <ele>40</ele>
        <time>2019-06-01T10:30:13Z</time>
      </trkpt>
      <trkpt lat="47.34119" lon="-1.11105">
        <ele>40</ele>
        <time>2019-06-01T10:30:14Z</time>
      </trkpt>
      <trkpt lat="47.34133" lon="-1.11098">
        <ele>38</ele>
        <time>2019-06-01T10:30:17Z</time>
      </trkpt>
      <trkpt lat="47.34141" lon="-1.11095">
        <ele>37</ele>
        <time>2019-06-01T10:30:19Z</time>
      </trkpt>
      <trkpt lat="47.3415" lon="-1.11091">
        <ele>36</ele>
        <time>2019-06-01T10:30:21Z</time>
      </trkpt>
      <trkpt lat="47.34167" lon="-1.11084">
        <ele>35</ele>
        <time>2019-06-01T10:30:24Z</time>
      </trkpt>
      <trkpt lat="47.34179" lon="-1.11081">
        <ele>33</ele>
        <time>2019-06-01T10:30:26Z</time>
      </trkpt>
      <trkpt lat="47.34196" lon="-1.11076">
        <ele>32</ele>
        <time>2019-06-01T10:30:29Z</time>
      </trkpt>
      <trkpt lat="47.34209" lon="-1.11071">
        <ele>31</ele>
        <time>2019-06-01T10:30:32Z</time>
      </trkpt>
      <trkpt lat="47.34214" lon="-1.1107">
        <ele>31</ele>
        <time>2019-06-01T10:30:33Z</time>
      </trkpt>
      <trkpt lat="47.34235" lon="-1.11063">
        <ele>30</ele>
        <time>2019-06-01T10:30:37Z</time>
      </trkpt>
      <trkpt lat="47.34241" lon="-1.11061">
        <ele>30</ele>
        <time>2019-06-01T10:30:38Z</time>
      </trkpt>
      <trkpt lat="47.34259" lon="-1.11056">
        <ele>29</ele>
        <time>2019-06-01T10:30:41Z</time>
      </trkpt>
      <trkpt lat="47.34277" lon="-1.1105">
        <ele>28</ele>
        <time>2019-06-01T10:30:44Z</time>
      </trkpt>
      <trkpt lat="47.34283" lon="-1.11048">
        <ele>27</ele>
        <time>2019-06-01T10:30:45Z</time>
      </trkpt>
      <trkpt lat="47.34302" lon="-1.1104">
        <ele>26</ele>
        <time>2019-06-01T10:30:48Z</time>
      </trkpt>
      <trkpt lat="47.34316" lon="-1.11032">
        <ele>25</ele>
        <time>2019-06-01T10:30:50Z</time>
      </trkpt>
      <trkpt lat="47.34323" lon="-1.11028">
        <ele>25</ele>
        <time>2019-06-01T10:30:51Z</time>
      </trkpt>
      <trkpt lat="47.34336" lon="-1.1102">
        <ele>24</ele>
        <time>2019-06-01T10:30:53Z</time>
      </trkpt>
      <trkpt lat="47.34362" lon="-1.11009">
        <ele>23</ele>
        <time>2019-06-01T10:30:57Z</time>
      </trkpt>
      <trkpt lat="47.344" lon="-1.11005">
        <ele>22</ele>
        <time>2019-06-01T10:31:03Z</time>
      </trkpt>
      <trkpt lat="47.34456" lon="-1.11007">
        <ele>21</ele>
        <time>2019-06-01T10:31:12Z</time>
      </trkpt>
      <trkpt lat="47.34462" lon="-1.11008">
        <ele>20</ele>
        <time>2019-06-01T10:31:13Z</time>
      </trkpt>
      <trkpt lat="47.345" lon="-1.11018">
        <ele>19</ele>
        <time>2019-06-01T10:31:20Z</time>
      </trkpt>
      <trkpt lat="47.34522" lon="-1.11025">
        <ele>19</ele>
        <time>2019-06-01T10:31:24Z</time>
      </trkpt>
      <trkpt lat="47.34548" lon="-1.11032">
        <ele>19</ele>
        <time>2019-06-01T10:31:29Z</time>
      </trkpt>
      <trkpt lat="47.34587" lon="-1.11042">
        <ele>18</ele>
        <time>2019-06-01T10:31:37Z</time>
      </trkpt>
      <trkpt lat="47.34592" lon="-1.11043">
        <ele>18</ele>
        <time>2019-06-01T10:31:38Z</time>
      </trkpt>
      <trkpt lat="47.34613" lon="-1.11055">
        <ele>17</ele>
        <time>2019-06-01T10:31:44Z</time>
      </trkpt>
      <trkpt lat="47.34618" lon="-1.11072">
        <ele>17</ele>
        <time>2019-06-01T10:31:47Z</time>
      </trkpt>
      <trkpt lat="47.34619" lon="-1.11079">
        <ele>17</ele>
        <time>2019-06-01T10:31:48Z</time>
      </trkpt>
      <trkpt lat="47.34623" lon="-1.11118">
        <ele>17</ele>
        <time>2019-06-01T10:31:54Z</time>
      </trkpt>
      <trkpt lat="47.34626" lon="-1.11123">
        <ele>17</ele>
        <time>2019-06-01T10:31:55Z</time>
      </trkpt>
      <trkpt lat="47.34641" lon="-1.11123">
        <ele>17</ele>
        <time>2019-06-01T10:31:58Z</time>
      </trkpt>
      <trkpt lat="47.3465" lon="-1.11114">
        <ele>17</ele>
        <time>2019-06-01T10:32:00Z</time>
      </trkpt>
      <trkpt lat="47.34659" lon="-1.11106">
        <ele>17</ele>
        <time>2019-06-01T10:32:02Z</time>
      </trkpt>
      <trkpt lat="47.34679" lon="-1.11092">
        <ele>16</ele>
        <time>2019-06-01T10:32:06Z</time>
      </trkpt>
      <trkpt lat="47.34705" lon="-1.11072">
        <ele>15</ele>
        <time>2019-06-01T10:32:11Z</time>
      </trkpt>
      <trkpt lat="47.34716" lon="-1.11064">
        <ele>15</ele>
        <time>2019-06-01T10:32:13Z</time>
      </trkpt>
      <trkpt lat="47.3474" lon="-1.11054">
        <ele>14</ele>
        <time>2019-06-01T10:32:17Z</time>
      </trkpt>
      <trkpt lat="47.34746" lon="-1.11054">
        <ele>14</ele>
        <time>2019-06-01T10:32:18Z</time>
      </trkpt>
      <trkpt lat="47.34776" lon="-1.11053">
        <ele>13</ele>
        <time>2019-06-01T10:32:23Z</time>
      </trkpt>
      <trkpt lat="47.34788" lon="-1.11054">
        <ele>13</ele>
        <time>2019-06-01T10:32:25Z</time>
      </trkpt>
      <trkpt lat="47.34829" lon="-1.11055">
        <ele>12</ele>
        <time>2019-06-01T10:32:32Z</time>
      </trkpt>
      <trkpt lat="47.34835" lon="-1.11056">
        <ele>12</ele>
        <time>2019-06-01T10:32:33Z</time>
      </trkpt>
      <trkpt lat="47.34884" lon="-1.11057">
        <ele>11</ele>
        <time>2019-06-01T10:32:42Z</time>
      </trkpt>
      <trkpt lat="47.34901" lon="-1.11057">
        <ele>11</ele>
        <time>2019-06-01T10:32:45Z</time>
      </trkpt>
      <trkpt lat="47.34923" lon="-1.1106">
        <ele>10</ele>
        <time>2019-06-01T10:32:49Z</time>
      </trkpt>
      <trkpt lat="47.3495" lon="-1.11067">
        <ele>10</ele>
        <time>2019-06-01T10:32:54Z</time>
      </trkpt>
      <trkpt lat="47.34972" lon="-1.11072">
        <ele>9</ele>
        <time>2019-06-01T10:32:58Z</time>
      </trkpt>
      <trkpt lat="47.34978" lon="-1.11072">
        <ele>9</ele>
        <time>2019-06-01T10:32:59Z</time>
      </trkpt>
      <trkpt lat="47.34992" lon="-1.11062">
        <ele>9</ele>
        <time>2019-06-01T10:33:02Z</time>
      </trkpt>
      <trkpt lat="47.34999" lon="-1.11048">
        <ele>9</ele>
        <time>2019-06-01T10:33:04Z</time>
      </trkpt>
      <trkpt lat="47.35002" lon="-1.11033">
        <ele>8</ele>
        <time>2019-06-01T10:33:06Z</time>
      </trkpt>
      <trkpt lat="47.35003" lon="-1.11025">
        <ele>8</ele>
        <time>2019-06-01T10:33:07Z</time>
      </trkpt>
      <trkpt lat="47.35009" lon="-1.10969">
        <ele>8</ele>
        <time>2019-06-01T10:33:14Z</time>
      </trkpt>
      <trkpt lat="47.3501" lon="-1.10961">
        <ele>8</ele>
        <time>2019-06-01T10:33:15Z</time>
      </trkpt>
      <trkpt lat="47.3502" lon="-1.10894">
        <ele>6</ele>
        <time>2019-06-01T10:33:23Z</time>
      </trkpt>
      <trkpt lat="47.35022" lon="-1.10887">
        <ele>6</ele>
        <time>2019-06-01T10:33:24Z</time>
      </trkpt>
      <trkpt lat="47.35037" lon="-1.10865">
        <ele>6</ele>
        <time>2019-06-01T10:33:28Z</time>
      </trkpt>
      <trkpt lat="47.35041" lon="-1.1086">
        <ele>6</ele>
        <time>2019-06-01T10:33:29Z</time>
      </trkpt>
      <trkpt lat="47.35067" lon="-1.10832">
        <ele>6</ele>
        <time>2019-06-01T10:33:36Z</time>
      </trkpt>
      <trkpt lat="47.35079" lon="-1.10821">
        <ele>6</ele>
        <time>2019-06-01T10:33:39Z</time>
      </trkpt>
      <trkpt lat="47.35092" lon="-1.10815">
        <ele>6</ele>
        <time>2019-06-01T10:33:42Z</time>
      </trkpt>
      <trkpt lat="47.35104" lon="-1.108">
        <ele>7</ele>
        <time>2019-06-01T10:33:47Z</time>
      </trkpt>
      <trkpt lat="47.35109" lon="-1.10779">
        <ele>8</ele>
        <time>2019-06-01T10:33:52Z</time>
      </trkpt>
      <trkpt lat="47.35111" lon="-1.10769">
        <ele>8</ele>
        <time>2019-06-01T10:33:54Z</time>
      </trkpt>
      <trkpt lat="47.35118" lon="-1.10744">
        <ele>9</ele>
        <time>2019-06-01T10:33:59Z</time>
      </trkpt>
      <trkpt lat="47.35121" lon="-1.10729">
        <ele>9</ele>
        <time>2019-06-01T10:34:02Z</time>
      </trkpt>
      <trkpt lat="47.3513" lon="-1.1071">
        <ele>9</ele>
        <time>2019-06-01T10:34:06Z</time>
      </trkpt>
      <trkpt lat="47.35132" lon="-1.10705">
        <ele>9</ele>
        <time>2019-06-01T10:34:07Z</time>
      </trkpt>
      <trkpt lat="47.35149" lon="-1.10671">
        <ele>9</ele>
        <time>2019-06-01T10:34:15Z</time>
      </trkpt>
      <trkpt lat="47.35173" lon="-1.10636">
        <ele>8</ele>
        <time>2019-06-01T10:34:24Z</time>
      </trkpt>
      <trkpt lat="47.35179" lon="-1.10628">
        <ele>8</ele>
        <time>2019-06-01T10:34:27Z</time>
      </trkpt>
      <trkpt lat="47.3518" lon="-1.10622">
        <ele>7</ele>
        <time>2019-06-01T10:34:29Z</time>
      </trkpt>
      <trkpt lat="47.3518" lon="-1.10619">
        <ele>7</ele>
        <time>2019-06-01T10:34:30Z</time>
      </trkpt>
      <trkpt lat="47.35176" lon="-1.10602">
        <ele>7</ele>
        <time>2019-06-01T10:34:34Z</time>
      </trkpt>
      <trkpt lat="47.35174" lon="-1.10598">
        <ele>7</ele>
        <time>2019-06-01T10:34:35Z</time>
      </trkpt>
      <trkpt lat="47.35167" lon="-1.10573">
        <ele>7</ele>
        <time>2019-06-01T10:34:41Z</time>
      </trkpt>
      <trkpt lat="47.35166" lon="-1.10557">
        <ele>7</ele>
        <time>2019-06-01T10:34:45Z</time>
      </trkpt>
      <trkpt lat="47.35167" lon="-1.1055">
        <ele>7</ele>
        <time>2019-06-01T10:34:47Z</time>
      </trkpt>
      <trkpt lat="47.3517" lon="-1.10522">
        <ele>7</ele>
        <time>2019-06-01T10:34:54Z</time>
      </trkpt>
      <trkpt lat="47.35175" lon="-1.10496">
        <ele>7</ele>
        <time>2019-06-01T10:35:00Z</time>
      </trkpt>
      <trkpt lat="47.35181" lon="-1.10464">
        <ele>6</ele>
        <time>2019-06-01T10:35:07Z</time>
      </trkpt>
      <trkpt lat="47.35186" lon="-1.10423">
        <ele>6</ele>
        <time>2019-06-01T10:35:15Z</time>
      </trkpt>
      <trkpt lat="47.35187" lon="-1.10392">
        <ele>6</ele>
        <time>2019-06-01T10:35:21Z</time>
      </trkpt>
      <trkpt lat="47.35188" lon="-1.10362">
        <ele>6</ele>
        <time>2019-06-01T10:35:27Z</time>
      </trkpt>
      <trkpt lat="47.35183" lon="-1.10326">
        <ele>6</ele>
        <time>2019-06-01T10:35:34Z</time>
      </trkpt>
      <trkpt lat="47.35178" lon="-1.10295">
        <ele>6</ele>
        <time>2019-06-01T10:35:40Z</time>
      </trkpt>
      <trkpt lat="47.35172" lon="-1.10254">
        <ele>6</ele>
        <time>2019-06-01T10:35:48Z</time>
      </trkpt>
      <trkpt lat="47.35167" lon="-1.1022">
        <ele>6</ele>
        <time>2019-06-01T10:35:55Z</time>
      </trkpt>
      <trkpt lat="47.35164" lon="-1.10197">
        <ele>7</ele>
        <time>2019-06-01T10:36:01Z</time>
      </trkpt>
      <trkpt lat="47.35169" lon="-1.10167">
        <ele>7</ele>
        <time>2019-06-01T10:36:08Z</time>
      </trkpt>
      <trkpt lat="47.35174" lon="-1.10134">
        <ele>8</ele>
        <time>2019-06-01T10:36:15Z</time>
      </trkpt>
      <trkpt lat="47.35175" lon="-1.10117">
        <ele>8</ele>
        <time>2019-06-01T10:36:20Z</time>
      </trkpt>
      <trkpt lat="47.35182" lon="-1.10084">
        <ele>9</ele>
        <time>2019-06-01T10:36:28Z</time>
      </trkpt>
      <trkpt lat="47.3519" lon="-1.10059">
        <ele>9</ele>
        <time>2019-06-01T10:36:34Z</time>
      </trkpt>
      <trkpt lat="47.35204" lon="-1.10027">
        <ele>9</ele>
        <time>2019-06-01T10:36:41Z</time>
      </trkpt>
      <trkpt lat="47.3522" lon="-1.09991">
        <ele>9</ele>
        <time>2019-06-01T10:36:49Z</time>
      </trkpt>
      <trkpt lat="47.35233" lon="-1.09964">
        <ele>9</ele>
        <time>2019-06-01T10:36:55Z</time>
      </trkpt>
      <trkpt lat="47.35235" lon="-1.09959">
        <ele>9</ele>
        <time>2019-06-01T10:36:56Z</time>
      </trkpt>
      <trkpt lat="47.35247" lon="-1.09931">
        <ele>9</ele>
        <time>2019-06-01T10:37:01Z</time>
      </trkpt>
      <trkpt lat="47.35259" lon="-1.09901">
        <ele>8</ele>
        <time>2019-06-01T10:37:06Z</time>
      </trkpt>
      <trkpt lat="47.35273" lon="-1.0987">
        <ele>8</ele>
        <time>2019-06-01T10:37:12Z</time>
      </trkpt>
      <trkpt lat="47.35293" lon="-1.09828">
        <ele>8</ele>
        <time>2019-06-01T10:37:20Z</time>
      </trkpt>
      <trkpt lat="47.35302" lon="-1.09794">
        <ele>8</ele>
        <time>2019-06-01T10:37:26Z</time>
      </trkpt>
      <trkpt lat="47.35312" lon="-1.09752">
        <ele>8</ele>
        <time>2019-06-01T10:37:34Z</time>
      </trkpt>
      <trkpt lat="47.35317" lon="-1.0974">
        <ele>8</ele>
        <time>2019-06-01T10:37:37Z</time>
      </trkpt>
      <trkpt lat="47.3532" lon="-1.09736">
        <ele>7</ele>
        <time>2019-06-01T10:37:38Z</time>
      </trkpt>
      <trkpt lat="47.35329" lon="-1.09727">
        <ele>7</ele>
        <time>2019-06-01T10:37:40Z</time>
      </trkpt>
      <trkpt lat="47.35336" lon="-1.09716">
        <ele>7</ele>
        <time>2019-06-01T10:37:42Z</time>
      </trkpt>
      <trkpt lat="47.35344" lon="-1.09703">
        <ele>7</ele>
        <time>2019-06-01T10:37:44Z</time>
      </trkpt>
      <trkpt lat="47.35356" lon="-1.09673">
        <ele>6</ele>
        <time>2019-06-01T10:37:48Z</time>
      </trkpt>
      <trkpt lat="47.35359" lon="-1.09657">
        <ele>5</ele>
        <time>2019-06-01T10:37:50Z</time>
      </trkpt>
      <trkpt lat="47.35362" lon="-1.09636">
        <ele>5</ele>
        <time>2019-06-01T10:37:53Z</time>
      </trkpt>
      <trkpt lat="47.35366" lon="-1.09592">
        <ele>5</ele>
        <time>2019-06-01T10:38:00Z</time>
      </trkpt>
      <trkpt lat="47.35372" lon="-1.09524">
        <ele>6</ele>
        <time>2019-06-01T10:38:10Z</time>
      </trkpt>
      <trkpt lat="47.35374" lon="-1.09476">
        <ele>6</ele>
        <time>2019-06-01T10:38:17Z</time>
      </trkpt>
      <trkpt lat="47.35374" lon="-1.09457">
        <ele>7</ele>
        <time>2019-06-01T10:38:20Z</time>
      </trkpt>
      <trkpt lat="47.35366" lon="-1.09415">
        <ele>7</ele>
        <time>2019-06-01T10:38:28Z</time>
      </trkpt>
      <trkpt lat="47.35357" lon="-1.09414">
        <ele>7</ele>
        <time>2019-06-01T10:38:30Z</time>
      </trkpt>
      <trkpt lat="47.35352" lon="-1.09415">
        <ele>7</ele>
        <time>2019-06-01T10:38:31Z</time>
      </trkpt>
      <trkpt lat="47.35348" lon="-1.09416">
        <ele>7</ele>
        <time>2019-06-01T10:38:32Z</time>
      </trkpt>
      <trkpt lat="47.35308" lon="-1.09427">
        <ele>8</ele>
        <time>2019-06-01T10:38:41Z</time>
      </trkpt>
      <trkpt lat="47.3529" lon="-1.09432">
        <ele>9</ele>
        <time>2019-06-01T10:38:45Z</time>
      </trkpt>
      <trkpt lat="47.35269" lon="-1.0944">
        <ele>9</ele>
        <time>2019-06-01T10:38:50Z</time>
      </trkpt>
      <trkpt lat="47.35252" lon="-1.09445">
        <ele>10</ele>
        <time>2019-06-01T10:38:54Z</time>
      </trkpt>
      <trkpt lat="47.35218" lon="-1.09457">
        <ele>11</ele>
        <time>2019-06-01T10:39:02Z</time>
      </trkpt>
      <trkpt lat="47.35214" lon="-1.09458">
        <ele>11</ele>
        <time>2019-06-01T10:39:03Z</time>
      </trkpt>
      <trkpt lat="47.35181" lon="-1.09462">
        <ele>12</ele>
        <time>2019-06-01T10:39:11Z</time>
      </trkpt>
      <trkpt lat="47.35177" lon="-1.09463">
        <ele>12</ele>
        <time>2019-06-01T10:39:12Z</time>
      </trkpt>
      <trkpt lat="47.35153" lon="-1.09464">
        <ele>13</ele>
        <time>2019-06-01T10:39:18Z</time>
      </trkpt>
      <trkpt lat="47.35141" lon="-1.09464">
        <ele>13</ele>
        <time>2019-06-01T10:39:21Z</time>
      </trkpt>
      <trkpt lat="47.3512" lon="-1.09465">
        <ele>14</ele>
        <time>2019-06-01T10:39:26Z</time>
      </trkpt>
      <trkpt lat="47.35104" lon="-1.09467">
        <ele>14</ele>
        <time>2019-06-01T10:39:30Z</time>
      </trkpt>
      <trkpt lat="47.351" lon="-1.09469">
        <ele>15</ele>
        <time>2019-06-01T10:39:31Z</time>
      </trkpt>
      <trkpt lat="47.35089" lon="-1.09481">
        <ele>15</ele>
        <time>2019-06-01T10:39:34Z</time>
      </trkpt>
      <trkpt lat="47.35084" lon="-1.09501">
        <ele>15</ele>
        <time>2019-06-01T10:39:37Z</time>
      </trkpt>
      <trkpt lat="47.35083" lon="-1.09508">
        <ele>15</ele>
        <time>2019-06-01T10:39:38Z</time>
      </trkpt>
      <trkpt lat="47.35069" lon="-1.09571">
        <ele>16</ele>
        <time>2019-06-01T10:39:47Z</time>
      </trkpt>
      <trkpt lat="47.35057" lon="-1.09584">
        <ele>16</ele>
        <time>2019-06-01T10:39:50Z</time>
      </trkpt>
      <trkpt lat="47.35037" lon="-1.09585">
        <ele>16</ele>
        <time>2019-06-01T10:39:54Z</time>
      </trkpt>
      <trkpt lat="47.35031" lon="-1.09584">
        <ele>16</ele>
        <time>2019-06-01T10:39:55Z</time>
      </trkpt>
      <trkpt lat="47.34996" lon="-1.0958">
        <ele>16</ele>
        <time>2019-06-01T10:40:02Z</time>
      </trkpt>
      <trkpt lat="47.34976" lon="-1.09578">
        <ele>16</ele>
        <time>2019-06-01T10:40:06Z</time>
      </trkpt>
      <trkpt lat="47.34958" lon="-1.09577">
        <ele>16</ele>
        <time>2019-06-01T10:40:10Z</time>
      </trkpt>
      <trkpt lat="47.34947" lon="-1.0957">
        <ele>16</ele>
        <time>2019-06-01T10:40:14Z</time>
      </trkpt>
      <trkpt lat="47.3495" lon="-1.09551">
        <ele>17</ele>
        <time>2019-06-01T10:40:18Z</time>
      </trkpt>
      <trkpt lat="47.34958" lon="-1.09533">
        <ele>17</ele>
        <time>2019-06-01T10:40:21Z</time>
      </trkpt>
      <trkpt lat="47.34963" lon="-1.0952">
        <ele>16</ele>
        <time>2019-06-01T10:40:23Z</time>
      </trkpt>
      <trkpt lat="47.34979" lon="-1.09465">
        <ele>16</ele>
        <time>2019-06-01T10:40:30Z</time>
      </trkpt>
      <trkpt lat="47.34992" lon="-1.09411">
        <ele>15</ele>
        <time>2019-06-01T10:40:36Z</time>
      </trkpt>
      <trkpt lat="47.35003" lon="-1.09366">
        <ele>14</ele>
        <time>2019-06-01T10:40:41Z</time>
      </trkpt>
      <trkpt lat="47.35005" lon="-1.09357">
        <ele>14</ele>
        <time>2019-06-01T10:40:42Z</time>
      </trkpt>
      <trkpt lat="47.35019" lon="-1.09301">
        <ele>13</ele>
        <time>2019-06-01T10:40:48Z</time>
      </trkpt>
      <trkpt lat="47.35027" lon="-1.09272">
        <ele>12</ele>
        <time>2019-06-01T10:40:51Z</time>
      </trkpt>
      <trkpt lat="47.35031" lon="-1.09253">
        <ele>12</ele>
        <time>2019-06-01T10:40:53Z</time>
      </trkpt>
      <trkpt lat="47.35046" lon="-1.09195">
        <ele>11</ele>
        <time>2019-06-01T10:40:59Z</time>
      </trkpt>
      <trkpt lat="47.35048" lon="-1.09185">
        <ele>10</ele>
        <time>2019-06-01T10:41:00Z</time>
      </trkpt>
      <trkpt lat="47.35061" lon="-1.09137">
        <ele>9</ele>
        <time>2019-06-01T10:41:05Z</time>
      </trkpt>
      <trkpt lat="47.35067" lon="-1.09107">
        <ele>9</ele>
        <time>2019-06-01T10:41:08Z</time>
      </trkpt>
      <trkpt lat="47.35071" lon="-1.09089">
        <ele>8</ele>
        <time>2019-06-01T10:41:10Z</time>
      </trkpt>
      <trkpt lat="47.35078" lon="-1.09058">
        <ele>8</ele>
        <time>2019-06-01T10:41:14Z</time>
      </trkpt>
      <trkpt lat="47.3509" lon="-1.09007">
        <ele>9</ele>
        <time>2019-06-01T10:41:22Z</time>
      </trkpt>
      <trkpt lat="47.35094" lon="-1.08989">
        <ele>10</ele>
        <time>2019-06-01T10:41:25Z</time>
      </trkpt>
      <trkpt lat="47.35103" lon="-1.08948">
        <ele>10</ele>
        <time>2019-06-01T10:41:32Z</time>
      </trkpt>
      <trkpt lat="47.35107" lon="-1.08937">
        <ele>11</ele>
        <time>2019-06-01T10:41:34Z</time>
      </trkpt>
      <trkpt lat="47.35116" lon="-1.08917">
        <ele>11</ele>
        <time>2019-06-01T10:41:38Z</time>
      </trkpt>
      <trkpt lat="47.3512" lon="-1.08915">
        <ele>11</ele>
        <time>2019-06-01T10:41:39Z</time>
      </trkpt>
      <trkpt lat="47.35133" lon="-1.08919">
        <ele>12</ele>
        <time>2019-06-01T10:41:42Z</time>
      </trkpt>
      <trkpt lat="47.35142" lon="-1.08923">
        <ele>12</ele>
        <time>2019-06-01T10:41:44Z</time>
      </trkpt>
      <trkpt lat="47.35168" lon="-1.08932">
        <ele>13</ele>
        <time>2019-06-01T10:41:50Z</time>
      </trkpt>
      <trkpt lat="47.35178" lon="-1.08935">
        <ele>13</ele>
        <time>2019-06-01T10:41:52Z</time>
      </trkpt>
      <trkpt lat="47.35205" lon="-1.08937">
        <ele>13</ele>
        <time>2019-06-01T10:41:57Z</time>
      </trkpt>
      <trkpt lat="47.35256" lon="-1.08935">
        <ele>12</ele>
        <time>2019-06-01T10:42:06Z</time>
      </trkpt>
      <trkpt lat="47.3527" lon="-1.08933">
        <ele>12</ele>
        <time>2019-06-01T10:42:08Z</time>
      </trkpt>
      <trkpt lat="47.35296" lon="-1.08928">
        <ele>10</ele>
        <time>2019-06-01T10:42:12Z</time>
      </trkpt>
      <trkpt lat="47.3531" lon="-1.08924">
        <ele>9</ele>
        <time>2019-06-01T10:42:15Z</time>
      </trkpt>
      <trkpt lat="47.3532" lon="-1.08922">
        <ele>8</ele>
        <time>2019-06-01T10:42:17Z</time>
      </trkpt>
      <trkpt lat="47.35323" lon="-1.08921">
        <ele>8</ele>
        <time>2019-06-01T10:42:18Z</time>
      </trkpt>
      <trkpt lat="47.35331" lon="-1.08918">
        <ele>7</ele>
        <time>2019-06-01T10:42:21Z</time>
      </trkpt>
      <trkpt lat="47.35333" lon="-1.08918">
        <ele>6</ele>
        <time>2019-06-01T10:42:22Z</time>
      </trkpt>
      <trkpt lat="47.35339" lon="-1.08917">
        <ele>5</ele>
        <time>2019-06-01T10:42:25Z</time>
      </trkpt>
      <trkpt lat="47.35345" lon="-1.08913">
        <ele>5</ele>
        <time>2019-06-01T10:42:28Z</time>
      </trkpt>
      <trkpt lat="47.35348" lon="-1.08911">
        <ele>4</ele>
        <time>2019-06-01T10:42:30Z</time>
      </trkpt>
      <trkpt lat="47.35359" lon="-1.08903">
        <ele>3</ele>
        <time>2019-06-01T10:42:35Z</time>
      </trkpt>
      <trkpt lat="47.35373" lon="-1.08894">
        <ele>2</ele>
        <time>2019-06-01T10:42:42Z</time>
      </trkpt>
      <trkpt lat="47.35375" lon="-1.08895">
        <ele>2</ele>
        <time>2019-06-01T10:42:43Z</time>
      </trkpt>
      <trkpt lat="47.35385" lon="-1.08898">
        <ele>2</ele>
        <time>2019-06-01T10:42:47Z</time>
      </trkpt>
      <trkpt lat="47.35398" lon="-1.08909">
        <ele>3</ele>
        <time>2019-06-01T10:42:54Z</time>
      </trkpt>
      <trkpt lat="47.35404" lon="-1.08918">
        <ele>4</ele>
        <time>2019-06-01T10:42:59Z</time>
      </trkpt>
      <trkpt lat="47.35407" lon="-1.08922">
        <ele>4</ele>
        <time>2019-06-01T10:43:01Z</time>
      </trkpt>
      <trkpt lat="47.35414" lon="-1.08929">
        <ele>6</ele>
        <time>2019-06-01T10:43:16Z</time>
      </trkpt>
      <trkpt lat="47.35416" lon="-1.08931">
        <ele>7</ele>
        <time>2019-06-01T10:43:18Z</time>
      </trkpt>
      <trkpt lat="47.35434" lon="-1.08942">
        <ele>11</ele>
        <time>2019-06-01T10:43:40Z</time>
      </trkpt>
      <trkpt lat="47.35435" lon="-1.0894">
        <ele>11</ele>
        <time>2019-06-01T10:43:42Z</time>
      </trkpt>
      <trkpt lat="47.3544" lon="-1.08935">
        <ele>12</ele>
        <time>2019-06-01T10:43:50Z</time>
      </trkpt>
      <trkpt lat="47.35446" lon="-1.0893">
        <ele>12</ele>
        <time>2019-06-01T10:43:53Z</time>
      </trkpt>
      <trkpt lat="47.35456" lon="-1.08926">
        <ele>13</ele>
        <time>2019-06-01T10:43:58Z</time>
      </trkpt>
      <trkpt lat="47.35459" lon="-1.08926">
        <ele>13</ele>
        <time>2019-06-01T10:44:00Z</time>
      </trkpt>
      <trkpt lat="47.35473" lon="-1.08933">
        <ele>14</ele>
        <time>2019-06-01T10:44:06Z</time>
      </trkpt>
      <trkpt lat="47.35493" lon="-1.0895">
        <ele>13</ele>
        <time>2019-06-01T10:44:15Z</time>
      </trkpt>
      <trkpt lat="47.35507" lon="-1.08961">
        <ele>12</ele>
        <time>2019-06-01T10:44:21Z</time>
      </trkpt>
      <trkpt lat="47.3551" lon="-1.08963">
        <ele>12</ele>
        <time>2019-06-01T10:44:22Z</time>
      </trkpt>
      <trkpt lat="47.3552" lon="-1.08972">
        <ele>11</ele>
        <time>2019-06-01T10:44:26Z</time>
      </trkpt>
      <trkpt lat="47.35529" lon="-1.08978">
        <ele>10</ele>
        <time>2019-06-01T10:44:30Z</time>
      </trkpt>
      <trkpt lat="47.3553" lon="-1.08979">
        <ele>10</ele>
        <time>2019-06-01T10:44:31Z</time>
      </trkpt>
      <trkpt lat="47.35539" lon="-1.08986">
        <ele>9</ele>
        <time>2019-06-01T10:44:36Z</time>
      </trkpt>
      <trkpt lat="47.35546" lon="-1.0899">
        <ele>7</ele>
        <time>2019-06-01T10:44:40Z</time>
      </trkpt>
      <trkpt lat="47.35552" lon="-1.08993">
        <ele>6</ele>
        <time>2019-06-01T10:44:43Z</time>
      </trkpt>
      <trkpt lat="47.35559" lon="-1.08996">
        <ele>5</ele>
        <time>2019-06-01T10:44:46Z</time>
      </trkpt>
      <trkpt lat="47.35568" lon="-1.09001">
        <ele>4</ele>
        <time>2019-06-01T10:44:49Z</time>
      </trkpt>
      <trkpt lat="47.35575" lon="-1.09005">
        <ele>3</ele>
        <time>2019-06-01T10:44:51Z</time>
      </trkpt>
      <trkpt lat="47.35586" lon="-1.09004">
        <ele>2</ele>
        <time>2019-06-01T10:44:54Z</time>
      </trkpt>
      <trkpt lat="47.3559" lon="-1.09003">
        <ele>2</ele>
        <time>2019-06-01T10:44:55Z</time>
      </trkpt>
      <trkpt lat="47.35597" lon="-1.08995">
        <ele>1</ele>
        <time>2019-06-01T10:44:58Z</time>
      </trkpt>
      <trkpt lat="47.356" lon="-1.08992">
        <ele>1</ele>
        <time>2019-06-01T10:44:59Z</time>
      </trkpt>
      <trkpt lat="47.35616" lon="-1.08967">
        <ele>1</ele>
        <time>2019-06-01T10:45:07Z</time>
      </trkpt>
      <trkpt lat="47.35626" lon="-1.08949">
        <ele>1</ele>
        <time>2019-06-01T10:45:12Z</time>
      </trkpt>
      <trkpt lat="47.35628" lon="-1.08946">
        <ele>11.2</ele>
        <time>2019-06-01T10:45:13Z</time>
      </trkpt>
      <trkpt lat="47.35645" lon="-1.08918">
        <ele>9.8</ele>
        <time>2019-06-01T10:45:20Z</time>
      </trkpt>
      <trkpt lat="47.35662" lon="-1.08894">
        <ele>-1</ele>
        <time>2019-06-01T10:45:27Z</time>
      </trkpt>
      <trkpt lat="47.35681" lon="-1.08863">
        <ele>-1</ele>
        <time>2019-06-01T10:45:35Z</time>
      </trkpt>
      <trkpt lat="47.35701" lon="-1.08853">
        <ele>-1</ele>
        <time>2019-06-01T10:45:41Z</time>
      </trkpt>
      <trkpt lat="47.35723" lon="-1.08862">
        <ele>-1</ele>
        <time>2019-06-01T10:45:47Z</time>
      </trkpt>
      <trkpt lat="47.35752" lon="-1.08878">
        <ele>-1</ele>
        <time>2019-06-01T10:45:55Z</time>
      </trkpt>
      <trkpt lat="47.35765" lon="-1.08885">
        <ele>-1</ele>
        <time>2019-06-01T10:46:00Z</time>
      </trkpt>
      <trkpt lat="47.35768" lon="-1.08882">
        <ele>-1</ele>
        <time>2019-06-01T10:46:01Z</time>
      </trkpt>
      <trkpt lat="47.35771" lon="-1.08866">
        <ele>10</ele>
        <time>2019-06-01T10:46:04Z</time>
      </trkpt>
      <trkpt lat="47.35774" lon="-1.08854">
        <ele>10</ele>
        <time>2019-06-01T10:46:06Z</time>
      </trkpt>
      <trkpt lat="47.3578" lon="-1.0883">
        <ele>10</ele>
        <time>2019-06-01T10:46:10Z</time>
      </trkpt>
      <trkpt lat="47.35792" lon="-1.0878">
        <ele>10</ele>
        <time>2019-06-01T10:46:18Z</time>
      </trkpt>
      <trkpt lat="47.3581" lon="-1.08708">
        <ele>10</ele>
        <time>2019-06-01T10:46:28Z</time>
      </trkpt>
      <trkpt lat="47.35831" lon="-1.08634">
        <ele>10</ele>
        <time>2019-06-01T10:46:38Z</time>
      </trkpt>
      <trkpt lat="47.35846" lon="-1.08578">
        <ele>9.6</ele>
        <time>2019-06-01T10:46:46Z</time>
      </trkpt>
      <trkpt lat="47.35845" lon="-1.08571">
        <ele>9.8</ele>
        <time>2019-06-01T10:46:47Z</time>
      </trkpt>
      <trkpt lat="47.35835" lon="-1.08557">
        <ele>10</ele>
        <time>2019-06-01T10:46:50Z</time>
      </trkpt>
      <trkpt lat="47.35826" lon="-1.08551">
        <ele>10</ele>
        <time>2019-06-01T10:46:52Z</time>
      </trkpt>
      <trkpt lat="47.35813" lon="-1.08543">
        <ele>10</ele>
        <time>2019-06-01T10:46:55Z</time>
      </trkpt>
      <trkpt lat="47.35777" lon="-1.08518">
        <ele>11.1</ele>
        <time>2019-06-01T10:47:04Z</time>
      </trkpt>
      <trkpt lat="47.35774" lon="-1.08516">
        <ele>1</ele>
        <time>2019-06-01T10:47:05Z</time>
      </trkpt>
      <trkpt lat="47.35757" lon="-1.08505">
        <ele>2</ele>
        <time>2019-06-01T10:47:11Z</time>
      </trkpt>
      <trkpt lat="47.35751" lon="-1.08501">
        <ele>2</ele>
        <time>2019-06-01T10:47:13Z</time>
      </trkpt>
      <trkpt lat="47.35745" lon="-1.08496">
        <ele>3</ele>
        <time>2019-06-01T10:47:16Z</time>
      </trkpt>
      <trkpt lat="47.35739" lon="-1.08492">
        <ele>3</ele>
        <time>2019-06-01T10:47:19Z</time>
      </trkpt>
      <trkpt lat="47.35735" lon="-1.0849">
        <ele>4</ele>
        <time>2019-06-01T10:47:21Z</time>
      </trkpt>
      <trkpt lat="47.35728" lon="-1.08485">
        <ele>5</ele>
        <time>2019-06-01T10:47:25Z</time>
      </trkpt>
      <trkpt lat="47.35723" lon="-1.08481">
        <ele>6</ele>
        <time>2019-06-01T10:47:28Z</time>
      </trkpt>
      <trkpt lat="47.35721" lon="-1.0848">
        <ele>6</ele>
        <time>2019-06-01T10:47:29Z</time>
      </trkpt>
      <trkpt lat="47.35716" lon="-1.08475">
        <ele>7</ele>
        <time>2019-06-01T10:47:33Z</time>
      </trkpt>
      <trkpt lat="47.35711" lon="-1.08472">
        <ele>8</ele>
        <time>2019-06-01T10:47:36Z</time>
      </trkpt>
      <trkpt lat="47.35709" lon="-1.0847">
        <ele>8</ele>
        <time>2019-06-01T10:47:37Z</time>
      </trkpt>
      <trkpt lat="47.35702" lon="-1.08465">
        <ele>9</ele>
        <time>2019-06-01T10:47:41Z</time>
      </trkpt>
      <trkpt lat="47.35699" lon="-1.08461">
        <ele>10</ele>
        <time>2019-06-01T10:47:43Z</time>
      </trkpt>
      <trkpt lat="47.35693" lon="-1.08456">
        <ele>10</ele>
        <time>2019-06-01T10:47:46Z</time>
      </trkpt>
      <trkpt lat="47.35685" lon="-1.08446">
        <ele>11</ele>
        <time>2019-06-01T10:47:50Z</time>
      </trkpt>
      <trkpt lat="47.35681" lon="-1.08442">
        <ele>11</ele>
        <time>2019-06-01T10:47:52Z</time>
      </trkpt>
      <trkpt lat="47.35668" lon="-1.08427">
        <ele>12</ele>
        <time>2019-06-01T10:47:59Z</time>
      </trkpt>
      <trkpt lat="47.35656" lon="-1.08412">
        <ele>13</ele>
        <time>2019-06-01T10:48:05Z</time>
      </trkpt>
      <trkpt lat="47.35649" lon="-1.08404">
        <ele>13</ele>
        <time>2019-06-01T10:48:08Z</time>
      </trkpt>
      <trkpt lat="47.35633" lon="-1.08386">
        <ele>14</ele>
        <time>2019-06-01T10:48:15Z</time>
      </trkpt>
      <trkpt lat="47.35624" lon="-1.0838">
        <ele>15</ele>
        <time>2019-06-01T10:48:18Z</time>
      </trkpt>
      <trkpt lat="47.35609" lon="-1.08372">
        <ele>15</ele>
        <time>2019-06-01T10:48:23Z</time>
      </trkpt>
      <trkpt lat="47.35597" lon="-1.08365">
        <ele>16</ele>
        <time>2019-06-01T10:48:27Z</time>
      </trkpt>
      <trkpt lat="47.35577" lon="-1.08352">
        <ele>16</ele>
        <time>2019-06-01T10:48:33Z</time>
      </trkpt>
      <trkpt lat="47.35549" lon="-1.08325">
        <ele>17</ele>
        <time>2019-06-01T10:48:43Z</time>
      </trkpt>
      <trkpt lat="47.35544" lon="-1.0832">
        <ele>17</ele>
        <time>2019-06-01T10:48:45Z</time>
      </trkpt>
      <trkpt lat="47.35539" lon="-1.08305">
        <ele>17</ele>
        <time>2019-06-01T10:48:49Z</time>
      </trkpt>
      <trkpt lat="47.35543" lon="-1.08284">
        <ele>17</ele>
        <time>2019-06-01T10:48:53Z</time>
      </trkpt>
      <trkpt lat="47.35557" lon="-1.08245">
        <ele>17</ele>
        <time>2019-06-01T10:49:00Z</time>
      </trkpt>
      <trkpt lat="47.35571" lon="-1.0821">
        <ele>17</ele>
        <time>2019-06-01T10:49:07Z</time>
      </trkpt>
      <trkpt lat="47.35582" lon="-1.08165">
        <ele>17</ele>
        <time>2019-06-01T10:49:15Z</time>
      </trkpt>
      <trkpt lat="47.35588" lon="-1.08133">
        <ele>17</ele>
        <time>2019-06-01T10:49:22Z</time>
      </trkpt>
      <trkpt lat="47.35585" lon="-1.08123">
        <ele>17</ele>
        <time>2019-06-01T10:49:25Z</time>
      </trkpt>
      <trkpt lat="47.35583" lon="-1.08123">
        <ele>17</ele>
        <time>2019-06-01T10:49:26Z</time>
      </trkpt>
      <trkpt lat="47.35585" lon="-1.0812">
        <ele>17</ele>
        <time>2019-06-01T10:49:30Z</time>
      </trkpt>
      <trkpt lat="47.3559" lon="-1.08117">
        <ele>17</ele>
        <time>2019-06-01T10:49:33Z</time>
      </trkpt>
      <trkpt lat="47.35592" lon="-1.08098">
        <ele>17</ele>
        <time>2019-06-01T10:49:37Z</time>
      </trkpt>
      <trkpt lat="47.35592" lon="-1.08063">
        <ele>17</ele>
        <time>2019-06-01T10:49:44Z</time>
      </trkpt>
      <trkpt lat="47.35581" lon="-1.08059">
        <ele>17</ele>
        <time>2019-06-01T10:49:47Z</time>
      </trkpt>
      <trkpt lat="47.35548" lon="-1.08055">
        <ele>17</ele>
        <time>2019-06-01T10:49:55Z</time>
      </trkpt>
      <trkpt lat="47.35523" lon="-1.08048">
        <ele>18</ele>
        <time>2019-06-01T10:50:02Z</time>
      </trkpt>
      <trkpt lat="47.35519" lon="-1.08047">
        <ele>18</ele>
        <time>2019-06-01T10:50:03Z</time>
      </trkpt>
      <trkpt lat="47.35492" lon="-1.08036">
        <ele>18</ele>
        <time>2019-06-01T10:50:10Z</time>
      </trkpt>
      <trkpt lat="47.35485" lon="-1.08029">
        <ele>18</ele>
        <time>2019-06-01T10:50:12Z</time>
      </trkpt>
      <trkpt lat="47.35473" lon="-1.08017">
        <ele>19</ele>
        <time>2019-06-01T10:50:16Z</time>
      </trkpt>
      <trkpt lat="47.35467" lon="-1.08009">
        <ele>19</ele>
        <time>2019-06-01T10:50:18Z</time>
      </trkpt>
      <trkpt lat="47.35451" lon="-1.07995">
        <ele>19</ele>
        <time>2019-06-01T10:50:23Z</time>
      </trkpt>
      <trkpt lat="47.35424" lon="-1.07992">
        <ele>19</ele>
        <time>2019-06-01T10:50:30Z</time>
      </trkpt>
      <trkpt lat="47.35394" lon="-1.07992">
        <ele>19</ele>
        <time>2019-06-01T10:50:38Z</time>
      </trkpt>
      <trkpt lat="47.35388" lon="-1.07992">
        <ele>19</ele>
        <time>2019-06-01T10:50:44Z</time>
      </trkpt>
      <trkpt lat="47.35373" lon="-1.07991">
        <ele>18</ele>
        <time>2019-06-01T10:50:49Z</time>
      </trkpt>
      <trkpt lat="47.35364" lon="-1.07991">
        <ele>18</ele>
        <time>2019-06-01T10:50:51Z</time>
      </trkpt>
      <trkpt lat="47.3535" lon="-1.07992">
        <ele>18</ele>
        <time>2019-06-01T10:50:54Z</time>
      </trkpt>
      <trkpt lat="47.35337" lon="-1.07992">
        <ele>18</ele>
        <time>2019-06-01T10:50:57Z</time>
      </trkpt>
      <trkpt lat="47.35308" lon="-1.07992">
        <ele>17</ele>
        <time>2019-06-01T10:51:04Z</time>
      </trkpt>
      <trkpt lat="47.35276" lon="-1.07997">
        <ele>17</ele>
        <time>2019-06-01T10:51:12Z</time>
      </trkpt>
      <trkpt lat="47.3527" lon="-1.07998">
        <ele>17</ele>
        <time>2019-06-01T10:51:16Z</time>
      </trkpt>
      <trkpt lat="47.35265" lon="-1.07999">
        <ele>17</ele>
        <time>2019-06-01T10:51:19Z</time>
      </trkpt>
      <trkpt lat="47.35253" lon="-1.08004">
        <ele>16</ele>
        <time>2019-06-01T10:51:26Z</time>
      </trkpt>
      <trkpt lat="47.35232" lon="-1.08016">
        <ele>16</ele>
        <time>2019-06-01T10:51:32Z</time>
      </trkpt>
      <trkpt lat="47.352" lon="-1.08042">
        <ele>16</ele>
        <time>2019-06-01T10:51:40Z</time>
      </trkpt>
      <trkpt lat="47.35181" lon="-1.08058">
        <ele>16</ele>
        <time>2019-06-01T10:51:45Z</time>
      </trkpt>
      <trkpt lat="47.35164" lon="-1.08066">
        <ele>16</ele>
        <time>2019-06-01T10:51:49Z</time>
      </trkpt>
      <trkpt lat="47.35134" lon="-1.08075">
        <ele>16</ele>
        <time>2019-06-01T10:51:56Z</time>
      </trkpt>
      <trkpt lat="47.35125" lon="-1.08077">
        <ele>16</ele>
        <time>2019-06-01T10:51:58Z</time>
      </trkpt>
      <trkpt lat="47.35113" lon="-1.08079">
        <ele>15</ele>
        <time>2019-06-01T10:52:01Z</time>
      </trkpt>
      <trkpt lat="47.35095" lon="-1.08078">
        <ele>15</ele>
        <time>2019-06-01T10:52:05Z</time>
      </trkpt>
      <trkpt lat="47.35091" lon="-1.08076">
        <ele>15</ele>
        <time>2019-06-01T10:52:06Z</time>
      </trkpt>
      <trkpt lat="47.3506" lon="-1.08057">
        <ele>16</ele>
        <time>2019-06-01T10:52:13Z</time>
      </trkpt>
      <trkpt lat="47.35051" lon="-1.08052">
        <ele>16</ele>
        <time>2019-06-01T10:52:15Z</time>
      </trkpt>
      <trkpt lat="47.35021" lon="-1.0804">
        <ele>16</ele>
        <time>2019-06-01T10:52:21Z</time>
      </trkpt>
      <trkpt lat="47.34989" lon="-1.08026">
        <ele>16</ele>
        <time>2019-06-01T10:52:28Z</time>
      </trkpt>
      <trkpt lat="47.34985" lon="-1.08023">
        <ele>16</ele>
        <time>2019-06-01T10:52:29Z</time>
      </trkpt>
      <trkpt lat="47.34965" lon="-1.08016">
        <ele>16</ele>
        <time>2019-06-01T10:52:33Z</time>
      </trkpt>
      <trkpt lat="47.3496" lon="-1.08014">
        <ele>16</ele>
        <time>2019-06-01T10:52:34Z</time>
      </trkpt>
      <trkpt lat="47.34941" lon="-1.08006">
        <ele>16</ele>
        <time>2019-06-01T10:52:38Z</time>
      </trkpt>
      <trkpt lat="47.34933" lon="-1.08">
        <ele>16</ele>
        <time>2019-06-01T10:52:40Z</time>
      </trkpt>
      <trkpt lat="47.34929" lon="-1.07996">
        <ele>17</ele>
        <time>2019-06-01T10:52:41Z</time>
      </trkpt>
      <trkpt lat="47.34926" lon="-1.0799">
        <ele>17</ele>
        <time>2019-06-01T10:52:42Z</time>
      </trkpt>
      <trkpt lat="47.34922" lon="-1.07978">
        <ele>17</ele>
        <time>2019-06-01T10:52:44Z</time>
      </trkpt>
      <trkpt lat="47.34923" lon="-1.07956">
        <ele>17</ele>
        <time>2019-06-01T10:52:47Z</time>
      </trkpt>
      <trkpt lat="47.34924" lon="-1.07949">
        <ele>17</ele>
        <time>2019-06-01T10:52:48Z</time>
      </trkpt>
      <trkpt lat="47.34931" lon="-1.07889">
        <ele>17</ele>
        <time>2019-06-01T10:52:56Z</time>
      </trkpt>
      <trkpt lat="47.34931" lon="-1.07881">
        <ele>17</ele>
        <time>2019-06-01T10:52:57Z</time>
      </trkpt>
      <trkpt lat="47.34931" lon="-1.07867">
        <ele>18</ele>
        <time>2019-06-01T10:52:59Z</time>
      </trkpt>
      <trkpt lat="47.3493" lon="-1.07859">
        <ele>18</ele>
        <time>2019-06-01T10:53:00Z</time>
      </trkpt>
      <trkpt lat="47.34929" lon="-1.07852">
        <ele>18</ele>
        <time>2019-06-01T10:53:01Z</time>
      </trkpt>
      <trkpt lat="47.34924" lon="-1.07823">
        <ele>18</ele>
        <time>2019-06-01T10:53:05Z</time>
      </trkpt>
      <trkpt lat="47.3492" lon="-1.07809">
        <ele>18</ele>
        <time>2019-06-01T10:53:07Z</time>
      </trkpt>
      <trkpt lat="47.34918" lon="-1.07802">
        <ele>18</ele>
        <time>2019-06-01T10:53:08Z</time>
      </trkpt>
      <trkpt lat="47.34908" lon="-1.07747">
        <ele>18</ele>
        <time>2019-06-01T10:53:15Z</time>
      </trkpt>
      <trkpt lat="47.34906" lon="-1.07732">
        <ele>18</ele>
        <time>2019-06-01T10:53:17Z</time>
      </trkpt>
      <trkpt lat="47.34901" lon="-1.07708">
        <ele>19</ele>
        <time>2019-06-01T10:53:20Z</time>
      </trkpt>
      <trkpt lat="47.349" lon="-1.07701">
        <ele>19</ele>
        <time>2019-06-01T10:53:21Z</time>
      </trkpt>
      <trkpt lat="47.34888" lon="-1.07649">
        <ele>19</ele>
        <time>2019-06-01T10:53:28Z</time>
      </trkpt>
      <trkpt lat="47.34874" lon="-1.07601">
        <ele>19</ele>
        <time>2019-06-01T10:53:35Z</time>
      </trkpt>
      <trkpt lat="47.34872" lon="-1.07594">
        <ele>19</ele>
        <time>2019-06-01T10:53:36Z</time>
      </trkpt>
      <trkpt lat="47.34871" lon="-1.07572">
        <ele>20</ele>
        <time>2019-06-01T10:53:39Z</time>
      </trkpt>
      <trkpt lat="47.34873" lon="-1.07558">
        <ele>20</ele>
        <time>2019-06-01T10:53:41Z</time>
      </trkpt>
      <trkpt lat="47.34876" lon="-1.07544">
        <ele>20</ele>
        <time>2019-06-01T10:53:43Z</time>
      </trkpt>
      <trkpt lat="47.34879" lon="-1.0753">
        <ele>20</ele>
        <time>2019-06-01T10:53:45Z</time>
      </trkpt>
      <trkpt lat="47.34894" lon="-1.07467">
        <ele>20</ele>
        <time>2019-06-01T10:53:54Z</time>
      </trkpt>
      <trkpt lat="47.34908" lon="-1.07399">
        <ele>20</ele>
        <time>2019-06-01T10:54:04Z</time>
      </trkpt>
      <trkpt lat="47.34912" lon="-1.07337">
        <ele>21</ele>
        <time>2019-06-01T10:54:13Z</time>
      </trkpt>
      <trkpt lat="47.34913" lon="-1.07323">
        <ele>21</ele>
        <time>2019-06-01T10:54:15Z</time>
      </trkpt>
      <trkpt lat="47.34914" lon="-1.07289">
        <ele>21</ele>
        <time>2019-06-01T10:54:21Z</time>
      </trkpt>
      <trkpt lat="47.34914" lon="-1.07255">
        <ele>21</ele>
        <time>2019-06-01T10:54:27Z</time>
      </trkpt>
      <trkpt lat="47.34913" lon="-1.07189">
        <ele>21</ele>
        <time>2019-06-01T10:54:36Z</time>
      </trkpt>
      <trkpt lat="47.34913" lon="-1.07135">
        <ele>21</ele>
        <time>2019-06-01T10:54:43Z</time>
      </trkpt>
      <trkpt lat="47.34912" lon="-1.07049">
        <ele>21</ele>
        <time>2019-06-01T10:54:54Z</time>
      </trkpt>
      <trkpt lat="47.34911" lon="-1.06989">
        <ele>20</ele>
        <time>2019-06-01T10:55:02Z</time>
      </trkpt>
      <trkpt lat="47.34909" lon="-1.06914">
        <ele>21</ele>
        <time>2019-06-01T10:55:12Z</time>
      </trkpt>
      <trkpt lat="47.34912" lon="-1.0685">
        <ele>20</ele>
        <time>2019-06-01T10:55:20Z</time>
      </trkpt>
      <trkpt lat="47.34914" lon="-1.06798">
        <ele>20</ele>
        <time>2019-06-01T10:55:27Z</time>
      </trkpt>
      <trkpt lat="47.34918" lon="-1.0673">
        <ele>20</ele>
        <time>2019-06-01T10:55:36Z</time>
      </trkpt>
      <trkpt lat="47.3492" lon="-1.06715">
        <ele>20</ele>
        <time>2019-06-01T10:55:38Z</time>
      </trkpt>
      <trkpt lat="47.34928" lon="-1.06677">
        <ele>20</ele>
        <time>2019-06-01T10:55:43Z</time>
      </trkpt>
      <trkpt lat="47.34945" lon="-1.06593">
        <ele>20</ele>
        <time>2019-06-01T10:55:54Z</time>
      </trkpt>
      <trkpt lat="47.34947" lon="-1.06577">
        <ele>20</ele>
        <time>2019-06-01T10:55:56Z</time>
      </trkpt>
      <trkpt lat="47.34958" lon="-1.06508">
        <ele>20</ele>
        <time>2019-06-01T10:56:05Z</time>
      </trkpt>
      <trkpt lat="47.34965" lon="-1.06462">
        <ele>20</ele>
        <time>2019-06-01T10:56:11Z</time>
      </trkpt>
      <trkpt lat="47.34965" lon="-1.06395">
        <ele>20</ele>
        <time>2019-06-01T10:56:19Z</time>
      </trkpt>
      <trkpt lat="47.34962" lon="-1.06348">
        <ele>20</ele>
        <time>2019-06-01T10:56:25Z</time>
      </trkpt>
      <trkpt lat="47.34963" lon="-1.06341">
        <ele>20</ele>
        <time>2019-06-01T10:56:26Z</time>
      </trkpt>
      <trkpt lat="47.34969" lon="-1.06312">
        <ele>20</ele>
        <time>2019-06-01T10:56:30Z</time>
      </trkpt>
      <trkpt lat="47.34972" lon="-1.06304">
        <ele>20</ele>
        <time>2019-06-01T10:56:31Z</time>
      </trkpt>
      <trkpt lat="47.34977" lon="-1.06289">
        <ele>20</ele>
        <time>2019-06-01T10:56:33Z</time>
      </trkpt>
      <trkpt lat="47.34994" lon="-1.06235">
        <ele>19</ele>
        <time>2019-06-01T10:56:40Z</time>
      </trkpt>
      <trkpt lat="47.35009" lon="-1.06186">
        <ele>19</ele>
        <time>2019-06-01T10:56:47Z</time>
      </trkpt>
      <trkpt lat="47.35026" lon="-1.06135">
        <ele>19</ele>
        <time>2019-06-01T10:56:54Z</time>
      </trkpt>
      <trkpt lat="47.35046" lon="-1.06074">
        <ele>19</ele>
        <time>2019-06-01T10:57:02Z</time>
      </trkpt>
      <trkpt lat="47.35063" lon="-1.06018">
        <ele>19</ele>
        <time>2019-06-01T10:57:10Z</time>
      </trkpt>
      <trkpt lat="47.35065" lon="-1.06012">
        <ele>19</ele>
        <time>2019-06-01T10:57:11Z</time>
      </trkpt>
      <trkpt lat="47.35068" lon="-1.06005">
        <ele>19</ele>
        <time>2019-06-01T10:57:12Z</time>
      </trkpt>
      <trkpt lat="47.35073" lon="-1.05991">
        <ele>19</ele>
        <time>2019-06-01T10:57:14Z</time>
      </trkpt>
      <trkpt lat="47.35077" lon="-1.05977">
        <ele>19</ele>
        <time>2019-06-01T10:57:16Z</time>
      </trkpt>
      <trkpt lat="47.35099" lon="-1.05904">
        <ele>19</ele>
        <time>2019-06-01T10:57:26Z</time>
      </trkpt>
      <trkpt lat="47.35116" lon="-1.05841">
        <ele>19</ele>
        <time>2019-06-01T10:57:35Z</time>
      </trkpt>
      <trkpt lat="47.35137" lon="-1.05779">
        <ele>19</ele>
        <time>2019-06-01T10:57:44Z</time>
      </trkpt>
      <trkpt lat="47.35163" lon="-1.05714">
        <ele>20</ele>
        <time>2019-06-01T10:57:54Z</time>
      </trkpt>
      <trkpt lat="47.35165" lon="-1.05708">
        <ele>20</ele>
        <time>2019-06-01T10:57:55Z</time>
      </trkpt>
      <trkpt lat="47.35184" lon="-1.05654">
        <ele>20</ele>
        <time>2019-06-01T10:58:03Z</time>
      </trkpt>
      <trkpt lat="47.352" lon="-1.05604">
        <ele>19</ele>
        <time>2019-06-01T10:58:10Z</time>
      </trkpt>
      <trkpt lat="47.35212" lon="-1.05559">
        <ele>19</ele>
        <time>2019-06-01T10:58:17Z</time>
      </trkpt>
      <trkpt lat="47.35227" lon="-1.05524">
        <ele>19</ele>
        <time>2019-06-01T10:58:23Z</time>
      </trkpt>
      <trkpt lat="47.35245" lon="-1.05482">
        <ele>19</ele>
        <time>2019-06-01T10:58:31Z</time>
      </trkpt>
      <trkpt lat="47.3525" lon="-1.05473">
        <ele>19</ele>
        <time>2019-06-01T10:58:33Z</time>
      </trkpt>
      <trkpt lat="47.35256" lon="-1.05462">
        <ele>19</ele>
        <time>2019-06-01T10:58:35Z</time>
      </trkpt>
      <trkpt lat="47.35259" lon="-1.05458">
        <ele>18</ele>
        <time>2019-06-01T10:58:36Z</time>
      </trkpt>
      <trkpt lat="47.35273" lon="-1.05448">
        <ele>18</ele>
        <time>2019-06-01T10:58:39Z</time>
      </trkpt>
      <trkpt lat="47.35282" lon="-1.05442">
        <ele>18</ele>
        <time>2019-06-01T10:58:41Z</time>
      </trkpt>
      <trkpt lat="47.35329" lon="-1.05422">
        <ele>18</ele>
        <time>2019-06-01T10:58:50Z</time>
      </trkpt>
      <trkpt lat="47.35339" lon="-1.05418">
        <ele>18</ele>
        <time>2019-06-01T10:58:52Z</time>
      </trkpt>
      <trkpt lat="47.35364" lon="-1.05407">
        <ele>17</ele>
        <time>2019-06-01T10:58:57Z</time>
      </trkpt>
      <trkpt lat="47.35397" lon="-1.05387">
        <ele>17</ele>
        <time>2019-06-01T10:59:04Z</time>
      </trkpt>
      <trkpt lat="47.35425" lon="-1.05364">
        <ele>16</ele>
        <time>2019-06-01T10:59:11Z</time>
      </trkpt>
      <trkpt lat="47.35433" lon="-1.05357">
        <ele>16</ele>
        <time>2019-06-01T10:59:13Z</time>
      </trkpt>
      <trkpt lat="47.35476" lon="-1.0532">
        <ele>16</ele>
        <time>2019-06-01T10:59:24Z</time>
      </trkpt>
      <trkpt lat="47.35484" lon="-1.0531">
        <ele>16</ele>
        <time>2019-06-01T10:59:27Z</time>
      </trkpt>
      <trkpt lat="47.35484" lon="-1.05305">
        <ele>16</ele>
        <time>2019-06-01T10:59:28Z</time>
      </trkpt>
      <trkpt lat="47.35479" lon="-1.05292">
        <ele>16</ele>
        <time>2019-06-01T10:59:31Z</time>
      </trkpt>
      <trkpt lat="47.35477" lon="-1.05287">
        <ele>16</ele>
        <time>2019-06-01T10:59:32Z</time>
      </trkpt>
      <trkpt lat="47.35456" lon="-1.05252">
        <ele>16</ele>
        <time>2019-06-01T10:59:40Z</time>
      </trkpt>
      <trkpt lat="47.35442" lon="-1.0524">
        <ele>16</ele>
        <time>2019-06-01T10:59:44Z</time>
      </trkpt>
      <trkpt lat="47.35433" lon="-1.05235">
        <ele>16</ele>
        <time>2019-06-01T10:59:46Z</time>
      </trkpt>
      <trkpt lat="47.35401" lon="-1.05215">
        <ele>16</ele>
        <time>2019-06-01T10:59:54Z</time>
      </trkpt>
      <trkpt lat="47.3537" lon="-1.05199">
        <ele>16</ele>
        <time>2019-06-01T11:00:02Z</time>
      </trkpt>
      <trkpt lat="47.35367" lon="-1.05196">
        <ele>16</ele>
        <time>2019-06-01T11:00:03Z</time>
      </trkpt>
      <trkpt lat="47.35346" lon="-1.05174">
        <ele>16</ele>
        <time>2019-06-01T11:00:09Z</time>
      </trkpt>
      <trkpt lat="47.35327" lon="-1.05144">
        <ele>16</ele>
        <time>2019-06-01T11:00:16Z</time>
      </trkpt>
      <trkpt lat="47.35316" lon="-1.051">
        <ele>17</ele>
        <time>2019-06-01T11:00:23Z</time>
      </trkpt>
      <trkpt lat="47.35312" lon="-1.05055">
        <ele>16</ele>
        <time>2019-06-01T11:00:30Z</time>
      </trkpt>
      <trkpt lat="47.3531" lon="-1.05021">
        <ele>16</ele>
        <time>2019-06-01T11:00:37Z</time>
      </trkpt>
      <trkpt lat="47.35307" lon="-1.05015">
        <ele>16</ele>
        <time>2019-06-01T11:00:40Z</time>
      </trkpt>
      <trkpt lat="47.35305" lon="-1.05015">
        <ele>16</ele>
        <time>2019-06-01T11:00:41Z</time>
      </trkpt>
      <trkpt lat="47.35299" lon="-1.05019">
        <ele>16</ele>
        <time>2019-06-01T11:00:44Z</time>
      </trkpt>
      <trkpt lat="47.35293" lon="-1.05024">
        <ele>16</ele>
        <time>2019-06-01T11:00:47Z</time>
      </trkpt>
      <trkpt lat="47.35286" lon="-1.05027">
        <ele>16</ele>
        <time>2019-06-01T11:00:50Z</time>
      </trkpt>
      <trkpt lat="47.35283" lon="-1.05023">
        <ele>16</ele>
        <time>2019-06-01T11:00:52Z</time>
      </trkpt>
      <trkpt lat="47.35285" lon="-1.05011">
        <ele>16</ele>
        <time>2019-06-01T11:00:57Z</time>
      </trkpt>
      <trkpt lat="47.35287" lon="-1.04989">
        <ele>16</ele>
        <time>2019-06-01T11:01:02Z</time>
      </trkpt>
      <trkpt lat="47.35289" lon="-1.04961">
        <ele>15</ele>
        <time>2019-06-01T11:01:07Z</time>
      </trkpt>
      <trkpt lat="47.35287" lon="-1.04934">
        <ele>15</ele>
        <time>2019-06-01T11:01:12Z</time>
      </trkpt>
      <trkpt lat="47.35274" lon="-1.04911">
        <ele>15</ele>
        <time>2019-06-01T11:01:17Z</time>
      </trkpt>
      <trkpt lat="47.35271" lon="-1.04906">
        <ele>15</ele>
        <time>2019-06-01T11:01:18Z</time>
      </trkpt>
      <trkpt lat="47.35258" lon="-1.04873">
        <ele>15</ele>
        <time>2019-06-01T11:01:24Z</time>
      </trkpt>
      <trkpt lat="47.35257" lon="-1.04867">
        <ele>15</ele>
        <time>2019-06-01T11:01:25Z</time>
      </trkpt>
      <trkpt lat="47.35256" lon="-1.04842">
        <ele>15</ele>
        <time>2019-06-01T11:01:29Z</time>
      </trkpt>
      <trkpt lat="47.35256" lon="-1.04835">
        <ele>15</ele>
        <time>2019-06-01T11:01:30Z</time>
      </trkpt>
      <trkpt lat="47.35253" lon="-1.04787">
        <ele>15</ele>
        <time>2019-06-01T11:01:37Z</time>
      </trkpt>
      <trkpt lat="47.3525" lon="-1.04733">
        <ele>15</ele>
        <time>2019-06-01T11:01:45Z</time>
      </trkpt>
      <trkpt lat="47.35246" lon="-1.04679">
        <ele>15</ele>
        <time>2019-06-01T11:01:53Z</time>
      </trkpt>
      <trkpt lat="47.35244" lon="-1.04633">
        <ele>15</ele>
        <time>2019-06-01T11:02:00Z</time>
      </trkpt>
      <trkpt lat="47.35243" lon="-1.04627">
        <ele>15</ele>
        <time>2019-06-01T11:02:01Z</time>
      </trkpt>
      <trkpt lat="47.35237" lon="-1.04601">
        <ele>14</ele>
        <time>2019-06-01T11:02:05Z</time>
      </trkpt>
      <trkpt lat="47.35231" lon="-1.04573">
        <ele>14</ele>
        <time>2019-06-01T11:02:09Z</time>
      </trkpt>
      <trkpt lat="47.35219" lon="-1.04516">
        <ele>13</ele>
        <time>2019-06-01T11:02:18Z</time>
      </trkpt>
      <trkpt lat="47.35216" lon="-1.04504">
        <ele>13</ele>
        <time>2019-06-01T11:02:20Z</time>
      </trkpt>
      <trkpt lat="47.35208" lon="-1.04472">
        <ele>13</ele>
        <time>2019-06-01T11:02:25Z</time>
      </trkpt>
      <trkpt lat="47.35207" lon="-1.04466">
        <ele>13</ele>
        <time>2019-06-01T11:02:26Z</time>
      </trkpt>
      <trkpt lat="47.35204" lon="-1.04457">
        <ele>12</ele>
        <time>2019-06-01T11:02:28Z</time>
      </trkpt>
      <trkpt lat="47.35201" lon="-1.04444">
        <ele>11</ele>
        <time>2019-06-01T11:02:31Z</time>
      </trkpt>
      <trkpt lat="47.352" lon="-1.0444">
        <ele>11</ele>
        <time>2019-06-01T11:02:32Z</time>
      </trkpt>
      <trkpt lat="47.35198" lon="-1.04431">
        <ele>9</ele>
        <time>2019-06-01T11:02:35Z</time>
      </trkpt>
      <trkpt lat="47.35198" lon="-1.04426">
        <ele>9</ele>
        <time>2019-06-01T11:02:36Z</time>
      </trkpt>
      <trkpt lat="47.35196" lon="-1.04413">
        <ele>8</ele>
        <time>2019-06-01T11:02:38Z</time>
      </trkpt>
      <trkpt lat="47.35196" lon="-1.04403">
        <ele>7</ele>
        <time>2019-06-01T11:02:40Z</time>
      </trkpt>
      <trkpt lat="47.35195" lon="-1.04395">
        <ele>5</ele>
        <time>2019-06-01T11:02:42Z</time>
      </trkpt>
      <trkpt lat="47.35194" lon="-1.04388">
        <ele>4</ele>
        <time>2019-06-01T11:02:44Z</time>
      </trkpt>
      <trkpt lat="47.35193" lon="-1.04376">
        <ele>2</ele>
        <time>2019-06-01T11:02:47Z</time>
      </trkpt>
      <trkpt lat="47.35195" lon="-1.04371">
        <ele>1</ele>
        <time>2019-06-01T11:02:49Z</time>
      </trkpt>
      <trkpt lat="47.35197" lon="-1.04369">
        <ele>1</ele>
        <time>2019-06-01T11:02:50Z</time>
      </trkpt>
      <trkpt lat="47.35208" lon="-1.04359">
        <ele>10</ele>
        <time>2019-06-01T11:02:56Z</time>
      </trkpt>
      <trkpt lat="47.35222" lon="-1.0434">
        <ele>1</ele>
        <time>2019-06-01T11:03:02Z</time>
      </trkpt>
      <trkpt lat="47.35231" lon="-1.0433">
        <ele>1</ele>
        <time>2019-06-01T11:03:05Z</time>
      </trkpt>
      <trkpt lat="47.35234" lon="-1.0433">
        <ele>1</ele>
        <time>2019-06-01T11:03:06Z</time>
      </trkpt>
      <trkpt lat="47.35246" lon="-1.04336">
        <ele>1</ele>
        <time>2019-06-01T11:03:09Z</time>
      </trkpt>
      <trkpt lat="47.35255" lon="-1.04341">
        <ele>1</ele>
        <time>2019-06-01T11:03:11Z</time>
      </trkpt>
      <trkpt lat="47.35279" lon="-1.04355">
        <ele>1</ele>
        <time>2019-06-01T11:03:17Z</time>
      </trkpt>
      <trkpt lat="47.35304" lon="-1.04366">
        <ele>1</ele>
        <time>2019-06-01T11:03:25Z</time>
      </trkpt>
      <trkpt lat="47.35328" lon="-1.04372">
        <ele>1</ele>
        <time>2019-06-01T11:03:31Z</time>
      </trkpt>
      <trkpt lat="47.35333" lon="-1.04371">
        <ele>1</ele>
        <time>2019-06-01T11:03:32Z</time>
      </trkpt>
      <trkpt lat="47.35347" lon="-1.04369">
        <ele>1</ele>
        <time>2019-06-01T11:03:36Z</time>
      </trkpt>
      <trkpt lat="47.35371" lon="-1.04366">
        <ele>1</ele>
        <time>2019-06-01T11:03:42Z</time>
      </trkpt>
      <trkpt lat="47.35384" lon="-1.04363">
        <ele>1</ele>
        <time>2019-06-01T11:03:47Z</time>
      </trkpt>
      <trkpt lat="47.35414" lon="-1.04343">
        <ele>10</ele>
        <time>2019-06-01T11:04:46Z</time>
      </trkpt>
      <trkpt lat="47.35416" lon="-1.04342">
        <ele>10</ele>
        <time>2019-06-01T11:04:47Z</time>
      </trkpt>
      <trkpt lat="47.35427" lon="-1.04332">
        <ele>10</ele>
        <time>2019-06-01T11:04:52Z</time>
      </trkpt>
      <trkpt lat="47.35441" lon="-1.04306">
        <ele>10</ele>
        <time>2019-06-01T11:04:58Z</time>
      </trkpt>
      <trkpt lat="47.3545" lon="-1.04291">
        <ele>9</ele>
        <time>2019-06-01T11:05:02Z</time>
      </trkpt>
      <trkpt lat="47.35451" lon="-1.04289">
        <ele>8</ele>
        <time>2019-06-01T11:05:03Z</time>
      </trkpt>
      <trkpt lat="47.35454" lon="-1.04284">
        <ele>7</ele>
        <time>2019-06-01T11:05:06Z</time>
      </trkpt>
      <trkpt lat="47.35456" lon="-1.04279">
        <ele>7</ele>
        <time>2019-06-01T11:05:08Z</time>
      </trkpt>
      <trkpt lat="47.35459" lon="-1.04272">
        <ele>6</ele>
        <time>2019-06-01T11:05:10Z</time>
      </trkpt>
      <trkpt lat="47.35463" lon="-1.04264">
        <ele>5</ele>
        <time>2019-06-01T11:05:12Z</time>
      </trkpt>
      <trkpt lat="47.35465" lon="-1.0426">
        <ele>5</ele>
        <time>2019-06-01T11:05:13Z</time>
      </trkpt>
      <trkpt lat="47.3547" lon="-1.04254">
        <ele>3</ele>
        <time>2019-06-01T11:05:15Z</time>
      </trkpt>
      <trkpt lat="47.35472" lon="-1.0425">
        <ele>2</ele>
        <time>2019-06-01T11:05:16Z</time>
      </trkpt>
      <trkpt lat="47.35482" lon="-1.04236">
        <ele>1</ele>
        <time>2019-06-01T11:05:20Z</time>
      </trkpt>
      <trkpt lat="47.35502" lon="-1.04215">
        <ele>1</ele>
        <time>2019-06-01T11:05:27Z</time>
      </trkpt>
      <trkpt lat="47.35518" lon="-1.04193">
        <ele>1</ele>
        <time>2019-06-01T11:05:31Z</time>
      </trkpt>
      <trkpt lat="47.35543" lon="-1.04148">
        <ele>1</ele>
        <time>2019-06-01T11:05:39Z</time>
      </trkpt>
      <trkpt lat="47.3556" lon="-1.04116">
        <ele>1</ele>
        <time>2019-06-01T11:05:45Z</time>
      </trkpt>
      <trkpt lat="47.35566" lon="-1.04108">
        <ele>1</ele>
        <time>2019-06-01T11:05:47Z</time>
      </trkpt>
      <trkpt lat="47.35574" lon="-1.04097">
        <ele>1</ele>
        <time>2019-06-01T11:05:50Z</time>
      </trkpt>
      <trkpt lat="47.35588" lon="-1.04069">
        <ele>1</ele>
        <time>2019-06-01T11:05:56Z</time>
      </trkpt>
      <trkpt lat="47.35605" lon="-1.04037">
        <ele>1</ele>
        <time>2019-06-01T11:06:02Z</time>
      </trkpt>
      <trkpt lat="47.35628" lon="-1.04003">
        <ele>1</ele>
        <time>2019-06-01T11:06:09Z</time>
      </trkpt>
      <trkpt lat="47.35634" lon="-1.03993">
        <ele>1</ele>
        <time>2019-06-01T11:06:11Z</time>
      </trkpt>
      <trkpt lat="47.35647" lon="-1.03974">
        <ele>1</ele>
        <time>2019-06-01T11:06:15Z</time>
      </trkpt>
      <trkpt lat="47.35675" lon="-1.03942">
        <ele>1</ele>
        <time>2019-06-01T11:06:22Z</time>
      </trkpt>
      <trkpt lat="47.35705" lon="-1.03911">
        <ele>1</ele>
        <time>2019-06-01T11:06:30Z</time>
      </trkpt>
      <trkpt lat="47.35738" lon="-1.03879">
        <ele>1</ele>
        <time>2019-06-01T11:06:38Z</time>
      </trkpt>
      <trkpt lat="47.3577" lon="-1.03848">
        <ele>1</ele>
        <time>2019-06-01T11:06:46Z</time>
      </trkpt>
      <trkpt lat="47.35796" lon="-1.03823">
        <ele>1</ele>
        <time>2019-06-01T11:06:53Z</time>
      </trkpt>
      <trkpt lat="47.35827" lon="-1.03798">
        <ele>1</ele>
        <time>2019-06-01T11:07:01Z</time>
      </trkpt>
      <trkpt lat="47.35852" lon="-1.03784">
        <ele>1</ele>
        <time>2019-06-01T11:07:07Z</time>
      </trkpt>
      <trkpt lat="47.35895" lon="-1.03768">
        <ele>1</ele>
        <time>2019-06-01T11:07:17Z</time>
      </trkpt>
      <trkpt lat="47.35929" lon="-1.03756">
        <ele>1</ele>
        <time>2019-06-01T11:07:24Z</time>
      </trkpt>
      <trkpt lat="47.35955" lon="-1.03747">
        <ele>1</ele>
        <time>2019-06-01T11:07:30Z</time>
      </trkpt>
      <trkpt lat="47.35981" lon="-1.03732">
        <ele>1</ele>
        <time>2019-06-01T11:07:36Z</time>
      </trkpt>
      <trkpt lat="47.36005" lon="-1.03718">
        <ele>2</ele>
        <time>2019-06-01T11:07:41Z</time>
      </trkpt>
      <trkpt lat="47.36028" lon="-1.03714">
        <ele>2</ele>
        <time>2019-06-01T11:07:46Z</time>
      </trkpt>
      <trkpt lat="47.36042" lon="-1.03722">
        <ele>2</ele>
        <time>2019-06-01T11:07:50Z</time>
      </trkpt>
      <trkpt lat="47.36049" lon="-1.03726">
        <ele>2</ele>
        <time>2019-06-01T11:07:54Z</time>
      </trkpt>
      <trkpt lat="47.36059" lon="-1.03726">
        <ele>5</ele>
        <time>2019-06-01T11:08:13Z</time>
      </trkpt>
      <trkpt lat="47.36063" lon="-1.0373">
        <ele>5</ele>
        <time>2019-06-01T11:08:16Z</time>
      </trkpt>
      <trkpt lat="47.36064" lon="-1.03737">
        <ele>5</ele>
        <time>2019-06-01T11:08:21Z</time>
      </trkpt>
      <trkpt lat="47.36062" lon="-1.03743">
        <ele>5</ele>
        <time>2019-06-01T11:08:23Z</time>
      </trkpt>
      <trkpt lat="47.36058" lon="-1.03756">
        <ele>5</ele>
        <time>2019-06-01T11:08:26Z</time>
      </trkpt>
      <trkpt lat="47.36055" lon="-1.03768">
        <ele>5</ele>
        <time>2019-06-01T11:08:28Z</time>
      </trkpt>
      <trkpt lat="47.36054" lon="-1.03774">
        <ele>5</ele>
        <time>2019-06-01T11:08:29Z</time>
      </trkpt>
      <trkpt lat="47.36047" lon="-1.03803">
        <ele>4</ele>
        <time>2019-06-01T11:08:33Z</time>
      </trkpt>
      <trkpt lat="47.36038" lon="-1.03844">
        <ele>3</ele>
        <time>2019-06-01T11:08:38Z</time>
      </trkpt>
      <trkpt lat="47.36034" lon="-1.03861">
        <ele>2</ele>
        <time>2019-06-01T11:08:40Z</time>
      </trkpt>
      <trkpt lat="47.36028" lon="-1.03885">
        <ele>2</ele>
        <time>2019-06-01T11:08:43Z</time>
      </trkpt>
      <trkpt lat="47.36027" lon="-1.03892">
        <ele>2</ele>
        <time>2019-06-01T11:08:44Z</time>
      </trkpt>
      <trkpt lat="47.36026" lon="-1.03898">
        <ele>2</ele>
        <time>2019-06-01T11:08:45Z</time>
      </trkpt>
      <trkpt lat="47.36033" lon="-1.03913">
        <ele>1</ele>
        <time>2019-06-01T11:08:48Z</time>
      </trkpt>
      <trkpt lat="47.36036" lon="-1.03917">
        <ele>1</ele>
        <time>2019-06-01T11:08:49Z</time>
      </trkpt>
      <trkpt lat="47.36044" lon="-1.03921">
        <ele>1</ele>
        <time>2019-06-01T11:08:51Z</time>
      </trkpt>
      <trkpt lat="47.36047" lon="-1.03919">
        <ele>1</ele>
        <time>2019-06-01T11:08:52Z</time>
      </trkpt>
      <trkpt lat="47.3606" lon="-1.03903">
        <ele>1</ele>
        <time>2019-06-01T11:08:56Z</time>
      </trkpt>
      <trkpt lat="47.36082" lon="-1.03877">
        <ele>1</ele>
        <time>2019-06-01T11:09:03Z</time>
      </trkpt>
      <trkpt lat="47.36086" lon="-1.03877">
        <ele>1</ele>
        <time>2019-06-01T11:09:04Z</time>
      </trkpt>
      <trkpt lat="47.36093" lon="-1.03883">
        <ele>1</ele>
        <time>2019-06-01T11:09:06Z</time>
      </trkpt>
      <trkpt lat="47.36098" lon="-1.03909">
        <ele>1</ele>
        <time>2019-06-01T11:09:10Z</time>
      </trkpt>
      <trkpt lat="47.36104" lon="-1.03948">
        <ele>1</ele>
        <time>2019-06-01T11:09:16Z</time>
      </trkpt>
      <trkpt lat="47.3611" lon="-1.03984">
        <ele>1</ele>
        <time>2019-06-01T11:09:21Z</time>
      </trkpt>
      <trkpt lat="47.36111" lon="-1.03991">
        <ele>1</ele>
        <time>2019-06-01T11:09:22Z</time>
      </trkpt>
      <trkpt lat="47.36117" lon="-1.04039">
        <ele>1</ele>
        <time>2019-06-01T11:09:29Z</time>
      </trkpt>
      <trkpt lat="47.36119" lon="-1.04053">
        <ele>1</ele>
        <time>2019-06-01T11:09:31Z</time>
      </trkpt>
      <trkpt lat="47.36125" lon="-1.04081">
        <ele>1</ele>
        <time>2019-06-01T11:09:35Z</time>
      </trkpt>
      <trkpt lat="47.36136" lon="-1.0413">
        <ele>10.9</ele>
        <time>2019-06-01T11:09:42Z</time>
      </trkpt>
      <trkpt lat="47.36143" lon="-1.04177">
        <ele>10</ele>
        <time>2019-06-01T11:09:48Z</time>
      </trkpt>
      <trkpt lat="47.36145" lon="-1.04217">
        <ele>1</ele>
        <time>2019-06-01T11:09:53Z</time>
      </trkpt>
      <trkpt lat="47.36147" lon="-1.04233">
        <ele>1</ele>
        <time>2019-06-01T11:09:55Z</time>
      </trkpt>
      <trkpt lat="47.36149" lon="-1.04242">
        <ele>1</ele>
        <time>2019-06-01T11:09:56Z</time>
      </trkpt>
      <trkpt lat="47.36154" lon="-1.04253">
        <ele>1</ele>
        <time>2019-06-01T11:09:58Z</time>
      </trkpt>
      <trkpt lat="47.36158" lon="-1.04255">
        <ele>1</ele>
        <time>2019-06-01T11:09:59Z</time>
      </trkpt>
      <trkpt lat="47.3617" lon="-1.04258">
        <ele>1</ele>
        <time>2019-06-01T11:10:02Z</time>
      </trkpt>
      <trkpt lat="47.36179" lon="-1.04261">
        <ele>1</ele>
        <time>2019-06-01T11:10:04Z</time>
      </trkpt>
      <trkpt lat="47.36188" lon="-1.04269">
        <ele>1</ele>
        <time>2019-06-01T11:10:06Z</time>
      </trkpt>
      <trkpt lat="47.36193" lon="-1.04272">
        <ele>1</ele>
        <time>2019-06-01T11:10:07Z</time>
      </trkpt>
      <trkpt lat="47.36197" lon="-1.04274">
        <ele>1</ele>
        <time>2019-06-01T11:10:08Z</time>
      </trkpt>
      <trkpt lat="47.3621" lon="-1.04273">
        <ele>1</ele>
        <time>2019-06-01T11:10:11Z</time>
      </trkpt>
      <trkpt lat="47.36214" lon="-1.04272">
        <ele>1</ele>
        <time>2019-06-01T11:10:12Z</time>
      </trkpt>
      <trkpt lat="47.3624" lon="-1.04258">
        <ele>10.4</ele>
        <time>2019-06-01T11:10:18Z</time>
      </trkpt>
      <trkpt lat="47.36274" lon="-1.04232">
        <ele>11</ele>
        <time>2019-06-01T11:10:26Z</time>
      </trkpt>
      <trkpt lat="47.36295" lon="-1.04217">
        <ele>1</ele>
        <time>2019-06-01T11:10:31Z</time>
      </trkpt>
      <trkpt lat="47.36309" lon="-1.04215">
        <ele>1</ele>
        <time>2019-06-01T11:10:34Z</time>
      </trkpt>
      <trkpt lat="47.36318" lon="-1.04215">
        <ele>1</ele>
        <time>2019-06-01T11:10:36Z</time>
      </trkpt>
      <trkpt lat="47.36331" lon="-1.04213">
        <ele>1</ele>
        <time>2019-06-01T11:10:39Z</time>
      </trkpt>
      <trkpt lat="47.36348" lon="-1.042">
        <ele>1</ele>
        <time>2019-06-01T11:10:44Z</time>
      </trkpt>
      <trkpt lat="47.36355" lon="-1.04202">
        <ele>1</ele>
        <time>2019-06-01T11:10:46Z</time>
      </trkpt>
      <trkpt lat="47.36358" lon="-1.04206">
        <ele>2</ele>
        <time>2019-06-01T11:10:47Z</time>
      </trkpt>
      <trkpt lat="47.36364" lon="-1.04222">
        <ele>2</ele>
        <time>2019-06-01T11:10:50Z</time>
      </trkpt>
      <trkpt lat="47.36365" lon="-1.04227">
        <ele>2</ele>
        <time>2019-06-01T11:10:51Z</time>
      </trkpt>
      <trkpt lat="47.36367" lon="-1.04258">
        <ele>2</ele>
        <time>2019-06-01T11:10:56Z</time>
      </trkpt>
      <trkpt lat="47.36366" lon="-1.04265">
        <ele>2</ele>
        <time>2019-06-01T11:10:57Z</time>
      </trkpt>
      <trkpt lat="47.36361" lon="-1.04319">
        <ele>2</ele>
        <time>2019-06-01T11:11:04Z</time>
      </trkpt>
      <trkpt lat="47.36363" lon="-1.04353">
        <ele>2</ele>
        <time>2019-06-01T11:11:09Z</time>
      </trkpt>
      <trkpt lat="47.36366" lon="-1.04367">
        <ele>2</ele>
        <time>2019-06-01T11:11:13Z</time>
      </trkpt>
      <trkpt lat="47.36368" lon="-1.04385">
        <ele>2</ele>
        <time>2019-06-01T11:11:19Z</time>
      </trkpt>
      <trkpt lat="47.36369" lon="-1.04389">
        <ele>2</ele>
        <time>2019-06-01T11:11:20Z</time>
      </trkpt>
      <trkpt lat="47.36375" lon="-1.04418">
        <ele>2</ele>
        <time>2019-06-01T11:11:25Z</time>
      </trkpt>
      <trkpt lat="47.36383" lon="-1.0446">
        <ele>2</ele>
        <time>2019-06-01T11:11:31Z</time>
      </trkpt>
      <trkpt lat="47.36383" lon="-1.04467">
        <ele>2</ele>
        <time>2019-06-01T11:11:32Z</time>
      </trkpt>
      <trkpt lat="47.36385" lon="-1.04487">
        <ele>2</ele>
        <time>2019-06-01T11:11:35Z</time>
      </trkpt>
      <trkpt lat="47.36385" lon="-1.04505">
        <ele>2</ele>
        <time>2019-06-01T11:11:38Z</time>
      </trkpt>
      <trkpt lat="47.36388" lon="-1.04551">
        <ele>2</ele>
        <time>2019-06-01T11:11:45Z</time>
      </trkpt>
      <trkpt lat="47.36395" lon="-1.04589">
        <ele>2</ele>
        <time>2019-06-01T11:11:51Z</time>
      </trkpt>
      <trkpt lat="47.36396" lon="-1.04596">
        <ele>2</ele>
        <time>2019-06-01T11:11:52Z</time>
      </trkpt>
      <trkpt lat="47.36396" lon="-1.04625">
        <ele>2</ele>
        <time>2019-06-01T11:11:56Z</time>
      </trkpt>
      <trkpt lat="47.36396" lon="-1.04631">
        <ele>2</ele>
        <time>2019-06-01T11:11:57Z</time>
      </trkpt>
      <trkpt lat="47.36399" lon="-1.04656">
        <ele>2</ele>
        <time>2019-06-01T11:12:02Z</time>
      </trkpt>
      <trkpt lat="47.36406" lon="-1.04691">
        <ele>2</ele>
        <time>2019-06-01T11:12:07Z</time>
      </trkpt>
      <trkpt lat="47.36414" lon="-1.04739">
        <ele>1</ele>
        <time>2019-06-01T11:12:12Z</time>
      </trkpt>
      <trkpt lat="47.36423" lon="-1.04783">
        <ele>1</ele>
        <time>2019-06-01T11:12:18Z</time>
      </trkpt>
      <trkpt lat="47.36428" lon="-1.04809">
        <ele>1</ele>
        <time>2019-06-01T11:12:22Z</time>
      </trkpt>
      <trkpt lat="47.36427" lon="-1.04821">
        <ele>1</ele>
        <time>2019-06-01T11:12:24Z</time>
      </trkpt>
      <trkpt lat="47.36425" lon="-1.04837">
        <ele>1</ele>
        <time>2019-06-01T11:12:28Z</time>
      </trkpt>
      <trkpt lat="47.36425" lon="-1.0484">
        <ele>2</ele>
        <time>2019-06-01T11:12:29Z</time>
      </trkpt>
      <trkpt lat="47.36433" lon="-1.04862">
        <ele>2</ele>
        <time>2019-06-01T11:12:35Z</time>
      </trkpt>
      <trkpt lat="47.36445" lon="-1.04898">
        <ele>2</ele>
        <time>2019-06-01T11:12:42Z</time>
      </trkpt>
      <trkpt lat="47.36462" lon="-1.04941">
        <ele>2</ele>
        <time>2019-06-01T11:12:49Z</time>
      </trkpt>
      <trkpt lat="47.36471" lon="-1.0497">
        <ele>2</ele>
        <time>2019-06-01T11:12:53Z</time>
      </trkpt>
      <trkpt lat="47.36474" lon="-1.04985">
        <ele>2</ele>
        <time>2019-06-01T11:12:55Z</time>
      </trkpt>
      <trkpt lat="47.36484" lon="-1.0502">
        <ele>2</ele>
        <time>2019-06-01T11:13:01Z</time>
      </trkpt>
      <trkpt lat="47.36498" lon="-1.05047">
        <ele>2</ele>
        <time>2019-06-01T11:13:06Z</time>
      </trkpt>
      <trkpt lat="47.36503" lon="-1.05076">
        <ele>2</ele>
        <time>2019-06-01T11:13:11Z</time>
      </trkpt>
      <trkpt lat="47.36514" lon="-1.05124">
        <ele>3</ele>
        <time>2019-06-01T11:13:18Z</time>
      </trkpt>
      <trkpt lat="47.36518" lon="-1.05151">
        <ele>3</ele>
        <time>2019-06-01T11:13:23Z</time>
      </trkpt>
      <trkpt lat="47.36526" lon="-1.05187">
        <ele>3</ele>
        <time>2019-06-01T11:13:29Z</time>
      </trkpt>
      <trkpt lat="47.36529" lon="-1.0522">
        <ele>2</ele>
        <time>2019-06-01T11:13:34Z</time>
      </trkpt>
      <trkpt lat="47.36528" lon="-1.05227">
        <ele>2</ele>
        <time>2019-06-01T11:13:35Z</time>
      </trkpt>
      <trkpt lat="47.36521" lon="-1.05264">
        <ele>2</ele>
        <time>2019-06-01T11:13:40Z</time>
      </trkpt>
      <trkpt lat="47.36522" lon="-1.05271">
        <ele>2</ele>
        <time>2019-06-01T11:13:41Z</time>
      </trkpt>
      <trkpt lat="47.36529" lon="-1.053">
        <ele>3</ele>
        <time>2019-06-01T11:13:45Z</time>
      </trkpt>
      <trkpt lat="47.36532" lon="-1.05305">
        <ele>3</ele>
        <time>2019-06-01T11:13:46Z</time>
      </trkpt>
      <trkpt lat="47.36539" lon="-1.05316">
        <ele>3</ele>
        <time>2019-06-01T11:13:49Z</time>
      </trkpt>
      <trkpt lat="47.3654" lon="-1.05318">
        <ele>3</ele>
        <time>2019-06-01T11:13:50Z</time>
      </trkpt>
      <trkpt lat="47.36544" lon="-1.05336">
        <ele>3</ele>
        <time>2019-06-01T11:13:55Z</time>
      </trkpt>
      <trkpt lat="47.36553" lon="-1.05363">
        <ele>3</ele>
        <time>2019-06-01T11:14:01Z</time>
      </trkpt>
      <trkpt lat="47.36566" lon="-1.05394">
        <ele>2</ele>
        <time>2019-06-01T11:14:06Z</time>
      </trkpt>
      <trkpt lat="47.36576" lon="-1.05435">
        <ele>2</ele>
        <time>2019-06-01T11:14:12Z</time>
      </trkpt>
      <trkpt lat="47.36578" lon="-1.05441">
        <ele>2</ele>
        <time>2019-06-01T11:14:13Z</time>
      </trkpt>
      <trkpt lat="47.36583" lon="-1.05456">
        <ele>2</ele>
        <time>2019-06-01T11:14:16Z</time>
      </trkpt>
      <trkpt lat="47.36586" lon="-1.0546">
        <ele>2</ele>
        <time>2019-06-01T11:14:17Z</time>
      </trkpt>
      <trkpt lat="47.36597" lon="-1.0548">
        <ele>2</ele>
        <time>2019-06-01T11:14:21Z</time>
      </trkpt>
      <trkpt lat="47.366" lon="-1.05493">
        <ele>2</ele>
        <time>2019-06-01T11:14:23Z</time>
      </trkpt>
      <trkpt lat="47.36605" lon="-1.05506">
        <ele>2</ele>
        <time>2019-06-01T11:14:25Z</time>
      </trkpt>
      <trkpt lat="47.36611" lon="-1.05513">
        <ele>2</ele>
        <time>2019-06-01T11:14:27Z</time>
      </trkpt>
      <trkpt lat="47.36625" lon="-1.05523">
        <ele>2</ele>
        <time>2019-06-01T11:14:31Z</time>
      </trkpt>
      <trkpt lat="47.36635" lon="-1.05544">
        <ele>2</ele>
        <time>2019-06-01T11:14:36Z</time>
      </trkpt>
      <trkpt lat="47.36636" lon="-1.05551">
        <ele>2</ele>
        <time>2019-06-01T11:14:37Z</time>
      </trkpt>
      <trkpt lat="47.36637" lon="-1.0557">
        <ele>2</ele>
        <time>2019-06-01T11:14:40Z</time>
      </trkpt>
      <trkpt lat="47.36641" lon="-1.05589">
        <ele>2</ele>
        <time>2019-06-01T11:14:43Z</time>
      </trkpt>
      <trkpt lat="47.36648" lon="-1.05611">
        <ele>2</ele>
        <time>2019-06-01T11:14:47Z</time>
      </trkpt>
      <trkpt lat="47.36659" lon="-1.05636">
        <ele>2</ele>
        <time>2019-06-01T11:14:52Z</time>
      </trkpt>
      <trkpt lat="47.36667" lon="-1.05663">
        <ele>2</ele>
        <time>2019-06-01T11:14:58Z</time>
      </trkpt>
      <trkpt lat="47.36674" lon="-1.05691">
        <ele>2</ele>
        <time>2019-06-01T11:15:04Z</time>
      </trkpt>
      <trkpt lat="47.36673" lon="-1.05694">
        <ele>2</ele>
        <time>2019-06-01T11:15:05Z</time>
      </trkpt>
      <trkpt lat="47.36672" lon="-1.0571">
        <ele>2</ele>
        <time>2019-06-01T11:15:08Z</time>
      </trkpt>
      <trkpt lat="47.36676" lon="-1.05742">
        <ele>2</ele>
        <time>2019-06-01T11:15:13Z</time>
      </trkpt>
      <trkpt lat="47.36686" lon="-1.05777">
        <ele>2</ele>
        <time>2019-06-01T11:15:19Z</time>
      </trkpt>
      <trkpt lat="47.36701" lon="-1.05807">
        <ele>3</ele>
        <time>2019-06-01T11:15:25Z</time>
      </trkpt>
      <trkpt lat="47.36714" lon="-1.05844">
        <ele>3</ele>
        <time>2019-06-01T11:15:32Z</time>
      </trkpt>
      <trkpt lat="47.36718" lon="-1.05856">
        <ele>2</ele>
        <time>2019-06-01T11:15:34Z</time>
      </trkpt>
      <trkpt lat="47.36721" lon="-1.05875">
        <ele>2</ele>
        <time>2019-06-01T11:15:37Z</time>
      </trkpt>
      <trkpt lat="47.36725" lon="-1.059">
        <ele>2</ele>
        <time>2019-06-01T11:15:41Z</time>
      </trkpt>
      <trkpt lat="47.36728" lon="-1.05911">
        <ele>2</ele>
        <time>2019-06-01T11:15:43Z</time>
      </trkpt>
      <trkpt lat="47.36729" lon="-1.05917">
        <ele>2</ele>
        <time>2019-06-01T11:15:44Z</time>
      </trkpt>
      <trkpt lat="47.36728" lon="-1.05945">
        <ele>2</ele>
        <time>2019-06-01T11:15:48Z</time>
      </trkpt>
      <trkpt lat="47.36729" lon="-1.05972">
        <ele>2</ele>
        <time>2019-06-01T11:15:53Z</time>
      </trkpt>
      <trkpt lat="47.36731" lon="-1.06006">
        <ele>2</ele>
        <time>2019-06-01T11:15:59Z</time>
      </trkpt>
      <trkpt lat="47.36733" lon="-1.06042">
        <ele>2</ele>
        <time>2019-06-01T11:16:05Z</time>
      </trkpt>
      <trkpt lat="47.36735" lon="-1.06071">
        <ele>2</ele>
        <time>2019-06-01T11:16:10Z</time>
      </trkpt>
      <trkpt lat="47.36738" lon="-1.061">
        <ele>2</ele>
        <time>2019-06-01T11:16:15Z</time>
      </trkpt>
      <trkpt lat="47.36741" lon="-1.06106">
        <ele>2</ele>
        <time>2019-06-01T11:16:16Z</time>
      </trkpt>
      <trkpt lat="47.36746" lon="-1.06138">
        <ele>2</ele>
        <time>2019-06-01T11:16:21Z</time>
      </trkpt>
      <trkpt lat="47.3675" lon="-1.06183">
        <ele>2</ele>
        <time>2019-06-01T11:16:28Z</time>
      </trkpt>
      <trkpt lat="47.36755" lon="-1.06227">
        <ele>2</ele>
        <time>2019-06-01T11:16:35Z</time>
      </trkpt>
      <trkpt lat="47.36757" lon="-1.06247">
        <ele>2</ele>
        <time>2019-06-01T11:16:38Z</time>
      </trkpt>
      <trkpt lat="47.36761" lon="-1.06265">
        <ele>2</ele>
        <time>2019-06-01T11:16:41Z</time>
      </trkpt>
      <trkpt lat="47.36768" lon="-1.06307">
        <ele>2</ele>
        <time>2019-06-01T11:16:48Z</time>
      </trkpt>
      <trkpt lat="47.36771" lon="-1.06331">
        <ele>2</ele>
        <time>2019-06-01T11:16:54Z</time>
      </trkpt>
      <trkpt lat="47.36774" lon="-1.06349">
        <ele>2</ele>
        <time>2019-06-01T11:17:02Z</time>
      </trkpt>
      <trkpt lat="47.36779" lon="-1.06369">
        <ele>2</ele>
        <time>2019-06-01T11:17:07Z</time>
      </trkpt>
      <trkpt lat="47.36793" lon="-1.0641">
        <ele>2</ele>
        <time>2019-06-01T11:17:14Z</time>
      </trkpt>
      <trkpt lat="47.368" lon="-1.06426">
        <ele>2</ele>
        <time>2019-06-01T11:17:17Z</time>
      </trkpt>
      <trkpt lat="47.36806" lon="-1.06433">
        <ele>2</ele>
        <time>2019-06-01T11:17:19Z</time>
      </trkpt>
      <trkpt lat="47.36813" lon="-1.06442">
        <ele>2</ele>
        <time>2019-06-01T11:17:22Z</time>
      </trkpt>
      <trkpt lat="47.36819" lon="-1.06448">
        <ele>2</ele>
        <time>2019-06-01T11:17:24Z</time>
      </trkpt>
      <trkpt lat="47.36829" lon="-1.06459">
        <ele>2</ele>
        <time>2019-06-01T11:17:27Z</time>
      </trkpt>
      <trkpt lat="47.36834" lon="-1.06469">
        <ele>2</ele>
        <time>2019-06-01T11:17:29Z</time>
      </trkpt>
      <trkpt lat="47.36841" lon="-1.06501">
        <ele>2</ele>
        <time>2019-06-01T11:17:35Z</time>
      </trkpt>
      <trkpt lat="47.36847" lon="-1.06546">
        <ele>2</ele>
        <time>2019-06-01T11:17:42Z</time>
      </trkpt>
      <trkpt lat="47.36849" lon="-1.06574">
        <ele>2</ele>
        <time>2019-06-01T11:17:48Z</time>
      </trkpt>
      <trkpt lat="47.36845" lon="-1.06658">
        <ele>2</ele>
        <time>2019-06-01T11:18:46Z</time>
      </trkpt>
      <trkpt lat="47.36844" lon="-1.06661">
        <ele>2</ele>
        <time>2019-06-01T11:18:47Z</time>
      </trkpt>
      <trkpt lat="47.36843" lon="-1.0667">
        <ele>2</ele>
        <time>2019-06-01T11:18:50Z</time>
      </trkpt>
      <trkpt lat="47.36847" lon="-1.06683">
        <ele>2</ele>
        <time>2019-06-01T11:18:52Z</time>
      </trkpt>
      <trkpt lat="47.36852" lon="-1.06708">
        <ele>2</ele>
        <time>2019-06-01T11:18:55Z</time>
      </trkpt>
      <trkpt lat="47.36856" lon="-1.06723">
        <ele>2</ele>
        <time>2019-06-01T11:18:57Z</time>
      </trkpt>
      <trkpt lat="47.36859" lon="-1.06731">
        <ele>2</ele>
        <time>2019-06-01T11:18:58Z</time>
      </trkpt>
      <trkpt lat="47.36868" lon="-1.0676">
        <ele>2</ele>
        <time>2019-06-01T11:19:02Z</time>
      </trkpt>
      <trkpt lat="47.3687" lon="-1.06781">
        <ele>2</ele>
        <time>2019-06-01T11:19:05Z</time>
      </trkpt>
      <trkpt lat="47.36869" lon="-1.06794">
        <ele>2</ele>
        <time>2019-06-01T11:19:07Z</time>
      </trkpt>
      <trkpt lat="47.36868" lon="-1.06837">
        <ele>2</ele>
        <time>2019-06-01T11:19:13Z</time>
      </trkpt>
      <trkpt lat="47.36869" lon="-1.06844">
        <ele>2</ele>
        <time>2019-06-01T11:19:14Z</time>
      </trkpt>
      <trkpt lat="47.36869" lon="-1.06882">
        <ele>2</ele>
        <time>2019-06-01T11:19:20Z</time>
      </trkpt>
      <trkpt lat="47.36867" lon="-1.06898">
        <ele>2</ele>
        <time>2019-06-01T11:19:38Z</time>
      </trkpt>
      <trkpt lat="47.36867" lon="-1.06908">
        <ele>2</ele>
        <time>2019-06-01T11:19:41Z</time>
      </trkpt>
      <trkpt lat="47.36867" lon="-1.06934">
        <ele>2</ele>
        <time>2019-06-01T11:19:46Z</time>
      </trkpt>
      <trkpt lat="47.36869" lon="-1.06978">
        <ele>2</ele>
        <time>2019-06-01T11:19:53Z</time>
      </trkpt>
      <trkpt lat="47.36868" lon="-1.06984">
        <ele>2</ele>
        <time>2019-06-01T11:19:54Z</time>
      </trkpt>
      <trkpt lat="47.3687" lon="-1.07005">
        <ele>2</ele>
        <time>2019-06-01T11:19:58Z</time>
      </trkpt>
      <trkpt lat="47.36871" lon="-1.07025">
        <ele>2</ele>
        <time>2019-06-01T11:20:01Z</time>
      </trkpt>
      <trkpt lat="47.36871" lon="-1.07039">
        <ele>2</ele>
        <time>2019-06-01T11:20:03Z</time>
      </trkpt>
      <trkpt lat="47.3687" lon="-1.07045">
        <ele>2</ele>
        <time>2019-06-01T11:20:04Z</time>
      </trkpt>
      <trkpt lat="47.36868" lon="-1.07066">
        <ele>2</ele>
        <time>2019-06-01T11:20:07Z</time>
      </trkpt>
      <trkpt lat="47.36867" lon="-1.07073">
        <ele>2</ele>
        <time>2019-06-01T11:20:08Z</time>
      </trkpt>
      <trkpt lat="47.36867" lon="-1.07085">
        <ele>2</ele>
        <time>2019-06-01T11:20:10Z</time>
      </trkpt>
      <trkpt lat="47.36869" lon="-1.07105">
        <ele>2</ele>
        <time>2019-06-01T11:20:13Z</time>
      </trkpt>
      <trkpt lat="47.36871" lon="-1.07152">
        <ele>2</ele>
        <time>2019-06-01T11:20:20Z</time>
      </trkpt>
      <trkpt lat="47.36873" lon="-1.07178">
        <ele>2</ele>
        <time>2019-06-01T11:20:24Z</time>
      </trkpt>
      <trkpt lat="47.36872" lon="-1.0719">
        <ele>2</ele>
        <time>2019-06-01T11:20:26Z</time>
      </trkpt>
      <trkpt lat="47.36872" lon="-1.07217">
        <ele>2</ele>
        <time>2019-06-01T11:20:30Z</time>
      </trkpt>
      <trkpt lat="47.36871" lon="-1.0723">
        <ele>2</ele>
        <time>2019-06-01T11:20:32Z</time>
      </trkpt>
      <trkpt lat="47.36871" lon="-1.07248">
        <ele>2</ele>
        <time>2019-06-01T11:20:36Z</time>
      </trkpt>
      <trkpt lat="47.3687" lon="-1.07282">
        <ele>2</ele>
        <time>2019-06-01T11:20:43Z</time>
      </trkpt>
      <trkpt lat="47.3687" lon="-1.07315">
        <ele>2</ele>
        <time>2019-06-01T11:20:48Z</time>
      </trkpt>
      <trkpt lat="47.36869" lon="-1.07361">
        <ele>2</ele>
        <time>2019-06-01T11:20:55Z</time>
      </trkpt>
      <trkpt lat="47.36869" lon="-1.07413">
        <ele>2</ele>
        <time>2019-06-01T11:21:03Z</time>
      </trkpt>
      <trkpt lat="47.3687" lon="-1.0745">
        <ele>2</ele>
        <time>2019-06-01T11:21:09Z</time>
      </trkpt>
      <trkpt lat="47.3687" lon="-1.07457">
        <ele>2</ele>
        <time>2019-06-01T11:21:10Z</time>
      </trkpt>
      <trkpt lat="47.36868" lon="-1.07471">
        <ele>2</ele>
        <time>2019-06-01T11:21:12Z</time>
      </trkpt>
      <trkpt lat="47.36868" lon="-1.07484">
        <ele>2</ele>
        <time>2019-06-01T11:21:14Z</time>
      </trkpt>
      <trkpt lat="47.36865" lon="-1.07524">
        <ele>2</ele>
        <time>2019-06-01T11:21:20Z</time>
      </trkpt>
      <trkpt lat="47.36865" lon="-1.07559">
        <ele>2</ele>
        <time>2019-06-01T11:21:25Z</time>
      </trkpt>
      <trkpt lat="47.36863" lon="-1.07605">
        <ele>2</ele>
        <time>2019-06-01T11:21:32Z</time>
      </trkpt>
      <trkpt lat="47.36864" lon="-1.0763">
        <ele>2</ele>
        <time>2019-06-01T11:21:37Z</time>
      </trkpt>
      <trkpt lat="47.3686" lon="-1.07649">
        <ele>1</ele>
        <time>2019-06-01T11:21:42Z</time>
      </trkpt>
      <trkpt lat="47.36849" lon="-1.07658">
        <ele>2</ele>
        <time>2019-06-01T11:24:07Z</time>
      </trkpt>
      <trkpt lat="47.36837" lon="-1.07647">
        <ele>2</ele>
        <time>2019-06-01T11:24:12Z</time>
      </trkpt>
      <trkpt lat="47.36823" lon="-1.07644">
        <ele>2</ele>
        <time>2019-06-01T11:24:16Z</time>
      </trkpt>
      <trkpt lat="47.36816" lon="-1.07642">
        <ele>1</ele>
        <time>2019-06-01T11:24:18Z</time>
      </trkpt>
      <trkpt lat="47.36799" lon="-1.07639">
        <ele>1</ele>
        <time>2019-06-01T11:24:24Z</time>
      </trkpt>
      <trkpt lat="47.36796" lon="-1.07638">
        <ele>1</ele>
        <time>2019-06-01T11:24:45Z</time>
      </trkpt>
      <trkpt lat="47.36795" lon="-1.07635">
        <ele>1</ele>
        <time>2019-06-01T11:24:46Z</time>
      </trkpt>
      <trkpt lat="47.36784" lon="-1.07615">
        <ele>1</ele>
        <time>2019-06-01T11:24:51Z</time>
      </trkpt>
      <trkpt lat="47.36763" lon="-1.07569">
        <ele>1</ele>
        <time>2019-06-01T11:24:59Z</time>
      </trkpt>
      <trkpt lat="47.36751" lon="-1.07538">
        <ele>1</ele>
        <time>2019-06-01T11:25:04Z</time>
      </trkpt>
      <trkpt lat="47.36744" lon="-1.07523">
        <ele>1</ele>
        <time>2019-06-01T11:25:07Z</time>
      </trkpt>
      <trkpt lat="47.36726" lon="-1.07472">
        <ele>1</ele>
        <time>2019-06-01T11:25:15Z</time>
      </trkpt>
      <trkpt lat="47.36713" lon="-1.07429">
        <ele>1</ele>
        <time>2019-06-01T11:25:21Z</time>
      </trkpt>
      <trkpt lat="47.3671" lon="-1.07424">
        <ele>1</ele>
        <time>2019-06-01T11:25:22Z</time>
      </trkpt>
      <trkpt lat="47.36694" lon="-1.0741">
        <ele>1</ele>
        <time>2019-06-01T11:25:26Z</time>
      </trkpt>
      <trkpt lat="47.36685" lon="-1.07407">
        <ele>1</ele>
        <time>2019-06-01T11:25:28Z</time>
      </trkpt>
      <trkpt lat="47.3666" lon="-1.07399">
        <ele>1</ele>
        <time>2019-06-01T11:25:33Z</time>
      </trkpt>
      <trkpt lat="47.36634" lon="-1.07389">
        <ele>1</ele>
        <time>2019-06-01T11:25:38Z</time>
      </trkpt>
      <trkpt lat="47.36599" lon="-1.07368">
        <ele>1</ele>
        <time>2019-06-01T11:25:45Z</time>
      </trkpt>
      <trkpt lat="47.36567" lon="-1.07345">
        <ele>1</ele>
        <time>2019-06-01T11:25:51Z</time>
      </trkpt>
      <trkpt lat="47.36529" lon="-1.07326">
        <ele>1</ele>
        <time>2019-06-01T11:25:58Z</time>
      </trkpt>
      <trkpt lat="47.36479" lon="-1.07307">
        <ele>1</ele>
        <time>2019-06-01T11:26:07Z</time>
      </trkpt>
      <trkpt lat="47.36473" lon="-1.07305">
        <ele>1</ele>
        <time>2019-06-01T11:26:08Z</time>
      </trkpt>
      <trkpt lat="47.36431" lon="-1.07288">
        <ele>1</ele>
        <time>2019-06-01T11:26:16Z</time>
      </trkpt>
      <trkpt lat="47.36388" lon="-1.07275">
        <ele>1</ele>
        <time>2019-06-01T11:26:25Z</time>
      </trkpt>
      <trkpt lat="47.36378" lon="-1.07274">
        <ele>1</ele>
        <time>2019-06-01T11:26:27Z</time>
      </trkpt>
      <trkpt lat="47.36363" lon="-1.07281">
        <ele>1</ele>
        <time>2019-06-01T11:26:30Z</time>
      </trkpt>
      <trkpt lat="47.36359" lon="-1.07284">
        <ele>1</ele>
        <time>2019-06-01T11:26:31Z</time>
      </trkpt>
      <trkpt lat="47.36354" lon="-1.07289">
        <ele>1</ele>
        <time>2019-06-01T11:26:32Z</time>
      </trkpt>
      <trkpt lat="47.36342" lon="-1.07307">
        <ele>1</ele>
        <time>2019-06-01T11:26:35Z</time>
      </trkpt>
      <trkpt lat="47.36318" lon="-1.07354">
        <ele>1</ele>
        <time>2019-06-01T11:26:42Z</time>
      </trkpt>
      <trkpt lat="47.36295" lon="-1.07412">
        <ele>1</ele>
        <time>2019-06-01T11:26:51Z</time>
      </trkpt>
      <trkpt lat="47.36287" lon="-1.07448">
        <ele>2</ele>
        <time>2019-06-01T11:26:56Z</time>
      </trkpt>
      <trkpt lat="47.36286" lon="-1.07456">
        <ele>2</ele>
        <time>2019-06-01T11:26:57Z</time>
      </trkpt>
      <trkpt lat="47.36278" lon="-1.07511">
        <ele>2</ele>
        <time>2019-06-01T11:27:04Z</time>
      </trkpt>
      <trkpt lat="47.36267" lon="-1.0758">
        <ele>2</ele>
        <time>2019-06-01T11:27:13Z</time>
      </trkpt>
      <trkpt lat="47.36258" lon="-1.07634">
        <ele>1</ele>
        <time>2019-06-01T11:27:19Z</time>
      </trkpt>
      <trkpt lat="47.36257" lon="-1.07684">
        <ele>1</ele>
        <time>2019-06-01T11:27:25Z</time>
      </trkpt>
      <trkpt lat="47.36259" lon="-1.07743">
        <ele>2</ele>
        <time>2019-06-01T11:27:32Z</time>
      </trkpt>
      <trkpt lat="47.36262" lon="-1.07804">
        <ele>2</ele>
        <time>2019-06-01T11:27:39Z</time>
      </trkpt>
      <trkpt lat="47.36275" lon="-1.07843">
        <ele>2</ele>
        <time>2019-06-01T11:27:44Z</time>
      </trkpt>
      <trkpt lat="47.36284" lon="-1.07865">
        <ele>2</ele>
        <time>2019-06-01T11:27:47Z</time>
      </trkpt>
      <trkpt lat="47.3629" lon="-1.0789">
        <ele>2</ele>
        <time>2019-06-01T11:27:50Z</time>
      </trkpt>
      <trkpt lat="47.36299" lon="-1.0795">
        <ele>2</ele>
        <time>2019-06-01T11:27:57Z</time>
      </trkpt>
      <trkpt lat="47.36305" lon="-1.08004">
        <ele>2</ele>
        <time>2019-06-01T11:28:04Z</time>
      </trkpt>
      <trkpt lat="47.36304" lon="-1.08063">
        <ele>1</ele>
        <time>2019-06-01T11:28:12Z</time>
      </trkpt>
      <trkpt lat="47.36301" lon="-1.08085">
        <ele>1</ele>
        <time>2019-06-01T11:28:15Z</time>
      </trkpt>
      <trkpt lat="47.36294" lon="-1.08097">
        <ele>1</ele>
        <time>2019-06-01T11:28:17Z</time>
      </trkpt>
      <trkpt lat="47.3628" lon="-1.0811">
        <ele>1</ele>
        <time>2019-06-01T11:28:20Z</time>
      </trkpt>
      <trkpt lat="47.36275" lon="-1.08114">
        <ele>1</ele>
        <time>2019-06-01T11:28:21Z</time>
      </trkpt>
      <trkpt lat="47.3623" lon="-1.08145">
        <ele>1</ele>
        <time>2019-06-01T11:28:30Z</time>
      </trkpt>
      <trkpt lat="47.36208" lon="-1.08151">
        <ele>1</ele>
        <time>2019-06-01T11:28:34Z</time>
      </trkpt>
      <trkpt lat="47.36197" lon="-1.08153">
        <ele>1</ele>
        <time>2019-06-01T11:28:36Z</time>
      </trkpt>
      <trkpt lat="47.3615" lon="-1.08162">
        <ele>2</ele>
        <time>2019-06-01T11:28:44Z</time>
      </trkpt>
      <trkpt lat="47.36091" lon="-1.08166">
        <ele>1</ele>
        <time>2019-06-01T11:28:54Z</time>
      </trkpt>
      <trkpt lat="47.36046" lon="-1.08171">
        <ele>1</ele>
        <time>2019-06-01T11:29:03Z</time>
      </trkpt>
      <trkpt lat="47.3603" lon="-1.0817">
        <ele>1</ele>
        <time>2019-06-01T11:29:06Z</time>
      </trkpt>
      <trkpt lat="47.36016" lon="-1.08164">
        <ele>1</ele>
        <time>2019-06-01T11:29:09Z</time>
      </trkpt>
      <trkpt lat="47.35997" lon="-1.08141">
        <ele>1</ele>
        <time>2019-06-01T11:29:14Z</time>
      </trkpt>
      <trkpt lat="47.35994" lon="-1.08137">
        <ele>1</ele>
        <time>2019-06-01T11:29:15Z</time>
      </trkpt>
      <trkpt lat="47.35982" lon="-1.08116">
        <ele>1</ele>
        <time>2019-06-01T11:29:20Z</time>
      </trkpt>
      <trkpt lat="47.35965" lon="-1.08091">
        <ele>1</ele>
        <time>2019-06-01T11:29:27Z</time>
      </trkpt>
      <trkpt lat="47.3595" lon="-1.0807">
        <ele>2</ele>
        <time>2019-06-01T11:29:35Z</time>
      </trkpt>
      <trkpt lat="47.35947" lon="-1.08065">
        <ele>3</ele>
        <time>2019-06-01T11:29:37Z</time>
      </trkpt>
      <trkpt lat="47.35941" lon="-1.08057">
        <ele>3</ele>
        <time>2019-06-01T11:29:41Z</time>
      </trkpt>
      <trkpt lat="47.35928" lon="-1.08042">
        <ele>3</ele>
        <time>2019-06-01T11:29:47Z</time>
      </trkpt>
      <trkpt lat="47.35921" lon="-1.08037">
        <ele>3</ele>
        <time>2019-06-01T11:29:50Z</time>
      </trkpt>
      <trkpt lat="47.35917" lon="-1.0804">
        <ele>3</ele>
        <time>2019-06-01T11:29:52Z</time>
      </trkpt>
      <trkpt lat="47.35912" lon="-1.0805">
        <ele>3</ele>
        <time>2019-06-01T11:29:55Z</time>
      </trkpt>
      <trkpt lat="47.35909" lon="-1.08058">
        <ele>3</ele>
        <time>2019-06-01T11:29:57Z</time>
      </trkpt>
      <trkpt lat="47.35902" lon="-1.0809">
        <ele>3</ele>
        <time>2019-06-01T11:30:03Z</time>
      </trkpt>
      <trkpt lat="47.35891" lon="-1.08147">
        <ele>2</ele>
        <time>2019-06-01T11:30:12Z</time>
      </trkpt>
      <trkpt lat="47.35891" lon="-1.08154">
        <ele>2</ele>
        <time>2019-06-01T11:30:13Z</time>
      </trkpt>
      <trkpt lat="47.35896" lon="-1.0817">
        <ele>2</ele>
        <time>2019-06-01T11:30:16Z</time>
      </trkpt>
      <trkpt lat="47.35904" lon="-1.08186">
        <ele>2</ele>
        <time>2019-06-01T11:30:19Z</time>
      </trkpt>
      <trkpt lat="47.35912" lon="-1.08205">
        <ele>2</ele>
        <time>2019-06-01T11:30:22Z</time>
      </trkpt>
      <trkpt lat="47.35933" lon="-1.08256">
        <ele>2</ele>
        <time>2019-06-01T11:30:30Z</time>
      </trkpt>
      <trkpt lat="47.35938" lon="-1.0827">
        <ele>2</ele>
        <time>2019-06-01T11:30:32Z</time>
      </trkpt>
      <trkpt lat="47.35943" lon="-1.083">
        <ele>2</ele>
        <time>2019-06-01T11:30:36Z</time>
      </trkpt>
      <trkpt lat="47.3595" lon="-1.08365">
        <ele>2</ele>
        <time>2019-06-01T11:30:44Z</time>
      </trkpt>
      <trkpt lat="47.35956" lon="-1.08427">
        <ele>2</ele>
        <time>2019-06-01T11:30:52Z</time>
      </trkpt>
      <trkpt lat="47.35964" lon="-1.08453">
        <ele>2</ele>
        <time>2019-06-01T11:30:56Z</time>
      </trkpt>
      <trkpt lat="47.35971" lon="-1.08464">
        <ele>2</ele>
        <time>2019-06-01T11:30:58Z</time>
      </trkpt>
      <trkpt lat="47.35979" lon="-1.08473">
        <ele>2</ele>
        <time>2019-06-01T11:31:00Z</time>
      </trkpt>
      <trkpt lat="47.35996" lon="-1.08492">
        <ele>2</ele>
        <time>2019-06-01T11:31:04Z</time>
      </trkpt>
      <trkpt lat="47.36031" lon="-1.0853">
        <ele>2</ele>
        <time>2019-06-01T11:31:12Z</time>
      </trkpt>
      <trkpt lat="47.36062" lon="-1.08564">
        <ele>2</ele>
        <time>2019-06-01T11:31:20Z</time>
      </trkpt>
      <trkpt lat="47.36064" lon="-1.08569">
        <ele>2</ele>
        <time>2019-06-01T11:31:21Z</time>
      </trkpt>
      <trkpt lat="47.36069" lon="-1.08587">
        <ele>2</ele>
        <time>2019-06-01T11:31:24Z</time>
      </trkpt>
      <trkpt lat="47.36069" lon="-1.08593">
        <ele>2</ele>
        <time>2019-06-01T11:31:25Z</time>
      </trkpt>
      <trkpt lat="47.36078" lon="-1.08636">
        <ele>2</ele>
        <time>2019-06-01T11:31:31Z</time>
      </trkpt>
      <trkpt lat="47.36095" lon="-1.087">
        <ele>2</ele>
        <time>2019-06-01T11:31:39Z</time>
      </trkpt>
      <trkpt lat="47.36111" lon="-1.08772">
        <ele>2</ele>
        <time>2019-06-01T11:31:48Z</time>
      </trkpt>
      <trkpt lat="47.36121" lon="-1.08821">
        <ele>2</ele>
        <time>2019-06-01T11:31:55Z</time>
      </trkpt>
      <trkpt lat="47.3613" lon="-1.08861">
        <ele>2</ele>
        <time>2019-06-01T11:32:02Z</time>
      </trkpt>
      <trkpt lat="47.36133" lon="-1.08872">
        <ele>2</ele>
        <time>2019-06-01T11:32:04Z</time>
      </trkpt>
      <trkpt lat="47.3613" lon="-1.08883">
        <ele>1</ele>
        <time>2019-06-01T11:32:07Z</time>
      </trkpt>
      <trkpt lat="47.36123" lon="-1.08883">
        <ele>1</ele>
        <time>2019-06-01T11:32:10Z</time>
      </trkpt>
      <trkpt lat="47.36118" lon="-1.08879">
        <ele>1</ele>
        <time>2019-06-01T11:32:12Z</time>
      </trkpt>
      <trkpt lat="47.36112" lon="-1.08871">
        <ele>2</ele>
        <time>2019-06-01T11:32:16Z</time>
      </trkpt>
      <trkpt lat="47.36098" lon="-1.08854">
        <ele>2</ele>
        <time>2019-06-01T11:32:21Z</time>
      </trkpt>
      <trkpt lat="47.36084" lon="-1.08837">
        <ele>2</ele>
        <time>2019-06-01T11:32:25Z</time>
      </trkpt>
      <trkpt lat="47.36081" lon="-1.08834">
        <ele>1</ele>
        <time>2019-06-01T11:32:26Z</time>
      </trkpt>
      <trkpt lat="47.36067" lon="-1.08825">
        <ele>1</ele>
        <time>2019-06-01T11:32:31Z</time>
      </trkpt>
      <trkpt lat="47.36063" lon="-1.08824">
        <ele>1</ele>
        <time>2019-06-01T11:32:32Z</time>
      </trkpt>
      <trkpt lat="47.36045" lon="-1.08823">
        <ele>8.9</ele>
        <time>2019-06-01T11:32:36Z</time>
      </trkpt>
      <trkpt lat="47.36029" lon="-1.08823">
        <ele>9.3</ele>
        <time>2019-06-01T11:32:41Z</time>
      </trkpt>
      <trkpt lat="47.36017" lon="-1.08816">
        <ele>2</ele>
        <time>2019-06-01T11:32:46Z</time>
      </trkpt>
      <trkpt lat="47.36014" lon="-1.08815">
        <ele>2</ele>
        <time>2019-06-01T11:32:47Z</time>
      </trkpt>
      <trkpt lat="47.36" lon="-1.08805">
        <ele>2</ele>
        <time>2019-06-01T11:32:52Z</time>
      </trkpt>
      <trkpt lat="47.35983" lon="-1.08795">
        <ele>2</ele>
        <time>2019-06-01T11:32:57Z</time>
      </trkpt>
      <trkpt lat="47.35981" lon="-1.08795">
        <ele>2</ele>
        <time>2019-06-01T11:32:58Z</time>
      </trkpt>
      <trkpt lat="47.35982" lon="-1.0879">
        <ele>2</ele>
        <time>2019-06-01T11:33:09Z</time>
      </trkpt>
      <trkpt lat="47.35984" lon="-1.08791">
        <ele>2</ele>
        <time>2019-06-01T11:33:10Z</time>
      </trkpt>
      <trkpt lat="47.35995" lon="-1.08801">
        <ele>1</ele>
        <time>2019-06-01T11:33:15Z</time>
      </trkpt>
      <trkpt lat="47.36017" lon="-1.08816">
        <ele>2</ele>
        <time>2019-06-01T11:33:23Z</time>
      </trkpt>
      <trkpt lat="47.36037" lon="-1.0882">
        <ele>2</ele>
        <time>2019-06-01T11:33:28Z</time>
      </trkpt>
      <trkpt lat="47.36059" lon="-1.08821">
        <ele>8.6</ele>
        <time>2019-06-01T11:33:32Z</time>
      </trkpt>
      <trkpt lat="47.36063" lon="-1.08823">
        <ele>8.7</ele>
        <time>2019-06-01T11:33:33Z</time>
      </trkpt>
      <trkpt lat="47.36068" lon="-1.08828">
        <ele>8.9</ele>
        <time>2019-06-01T11:33:35Z</time>
      </trkpt>
      <trkpt lat="47.3607" lon="-1.08838">
        <ele>9.1</ele>
        <time>2019-06-01T11:33:37Z</time>
      </trkpt>
      <trkpt lat="47.36068" lon="-1.0888">
        <ele>9.5</ele>
        <time>2019-06-01T11:33:44Z</time>
      </trkpt>
      <trkpt lat="47.36059" lon="-1.08931">
        <ele>9.1</ele>
        <time>2019-06-01T11:33:51Z</time>
      </trkpt>
      <trkpt lat="47.3605" lon="-1.08968">
        <ele>9.9</ele>
        <time>2019-06-01T11:33:57Z</time>
      </trkpt>
      <trkpt lat="47.36047" lon="-1.09019">
        <ele>10</ele>
        <time>2019-06-01T11:34:04Z</time>
      </trkpt>
      <trkpt lat="47.3604" lon="-1.09081">
        <ele>9.9</ele>
        <time>2019-06-01T11:34:12Z</time>
      </trkpt>
      <trkpt lat="47.36033" lon="-1.09132">
        <ele>1</ele>
        <time>2019-06-01T11:34:19Z</time>
      </trkpt>
      <trkpt lat="47.36027" lon="-1.09172">
        <ele>1</ele>
        <time>2019-06-01T11:34:25Z</time>
      </trkpt>
      <trkpt lat="47.36026" lon="-1.09179">
        <ele>1</ele>
        <time>2019-06-01T11:34:26Z</time>
      </trkpt>
      <trkpt lat="47.36026" lon="-1.09194">
        <ele>1</ele>
        <time>2019-06-01T11:34:28Z</time>
      </trkpt>
      <trkpt lat="47.36026" lon="-1.0922">
        <ele>1</ele>
        <time>2019-06-01T11:34:31Z</time>
      </trkpt>
      <trkpt lat="47.36029" lon="-1.09259">
        <ele>1</ele>
        <time>2019-06-01T11:34:36Z</time>
      </trkpt>
      <trkpt lat="47.3603" lon="-1.09284">
        <ele>1</ele>
        <time>2019-06-01T11:34:39Z</time>
      </trkpt>
      <trkpt lat="47.3603" lon="-1.09338">
        <ele>1</ele>
        <time>2019-06-01T11:34:46Z</time>
      </trkpt>
      <trkpt lat="47.36031" lon="-1.09403">
        <ele>1</ele>
        <time>2019-06-01T11:34:55Z</time>
      </trkpt>
      <trkpt lat="47.36026" lon="-1.09465">
        <ele>1</ele>
        <time>2019-06-01T11:35:03Z</time>
      </trkpt>
      <trkpt lat="47.36017" lon="-1.09518">
        <ele>1</ele>
        <time>2019-06-01T11:35:10Z</time>
      </trkpt>
      <trkpt lat="47.36015" lon="-1.09525">
        <ele>1</ele>
        <time>2019-06-01T11:35:11Z</time>
      </trkpt>
      <trkpt lat="47.36013" lon="-1.09574">
        <ele>1</ele>
        <time>2019-06-01T11:35:17Z</time>
      </trkpt>
      <trkpt lat="47.36014" lon="-1.09597">
        <ele>1</ele>
        <time>2019-06-01T11:35:20Z</time>
      </trkpt>
      <trkpt lat="47.36015" lon="-1.09613">
        <ele>1</ele>
        <time>2019-06-01T11:35:22Z</time>
      </trkpt>
      <trkpt lat="47.36018" lon="-1.09679">
        <ele>1</ele>
        <time>2019-06-01T11:35:30Z</time>
      </trkpt>
      <trkpt lat="47.36026" lon="-1.09747">
        <ele>1</ele>
        <time>2019-06-01T11:35:38Z</time>
      </trkpt>
      <trkpt lat="47.36034" lon="-1.09775">
        <ele>1</ele>
        <time>2019-06-01T11:35:42Z</time>
      </trkpt>
      <trkpt lat="47.36037" lon="-1.0978">
        <ele>1</ele>
        <time>2019-06-01T11:35:43Z</time>
      </trkpt>
      <trkpt lat="47.36045" lon="-1.09798">
        <ele>1</ele>
        <time>2019-06-01T11:35:46Z</time>
      </trkpt>
      <trkpt lat="47.36047" lon="-1.09813">
        <ele>1</ele>
        <time>2019-06-01T11:35:48Z</time>
      </trkpt>
      <trkpt lat="47.36054" lon="-1.09869">
        <ele>1</ele>
        <time>2019-06-01T11:35:55Z</time>
      </trkpt>
      <trkpt lat="47.36061" lon="-1.0993">
        <ele>1</ele>
        <time>2019-06-01T11:36:03Z</time>
      </trkpt>
      <trkpt lat="47.3607" lon="-1.09995">
        <ele>1</ele>
        <time>2019-06-01T11:36:12Z</time>
      </trkpt>
      <trkpt lat="47.36075" lon="-1.10043">
        <ele>1</ele>
        <time>2019-06-01T11:36:19Z</time>
      </trkpt>
      <trkpt lat="47.36082" lon="-1.10114">
        <ele>1</ele>
        <time>2019-06-01T11:36:29Z</time>
      </trkpt>
      <trkpt lat="47.36083" lon="-1.10129">
        <ele>1</ele>
        <time>2019-06-01T11:36:31Z</time>
      </trkpt>
      <trkpt lat="47.36081" lon="-1.10157">
        <ele>1</ele>
        <time>2019-06-01T11:36:35Z</time>
      </trkpt>
      <trkpt lat="47.3608" lon="-1.10172">
        <ele>1</ele>
        <time>2019-06-01T11:36:37Z</time>
      </trkpt>
      <trkpt lat="47.36081" lon="-1.102">
        <ele>1</ele>
        <time>2019-06-01T11:36:41Z</time>
      </trkpt>
      <trkpt lat="47.3608" lon="-1.10239">
        <ele>1</ele>
        <time>2019-06-01T11:36:48Z</time>
      </trkpt>
      <trkpt lat="47.36073" lon="-1.10252">
        <ele>9</ele>
        <time>2019-06-01T11:36:53Z</time>
      </trkpt>
      <trkpt lat="47.36057" lon="-1.10258">
        <ele>9</ele>
        <time>2019-06-01T11:36:57Z</time>
      </trkpt>
      <trkpt lat="47.36019" lon="-1.10272">
        <ele>1</ele>
        <time>2019-06-01T11:37:05Z</time>
      </trkpt>
      <trkpt lat="47.36006" lon="-1.10276">
        <ele>1</ele>
        <time>2019-06-01T11:37:08Z</time>
      </trkpt>
      <trkpt lat="47.36003" lon="-1.10286">
        <ele>1</ele>
        <time>2019-06-01T11:37:10Z</time>
      </trkpt>
      <trkpt lat="47.36005" lon="-1.10303">
        <ele>1</ele>
        <time>2019-06-01T11:37:14Z</time>
      </trkpt>
      <trkpt lat="47.3601" lon="-1.10315">
        <ele>1</ele>
        <time>2019-06-01T11:37:17Z</time>
      </trkpt>
      <trkpt lat="47.36013" lon="-1.10327">
        <ele>1</ele>
        <time>2019-06-01T11:37:19Z</time>
      </trkpt>
      <trkpt lat="47.36024" lon="-1.1038">
        <ele>1</ele>
        <time>2019-06-01T11:37:27Z</time>
      </trkpt>
      <trkpt lat="47.36035" lon="-1.10427">
        <ele>9</ele>
        <time>2019-06-01T11:37:34Z</time>
      </trkpt>
      <trkpt lat="47.3604" lon="-1.10433">
        <ele>9</ele>
        <time>2019-06-01T11:37:35Z</time>
      </trkpt>
      <trkpt lat="47.36052" lon="-1.10447">
        <ele>9</ele>
        <time>2019-06-01T11:37:38Z</time>
      </trkpt>
      <trkpt lat="47.36058" lon="-1.10456">
        <ele>9</ele>
        <time>2019-06-01T11:37:39Z</time>
      </trkpt>
      <trkpt lat="47.36067" lon="-1.10483">
        <ele>1</ele>
        <time>2019-06-01T11:37:42Z</time>
      </trkpt>
      <trkpt lat="47.36073" lon="-1.10532">
        <ele>1</ele>
        <time>2019-06-01T11:37:48Z</time>
      </trkpt>
      <trkpt lat="47.36081" lon="-1.10592">
        <ele>1</ele>
        <time>2019-06-01T11:37:55Z</time>
      </trkpt>
      <trkpt lat="47.36086" lon="-1.10644">
        <ele>8.3</ele>
        <time>2019-06-01T11:38:01Z</time>
      </trkpt>
      <trkpt lat="47.36088" lon="-1.10654">
        <ele>8.6</ele>
        <time>2019-06-01T11:38:02Z</time>
      </trkpt>
      <trkpt lat="47.36094" lon="-1.10709">
        <ele>9</ele>
        <time>2019-06-01T11:38:08Z</time>
      </trkpt>
      <trkpt lat="47.36101" lon="-1.1076">
        <ele>9</ele>
        <time>2019-06-01T11:38:14Z</time>
      </trkpt>
      <trkpt lat="47.36113" lon="-1.10823">
        <ele>8.7</ele>
        <time>2019-06-01T11:38:21Z</time>
      </trkpt>
      <trkpt lat="47.36128" lon="-1.1089">
        <ele>9</ele>
        <time>2019-06-01T11:38:28Z</time>
      </trkpt>
      <trkpt lat="47.3614" lon="-1.1095">
        <ele>9</ele>
        <time>2019-06-01T11:38:34Z</time>
      </trkpt>
      <trkpt lat="47.36147" lon="-1.11016">
        <ele>9</ele>
        <time>2019-06-01T11:38:41Z</time>
      </trkpt>
      <trkpt lat="47.36148" lon="-1.11084">
        <ele>9</ele>
        <time>2019-06-01T11:38:48Z</time>
      </trkpt>
      <trkpt lat="47.36149" lon="-1.11161">
        <ele>9</ele>
        <time>2019-06-01T11:38:56Z</time>
      </trkpt>
      <trkpt lat="47.36148" lon="-1.11226">
        <ele>9</ele>
        <time>2019-06-01T11:39:03Z</time>
      </trkpt>
      <trkpt lat="47.36148" lon="-1.1129">
        <ele>9</ele>
        <time>2019-06-01T11:39:11Z</time>
      </trkpt>
      <trkpt lat="47.36147" lon="-1.11348">
        <ele>9</ele>
        <time>2019-06-01T11:39:18Z</time>
      </trkpt>
      <trkpt lat="47.36147" lon="-1.11413">
        <ele>9</ele>
        <time>2019-06-01T11:39:25Z</time>
      </trkpt>
      <trkpt lat="47.36147" lon="-1.11471">
        <ele>9</ele>
        <time>2019-06-01T11:39:32Z</time>
      </trkpt>
      <trkpt lat="47.36142" lon="-1.11523">
        <ele>1</ele>
        <time>2019-06-01T11:39:38Z</time>
      </trkpt>
      <trkpt lat="47.3613" lon="-1.11579">
        <ele>1</ele>
        <time>2019-06-01T11:39:45Z</time>
      </trkpt>
      <trkpt lat="47.36112" lon="-1.11646">
        <ele>1</ele>
        <time>2019-06-01T11:39:53Z</time>
      </trkpt>
      <trkpt lat="47.36099" lon="-1.11691">
        <ele>1</ele>
        <time>2019-06-01T11:39:59Z</time>
      </trkpt>
      <trkpt lat="47.36091" lon="-1.11742">
        <ele>8.1</ele>
        <time>2019-06-01T11:40:05Z</time>
      </trkpt>
      <trkpt lat="47.36081" lon="-1.11787">
        <ele>8.9</ele>
        <time>2019-06-01T11:40:12Z</time>
      </trkpt>
      <trkpt lat="47.36079" lon="-1.11802">
        <ele>8.8</ele>
        <time>2019-06-01T11:40:14Z</time>
      </trkpt>
      <trkpt lat="47.36077" lon="-1.1182">
        <ele>8.9</ele>
        <time>2019-06-01T11:40:17Z</time>
      </trkpt>
      <trkpt lat="47.3607" lon="-1.11833">
        <ele>9</ele>
        <time>2019-06-01T11:40:20Z</time>
      </trkpt>
      <trkpt lat="47.36066" lon="-1.11836">
        <ele>1</ele>
        <time>2019-06-01T11:40:21Z</time>
      </trkpt>
      <trkpt lat="47.36052" lon="-1.11841">
        <ele>1</ele>
        <time>2019-06-01T11:40:24Z</time>
      </trkpt>
      <trkpt lat="47.36046" lon="-1.11841">
        <ele>1</ele>
        <time>2019-06-01T11:40:25Z</time>
      </trkpt>
      <trkpt lat="47.36014" lon="-1.11845">
        <ele>1</ele>
        <time>2019-06-01T11:40:31Z</time>
      </trkpt>
      <trkpt lat="47.35985" lon="-1.11846">
        <ele>1</ele>
        <time>2019-06-01T11:40:36Z</time>
      </trkpt>
      <trkpt lat="47.35967" lon="-1.11846">
        <ele>1</ele>
        <time>2019-06-01T11:40:39Z</time>
      </trkpt>
      <trkpt lat="47.35912" lon="-1.11845">
        <ele>1</ele>
        <time>2019-06-01T11:40:48Z</time>
      </trkpt>
      <trkpt lat="47.35864" lon="-1.11843">
        <ele>2</ele>
        <time>2019-06-01T11:40:56Z</time>
      </trkpt>
      <trkpt lat="47.35819" lon="-1.11839">
        <ele>2</ele>
        <time>2019-06-01T11:41:04Z</time>
      </trkpt>
      <trkpt lat="47.35805" lon="-1.11837">
        <ele>2</ele>
        <time>2019-06-01T11:41:07Z</time>
      </trkpt>
      <trkpt lat="47.35802" lon="-1.11841">
        <ele>2</ele>
        <time>2019-06-01T11:41:08Z</time>
      </trkpt>
      <trkpt lat="47.35797" lon="-1.1186">
        <ele>2</ele>
        <time>2019-06-01T11:41:11Z</time>
      </trkpt>
      <trkpt lat="47.35796" lon="-1.11868">
        <ele>2</ele>
        <time>2019-06-01T11:41:12Z</time>
      </trkpt>
      <trkpt lat="47.35788" lon="-1.11929">
        <ele>1</ele>
        <time>2019-06-01T11:41:19Z</time>
      </trkpt>
      <trkpt lat="47.35779" lon="-1.12004">
        <ele>1</ele>
        <time>2019-06-01T11:41:27Z</time>
      </trkpt>
      <trkpt lat="47.35767" lon="-1.12084">
        <ele>1</ele>
        <time>2019-06-01T11:41:36Z</time>
      </trkpt>
      <trkpt lat="47.35763" lon="-1.12127">
        <ele>1</ele>
        <time>2019-06-01T11:41:41Z</time>
      </trkpt>
      <trkpt lat="47.35763" lon="-1.12137">
        <ele>1</ele>
        <time>2019-06-01T11:41:42Z</time>
      </trkpt>
      <trkpt lat="47.35764" lon="-1.12154">
        <ele>7.8</ele>
        <time>2019-06-01T11:41:44Z</time>
      </trkpt>
      <trkpt lat="47.35768" lon="-1.1217">
        <ele>8.1</ele>
        <time>2019-06-01T11:41:46Z</time>
      </trkpt>
      <trkpt lat="47.35773" lon="-1.12185">
        <ele>1</ele>
        <time>2019-06-01T11:41:48Z</time>
      </trkpt>
      <trkpt lat="47.35781" lon="-1.12207">
        <ele>1</ele>
        <time>2019-06-01T11:41:51Z</time>
      </trkpt>
      <trkpt lat="47.35796" lon="-1.12244">
        <ele>1</ele>
        <time>2019-06-01T11:41:56Z</time>
      </trkpt>
      <trkpt lat="47.35803" lon="-1.12253">
        <ele>1</ele>
        <time>2019-06-01T11:41:58Z</time>
      </trkpt>
      <trkpt lat="47.35804" lon="-1.12259">
        <ele>1</ele>
        <time>2019-06-01T11:41:59Z</time>
      </trkpt>
      <trkpt lat="47.35805" lon="-1.12269">
        <ele>1</ele>
        <time>2019-06-01T11:42:01Z</time>
      </trkpt>
      <trkpt lat="47.35794" lon="-1.12285">
        <ele>1</ele>
        <time>2019-06-01T11:42:05Z</time>
      </trkpt>
      <trkpt lat="47.3579" lon="-1.12289">
        <ele>1</ele>
        <time>2019-06-01T11:42:06Z</time>
      </trkpt>
      <trkpt lat="47.35786" lon="-1.12293">
        <ele>1</ele>
        <time>2019-06-01T11:42:07Z</time>
      </trkpt>
      <trkpt lat="47.35778" lon="-1.12308">
        <ele>1</ele>
        <time>2019-06-01T11:42:10Z</time>
      </trkpt>
      <trkpt lat="47.35772" lon="-1.12326">
        <ele>1</ele>
        <time>2019-06-01T11:42:13Z</time>
      </trkpt>
      <trkpt lat="47.35767" lon="-1.12337">
        <ele>1</ele>
        <time>2019-06-01T11:42:15Z</time>
      </trkpt>
      <trkpt lat="47.35759" lon="-1.12349">
        <ele>9</ele>
        <time>2019-06-01T11:42:17Z</time>
      </trkpt>
      <trkpt lat="47.35745" lon="-1.12371">
        <ele>8.8</ele>
        <time>2019-06-01T11:42:21Z</time>
      </trkpt>
      <trkpt lat="47.35739" lon="-1.12384">
        <ele>8.6</ele>
        <time>2019-06-01T11:42:23Z</time>
      </trkpt>
      <trkpt lat="47.35732" lon="-1.12405">
        <ele>8.7</ele>
        <time>2019-06-01T11:42:26Z</time>
      </trkpt>
      <trkpt lat="47.35726" lon="-1.12424">
        <ele>9</ele>
        <time>2019-06-01T11:42:29Z</time>
      </trkpt>
      <trkpt lat="47.35723" lon="-1.12429">
        <ele>1</ele>
        <time>2019-06-01T11:42:30Z</time>
      </trkpt>
      <trkpt lat="47.35715" lon="-1.12432">
        <ele>1</ele>
        <time>2019-06-01T11:42:32Z</time>
      </trkpt>
      <trkpt lat="47.357" lon="-1.12442">
        <ele>1</ele>
        <time>2019-06-01T11:42:36Z</time>
      </trkpt>
      <trkpt lat="47.35696" lon="-1.12447">
        <ele>1</ele>
        <time>2019-06-01T11:42:37Z</time>
      </trkpt>
      <trkpt lat="47.35684" lon="-1.12472">
        <ele>1</ele>
        <time>2019-06-01T11:42:41Z</time>
      </trkpt>
      <trkpt lat="47.35665" lon="-1.12521">
        <ele>1</ele>
        <time>2019-06-01T11:42:48Z</time>
      </trkpt>
      <trkpt lat="47.35644" lon="-1.12587">
        <ele>1</ele>
        <time>2019-06-01T11:42:56Z</time>
      </trkpt>
      <trkpt lat="47.35628" lon="-1.1266">
        <ele>1</ele>
        <time>2019-06-01T11:43:04Z</time>
      </trkpt>
      <trkpt lat="47.35614" lon="-1.12746">
        <ele>1</ele>
        <time>2019-06-01T11:43:13Z</time>
      </trkpt>
      <trkpt lat="47.35613" lon="-1.12755">
        <ele>1</ele>
        <time>2019-06-01T11:43:14Z</time>
      </trkpt>
      <trkpt lat="47.35616" lon="-1.12782">
        <ele>1</ele>
        <time>2019-06-01T11:43:17Z</time>
      </trkpt>
      <trkpt lat="47.35625" lon="-1.12803">
        <ele>1</ele>
        <time>2019-06-01T11:43:20Z</time>
      </trkpt>
      <trkpt lat="47.35628" lon="-1.12809">
        <ele>8.6</ele>
        <time>2019-06-01T11:43:21Z</time>
      </trkpt>
      <trkpt lat="47.3563" lon="-1.12816">
        <ele>8.7</ele>
        <time>2019-06-01T11:43:22Z</time>
      </trkpt>
      <trkpt lat="47.3563" lon="-1.12829">
        <ele>1</ele>
        <time>2019-06-01T11:43:24Z</time>
      </trkpt>
      <trkpt lat="47.35625" lon="-1.12842">
        <ele>1</ele>
        <time>2019-06-01T11:43:26Z</time>
      </trkpt>
      <trkpt lat="47.35616" lon="-1.12866">
        <ele>1</ele>
        <time>2019-06-01T11:43:30Z</time>
      </trkpt>
      <trkpt lat="47.35614" lon="-1.12873">
        <ele>1</ele>
        <time>2019-06-01T11:43:31Z</time>
      </trkpt>
      <trkpt lat="47.35607" lon="-1.12897">
        <ele>1</ele>
        <time>2019-06-01T11:43:34Z</time>
      </trkpt>
      <trkpt lat="47.35605" lon="-1.12906">
        <ele>1</ele>
        <time>2019-06-01T11:43:35Z</time>
      </trkpt>
      <trkpt lat="47.35599" lon="-1.1294">
        <ele>1</ele>
        <time>2019-06-01T11:43:39Z</time>
      </trkpt>
      <trkpt lat="47.35593" lon="-1.12957">
        <ele>1</ele>
        <time>2019-06-01T11:43:41Z</time>
      </trkpt>
      <trkpt lat="47.35587" lon="-1.12975">
        <ele>1</ele>
        <time>2019-06-01T11:43:43Z</time>
      </trkpt>
      <trkpt lat="47.35581" lon="-1.13003">
        <ele>1</ele>
        <time>2019-06-01T11:43:46Z</time>
      </trkpt>
      <trkpt lat="47.35569" lon="-1.13061">
        <ele>1</ele>
        <time>2019-06-01T11:43:52Z</time>
      </trkpt>
      <trkpt lat="47.3555" lon="-1.13136">
        <ele>1</ele>
        <time>2019-06-01T11:44:00Z</time>
      </trkpt>
      <trkpt lat="47.35535" lon="-1.13188">
        <ele>1</ele>
        <time>2019-06-01T11:44:06Z</time>
      </trkpt>
      <trkpt lat="47.35526" lon="-1.13231">
        <ele>1</ele>
        <time>2019-06-01T11:44:11Z</time>
      </trkpt>
      <trkpt lat="47.35509" lon="-1.13305">
        <ele>1</ele>
        <time>2019-06-01T11:44:19Z</time>
      </trkpt>
      <trkpt lat="47.35492" lon="-1.13359">
        <ele>1</ele>
        <time>2019-06-01T11:44:25Z</time>
      </trkpt>
      <trkpt lat="47.35469" lon="-1.1341">
        <ele>1</ele>
        <time>2019-06-01T11:44:31Z</time>
      </trkpt>
      <trkpt lat="47.3545" lon="-1.13464">
        <ele>1</ele>
        <time>2019-06-01T11:44:37Z</time>
      </trkpt>
      <trkpt lat="47.3544" lon="-1.1349">
        <ele>1</ele>
        <time>2019-06-01T11:44:40Z</time>
      </trkpt>
      <trkpt lat="47.35432" lon="-1.13503">
        <ele>1</ele>
        <time>2019-06-01T11:44:42Z</time>
      </trkpt>
      <trkpt lat="47.35413" lon="-1.13525">
        <ele>1</ele>
        <time>2019-06-01T11:44:46Z</time>
      </trkpt>
      <trkpt lat="47.35378" lon="-1.13582">
        <ele>1</ele>
        <time>2019-06-01T11:44:54Z</time>
      </trkpt>
      <trkpt lat="47.35374" lon="-1.13591">
        <ele>1</ele>
        <time>2019-06-01T11:44:55Z</time>
      </trkpt>
      <trkpt lat="47.35363" lon="-1.1363">
        <ele>1</ele>
        <time>2019-06-01T11:44:59Z</time>
      </trkpt>
      <trkpt lat="47.35352" lon="-1.13692">
        <ele>1</ele>
        <time>2019-06-01T11:45:05Z</time>
      </trkpt>
      <trkpt lat="47.35341" lon="-1.1377">
        <ele>1</ele>
        <time>2019-06-01T11:45:13Z</time>
      </trkpt>
      <trkpt lat="47.35337" lon="-1.13838">
        <ele>1</ele>
        <time>2019-06-01T11:45:20Z</time>
      </trkpt>
      <trkpt lat="47.35333" lon="-1.13865">
        <ele>1</ele>
        <time>2019-06-01T11:45:23Z</time>
      </trkpt>
      <trkpt lat="47.35326" lon="-1.13893">
        <ele>1</ele>
        <time>2019-06-01T11:45:26Z</time>
      </trkpt>
      <trkpt lat="47.35311" lon="-1.13954">
        <ele>1</ele>
        <time>2019-06-01T11:45:33Z</time>
      </trkpt>
      <trkpt lat="47.35296" lon="-1.14006">
        <ele>1</ele>
        <time>2019-06-01T11:45:39Z</time>
      </trkpt>
      <trkpt lat="47.35274" lon="-1.14079">
        <ele>1</ele>
        <time>2019-06-01T11:45:47Z</time>
      </trkpt>
      <trkpt lat="47.35259" lon="-1.14142">
        <ele>1</ele>
        <time>2019-06-01T11:45:54Z</time>
      </trkpt>
      <trkpt lat="47.35252" lon="-1.14207">
        <ele>1</ele>
        <time>2019-06-01T11:46:01Z</time>
      </trkpt>
      <trkpt lat="47.35247" lon="-1.14289">
        <ele>1</ele>
        <time>2019-06-01T11:46:10Z</time>
      </trkpt>
      <trkpt lat="47.35243" lon="-1.14344">
        <ele>8</ele>
        <time>2019-06-01T11:46:16Z</time>
      </trkpt>
      <trkpt lat="47.35245" lon="-1.14361">
        <ele>8</ele>
        <time>2019-06-01T11:46:18Z</time>
      </trkpt>
      <trkpt lat="47.35251" lon="-1.14375">
        <ele>8</ele>
        <time>2019-06-01T11:46:20Z</time>
      </trkpt>
      <trkpt lat="47.35255" lon="-1.14387">
        <ele>1</ele>
        <time>2019-06-01T11:46:22Z</time>
      </trkpt>
      <trkpt lat="47.35256" lon="-1.1439">
        <ele>1</ele>
        <time>2019-06-01T11:46:23Z</time>
      </trkpt>
      <trkpt lat="47.35254" lon="-1.14387">
        <ele>1</ele>
        <time>2019-06-01T11:46:35Z</time>
      </trkpt>
      <trkpt lat="47.35252" lon="-1.14382">
        <ele>1</ele>
        <time>2019-06-01T11:46:37Z</time>
      </trkpt>
      <trkpt lat="47.3524" lon="-1.14363">
        <ele>1</ele>
        <time>2019-06-01T11:46:42Z</time>
      </trkpt>
      <trkpt lat="47.35236" lon="-1.1436">
        <ele>1</ele>
        <time>2019-06-01T11:46:43Z</time>
      </trkpt>
      <trkpt lat="47.35223" lon="-1.14356">
        <ele>1</ele>
        <time>2019-06-01T11:46:46Z</time>
      </trkpt>
      <trkpt lat="47.35218" lon="-1.14356">
        <ele>1</ele>
        <time>2019-06-01T11:46:47Z</time>
      </trkpt>
      <trkpt lat="47.35186" lon="-1.14358">
        <ele>1</ele>
        <time>2019-06-01T11:46:53Z</time>
      </trkpt>
      <trkpt lat="47.35147" lon="-1.14356">
        <ele>1</ele>
        <time>2019-06-01T11:47:00Z</time>
      </trkpt>
      <trkpt lat="47.35116" lon="-1.14345">
        <ele>1</ele>
        <time>2019-06-01T11:47:06Z</time>
      </trkpt>
      <trkpt lat="47.35079" lon="-1.14326">
        <ele>1</ele>
        <time>2019-06-01T11:47:14Z</time>
      </trkpt>
      <trkpt lat="47.35051" lon="-1.14313">
        <ele>2</ele>
        <time>2019-06-01T11:47:20Z</time>
      </trkpt>
      <trkpt lat="47.35038" lon="-1.14306">
        <ele>3</ele>
        <time>2019-06-01T11:47:23Z</time>
      </trkpt>
      <trkpt lat="47.35007" lon="-1.14292">
        <ele>3</ele>
        <time>2019-06-01T11:47:30Z</time>
      </trkpt>
      <trkpt lat="47.34999" lon="-1.14288">
        <ele>4</ele>
        <time>2019-06-01T11:47:32Z</time>
      </trkpt>
      <trkpt lat="47.34985" lon="-1.14281">
        <ele>5</ele>
        <time>2019-06-01T11:47:36Z</time>
      </trkpt>
      <trkpt lat="47.34977" lon="-1.14277">
        <ele>5</ele>
        <time>2019-06-01T11:47:39Z</time>
      </trkpt>
      <trkpt lat="47.34972" lon="-1.14274">
        <ele>6</ele>
        <time>2019-06-01T11:47:41Z</time>
      </trkpt>
      <trkpt lat="47.3496" lon="-1.14269">
        <ele>7</ele>
        <time>2019-06-01T11:47:45Z</time>
      </trkpt>
      <trkpt lat="47.34957" lon="-1.14268">
        <ele>7</ele>
        <time>2019-06-01T11:47:46Z</time>
      </trkpt>
      <trkpt lat="47.34938" lon="-1.14258">
        <ele>8</ele>
        <time>2019-06-01T11:47:52Z</time>
      </trkpt>
      <trkpt lat="47.34915" lon="-1.14247">
        <ele>9</ele>
        <time>2019-06-01T11:47:59Z</time>
      </trkpt>
      <trkpt lat="47.34912" lon="-1.14245">
        <ele>9</ele>
        <time>2019-06-01T11:48:00Z</time>
      </trkpt>
      <trkpt lat="47.34883" lon="-1.14236">
        <ele>10</ele>
        <time>2019-06-01T11:48:08Z</time>
      </trkpt>
      <trkpt lat="47.34851" lon="-1.14236">
        <ele>11</ele>
        <time>2019-06-01T11:48:15Z</time>
      </trkpt>
      <trkpt lat="47.34826" lon="-1.14238">
        <ele>11</ele>
        <time>2019-06-01T11:48:21Z</time>
      </trkpt>
      <trkpt lat="47.34823" lon="-1.14241">
        <ele>11</ele>
        <time>2019-06-01T11:48:22Z</time>
      </trkpt>
      <trkpt lat="47.34821" lon="-1.14259">
        <ele>11</ele>
        <time>2019-06-01T11:48:25Z</time>
      </trkpt>
      <trkpt lat="47.34822" lon="-1.14266">
        <ele>11</ele>
        <time>2019-06-01T11:48:26Z</time>
      </trkpt>
      <trkpt lat="47.34831" lon="-1.14304">
        <ele>11</ele>
        <time>2019-06-01T11:48:31Z</time>
      </trkpt>
      <trkpt lat="47.3484" lon="-1.1436">
        <ele>11</ele>
        <time>2019-06-01T11:48:37Z</time>
      </trkpt>
      <trkpt lat="47.34845" lon="-1.14419">
        <ele>9</ele>
        <time>2019-06-01T11:48:42Z</time>
      </trkpt>
      <trkpt lat="47.34847" lon="-1.14432">
        <ele>9</ele>
        <time>2019-06-01T11:48:43Z</time>
      </trkpt>
      <trkpt lat="47.3485" lon="-1.1446">
        <ele>8</ele>
        <time>2019-06-01T11:48:45Z</time>
      </trkpt>
      <trkpt lat="47.34852" lon="-1.14473">
        <ele>7</ele>
        <time>2019-06-01T11:48:46Z</time>
      </trkpt>
      <trkpt lat="47.34857" lon="-1.14484">
        <ele>7</ele>
        <time>2019-06-01T11:48:47Z</time>
      </trkpt>
      <trkpt lat="47.34869" lon="-1.14501">
        <ele>5</ele>
        <time>2019-06-01T11:48:49Z</time>
      </trkpt>
      <trkpt lat="47.34875" lon="-1.14507">
        <ele>4</ele>
        <time>2019-06-01T11:48:50Z</time>
      </trkpt>
      <trkpt lat="47.34887" lon="-1.1452">
        <ele>4</ele>
        <time>2019-06-01T11:48:52Z</time>
      </trkpt>
      <trkpt lat="47.34908" lon="-1.14546">
        <ele>3</ele>
        <time>2019-06-01T11:48:56Z</time>
      </trkpt>
      <trkpt lat="47.34911" lon="-1.14552">
        <ele>4</ele>
        <time>2019-06-01T11:48:57Z</time>
      </trkpt>
      <trkpt lat="47.34914" lon="-1.14567">
        <ele>4</ele>
        <time>2019-06-01T11:48:59Z</time>
      </trkpt>
      <trkpt lat="47.34907" lon="-1.14584">
        <ele>4</ele>
        <time>2019-06-01T11:49:02Z</time>
      </trkpt>
      <trkpt lat="47.34899" lon="-1.14597">
        <ele>5</ele>
        <time>2019-06-01T11:49:05Z</time>
      </trkpt>
      <trkpt lat="47.34892" lon="-1.14615">
        <ele>6</ele>
        <time>2019-06-01T11:49:09Z</time>
      </trkpt>
      <trkpt lat="47.34886" lon="-1.14632">
        <ele>7</ele>
        <time>2019-06-01T11:49:13Z</time>
      </trkpt>
      <trkpt lat="47.34884" lon="-1.14647">
        <ele>8</ele>
        <time>2019-06-01T11:49:16Z</time>
      </trkpt>
      <trkpt lat="47.34883" lon="-1.14652">
        <ele>8</ele>
        <time>2019-06-01T11:49:17Z</time>
      </trkpt>
      <trkpt lat="47.34882" lon="-1.1467">
        <ele>9</ele>
        <time>2019-06-01T11:49:20Z</time>
      </trkpt>
      <trkpt lat="47.34882" lon="-1.14683">
        <ele>9</ele>
        <time>2019-06-01T11:49:22Z</time>
      </trkpt>
      <trkpt lat="47.34881" lon="-1.14719">
        <ele>10</ele>
        <time>2019-06-01T11:49:27Z</time>
      </trkpt>
      <trkpt lat="47.3488" lon="-1.14734">
        <ele>10</ele>
        <time>2019-06-01T11:49:29Z</time>
      </trkpt>
      <trkpt lat="47.34876" lon="-1.14794">
        <ele>10</ele>
        <time>2019-06-01T11:49:37Z</time>
      </trkpt>
      <trkpt lat="47.34875" lon="-1.1481">
        <ele>11</ele>
        <time>2019-06-01T11:49:39Z</time>
      </trkpt>
      <trkpt lat="47.3487" lon="-1.14878">
        <ele>11</ele>
        <time>2019-06-01T11:49:48Z</time>
      </trkpt>
      <trkpt lat="47.34868" lon="-1.14892">
        <ele>11</ele>
        <time>2019-06-01T11:49:50Z</time>
      </trkpt>
      <trkpt lat="47.3487" lon="-1.14906">
        <ele>10</ele>
        <time>2019-06-01T11:49:53Z</time>
      </trkpt>
      <trkpt lat="47.34873" lon="-1.14909">
        <ele>10</ele>
        <time>2019-06-01T11:49:54Z</time>
      </trkpt>
      <trkpt lat="47.34886" lon="-1.14909">
        <ele>10</ele>
        <time>2019-06-01T11:49:57Z</time>
      </trkpt>
      <trkpt lat="47.34896" lon="-1.14907">
        <ele>9</ele>
        <time>2019-06-01T11:49:59Z</time>
      </trkpt>
      <trkpt lat="47.34925" lon="-1.14904">
        <ele>8</ele>
        <time>2019-06-01T11:50:05Z</time>
      </trkpt>
      <trkpt lat="47.34934" lon="-1.14906">
        <ele>8</ele>
        <time>2019-06-01T11:50:07Z</time>
      </trkpt>
      <trkpt lat="47.34943" lon="-1.14912">
        <ele>8</ele>
        <time>2019-06-01T11:50:09Z</time>
      </trkpt>
      <trkpt lat="47.34947" lon="-1.14916">
        <ele>8</ele>
        <time>2019-06-01T11:50:10Z</time>
      </trkpt>
      <trkpt lat="47.34965" lon="-1.14939">
        <ele>7</ele>
        <time>2019-06-01T11:50:14Z</time>
      </trkpt>
      <trkpt lat="47.3497" lon="-1.14947">
        <ele>7</ele>
        <time>2019-06-01T11:50:15Z</time>
      </trkpt>
      <trkpt lat="47.34983" lon="-1.1497">
        <ele>6</ele>
        <time>2019-06-01T11:50:18Z</time>
      </trkpt>
      <trkpt lat="47.34992" lon="-1.14983">
        <ele>5</ele>
        <time>2019-06-01T11:50:20Z</time>
      </trkpt>
      <trkpt lat="47.34997" lon="-1.14987">
        <ele>5</ele>
        <time>2019-06-01T11:50:21Z</time>
      </trkpt>
      <trkpt lat="47.35008" lon="-1.14993">
        <ele>5</ele>
        <time>2019-06-01T11:50:23Z</time>
      </trkpt>
      <trkpt lat="47.35024" lon="-1.14999">
        <ele>4</ele>
        <time>2019-06-01T11:50:26Z</time>
      </trkpt>
      <trkpt lat="47.35027" lon="-1.15003">
        <ele>4</ele>
        <time>2019-06-01T11:50:27Z</time>
      </trkpt>
      <trkpt lat="47.3503" lon="-1.15022">
        <ele>3</ele>
        <time>2019-06-01T11:50:30Z</time>
      </trkpt>
      <trkpt lat="47.35028" lon="-1.15035">
        <ele>3</ele>
        <time>2019-06-01T11:50:32Z</time>
      </trkpt>
      <trkpt lat="47.35026" lon="-1.15063">
        <ele>3</ele>
        <time>2019-06-01T11:50:36Z</time>
      </trkpt>
      <trkpt lat="47.35017" lon="-1.15118">
        <ele>3</ele>
        <time>2019-06-01T11:50:43Z</time>
      </trkpt>
      <trkpt lat="47.3501" lon="-1.15175">
        <ele>3</ele>
        <time>2019-06-01T11:50:50Z</time>
      </trkpt>
      <trkpt lat="47.35005" lon="-1.15237">
        <ele>3</ele>
        <time>2019-06-01T11:50:57Z</time>
      </trkpt>
      <trkpt lat="47.35003" lon="-1.15254">
        <ele>3</ele>
        <time>2019-06-01T11:50:59Z</time>
      </trkpt>
      <trkpt lat="47.35002" lon="-1.15271">
        <ele>2</ele>
        <time>2019-06-01T11:51:01Z</time>
      </trkpt>
      <trkpt lat="47.35004" lon="-1.15287">
        <ele>2</ele>
        <time>2019-06-01T11:51:03Z</time>
      </trkpt>
      <trkpt lat="47.35008" lon="-1.153">
        <ele>2</ele>
        <time>2019-06-01T11:51:05Z</time>
      </trkpt>
      <trkpt lat="47.35015" lon="-1.15323">
        <ele>2</ele>
        <time>2019-06-01T11:51:08Z</time>
      </trkpt>
      <trkpt lat="47.3502" lon="-1.15357">
        <ele>2</ele>
        <time>2019-06-01T11:51:12Z</time>
      </trkpt>
      <trkpt lat="47.3502" lon="-1.15366">
        <ele>2</ele>
        <time>2019-06-01T11:51:13Z</time>
      </trkpt>
      <trkpt lat="47.35022" lon="-1.15431">
        <ele>1</ele>
        <time>2019-06-01T11:51:20Z</time>
      </trkpt>
      <trkpt lat="47.35021" lon="-1.15448">
        <ele>1</ele>
        <time>2019-06-01T11:51:22Z</time>
      </trkpt>
      <trkpt lat="47.35018" lon="-1.15472">
        <ele>7.7</ele>
        <time>2019-06-01T11:51:25Z</time>
      </trkpt>
      <trkpt lat="47.35014" lon="-1.15487">
        <ele>7.5</ele>
        <time>2019-06-01T11:51:27Z</time>
      </trkpt>
      <trkpt lat="47.35006" lon="-1.15511">
        <ele>7.7</ele>
        <time>2019-06-01T11:51:30Z</time>
      </trkpt>
      <trkpt lat="47.34989" lon="-1.15571">
        <ele>8.6</ele>
        <time>2019-06-01T11:51:37Z</time>
      </trkpt>
      <trkpt lat="47.34969" lon="-1.15629">
        <ele>1</ele>
        <time>2019-06-01T11:51:44Z</time>
      </trkpt>
      <trkpt lat="47.34937" lon="-1.15693">
        <ele>1</ele>
        <time>2019-06-01T11:51:53Z</time>
      </trkpt>
      <trkpt lat="47.34907" lon="-1.15741">
        <ele>1</ele>
        <time>2019-06-01T11:52:01Z</time>
      </trkpt>
      <trkpt lat="47.34875" lon="-1.15786">
        <ele>1</ele>
        <time>2019-06-01T11:52:09Z</time>
      </trkpt>
      <trkpt lat="47.34852" lon="-1.15826">
        <ele>2</ele>
        <time>2019-06-01T11:52:15Z</time>
      </trkpt>
      <trkpt lat="47.34837" lon="-1.15868">
        <ele>2</ele>
        <time>2019-06-01T11:52:21Z</time>
      </trkpt>
      <trkpt lat="47.34828" lon="-1.1589">
        <ele>2</ele>
        <time>2019-06-01T11:52:26Z</time>
      </trkpt>
      <trkpt lat="47.34826" lon="-1.1589">
        <ele>2</ele>
        <time>2019-06-01T11:52:27Z</time>
      </trkpt>
      <trkpt lat="47.3482" lon="-1.15887">
        <ele>3</ele>
        <time>2019-06-01T11:52:29Z</time>
      </trkpt>
      <trkpt lat="47.3481" lon="-1.15878">
        <ele>3</ele>
        <time>2019-06-01T11:52:32Z</time>
      </trkpt>
      <trkpt lat="47.34799" lon="-1.15869">
        <ele>3</ele>
        <time>2019-06-01T11:52:35Z</time>
      </trkpt>
      <trkpt lat="47.34769" lon="-1.15852">
        <ele>4</ele>
        <time>2019-06-01T11:52:43Z</time>
      </trkpt>
      <trkpt lat="47.34761" lon="-1.15849">
        <ele>4</ele>
        <time>2019-06-01T11:52:45Z</time>
      </trkpt>
      <trkpt lat="47.34735" lon="-1.15841">
        <ele>5</ele>
        <time>2019-06-01T11:52:52Z</time>
      </trkpt>
      <trkpt lat="47.34712" lon="-1.15834">
        <ele>6</ele>
        <time>2019-06-01T11:52:58Z</time>
      </trkpt>
      <trkpt lat="47.34704" lon="-1.15832">
        <ele>6</ele>
        <time>2019-06-01T11:53:00Z</time>
      </trkpt>
      <trkpt lat="47.34677" lon="-1.15822">
        <ele>7</ele>
        <time>2019-06-01T11:53:07Z</time>
      </trkpt>
      <trkpt lat="47.3467" lon="-1.15819">
        <ele>8</ele>
        <time>2019-06-01T11:53:09Z</time>
      </trkpt>
      <trkpt lat="47.34655" lon="-1.15813">
        <ele>8</ele>
        <time>2019-06-01T11:53:13Z</time>
      </trkpt>
      <trkpt lat="47.34647" lon="-1.1581">
        <ele>9</ele>
        <time>2019-06-01T11:53:15Z</time>
      </trkpt>
      <trkpt lat="47.34622" lon="-1.158">
        <ele>10</ele>
        <time>2019-06-01T11:53:22Z</time>
      </trkpt>
      <trkpt lat="47.34618" lon="-1.15799">
        <ele>10</ele>
        <time>2019-06-01T11:53:23Z</time>
      </trkpt>
      <trkpt lat="47.34587" lon="-1.15785">
        <ele>10</ele>
        <time>2019-06-01T11:53:31Z</time>
      </trkpt>
      <trkpt lat="47.34579" lon="-1.15781">
        <ele>11</ele>
        <time>2019-06-01T11:53:33Z</time>
      </trkpt>
      <trkpt lat="47.34554" lon="-1.15767">
        <ele>11</ele>
        <time>2019-06-01T11:53:39Z</time>
      </trkpt>
      <trkpt lat="47.34531" lon="-1.15753">
        <ele>11</ele>
        <time>2019-06-01T11:53:45Z</time>
      </trkpt>
      <trkpt lat="47.34523" lon="-1.15751">
        <ele>11</ele>
        <time>2019-06-01T11:53:47Z</time>
      </trkpt>
      <trkpt lat="47.34516" lon="-1.15756">
        <ele>11</ele>
        <time>2019-06-01T11:53:49Z</time>
      </trkpt>
      <trkpt lat="47.34513" lon="-1.15759">
        <ele>12</ele>
        <time>2019-06-01T11:53:50Z</time>
      </trkpt>
      <trkpt lat="47.345" lon="-1.15778">
        <ele>12</ele>
        <time>2019-06-01T11:53:56Z</time>
      </trkpt>
      <trkpt lat="47.34502" lon="-1.15793">
        <ele>12</ele>
        <time>2019-06-01T11:53:59Z</time>
      </trkpt>
      <trkpt lat="47.34506" lon="-1.15808">
        <ele>12</ele>
        <time>2019-06-01T11:54:02Z</time>
      </trkpt>
      <trkpt lat="47.34508" lon="-1.15811">
        <ele>12</ele>
        <time>2019-06-01T11:54:03Z</time>
      </trkpt>
      <trkpt lat="47.34507" lon="-1.15813">
        <ele>12</ele>
        <time>2019-06-01T11:54:06Z</time>
      </trkpt>
      <trkpt lat="47.34506" lon="-1.15804">
        <ele>12</ele>
        <time>2019-06-01T11:54:11Z</time>
      </trkpt>
      <trkpt lat="47.34497" lon="-1.15787">
        <ele>12</ele>
        <time>2019-06-01T11:54:16Z</time>
      </trkpt>
      <trkpt lat="47.34491" lon="-1.15798">
        <ele>12</ele>
        <time>2019-06-01T11:54:19Z</time>
      </trkpt>
      <trkpt lat="47.34488" lon="-1.1582">
        <ele>12</ele>
        <time>2019-06-01T11:54:22Z</time>
      </trkpt>
      <trkpt lat="47.34488" lon="-1.15828">
        <ele>12</ele>
        <time>2019-06-01T11:54:23Z</time>
      </trkpt>
      <trkpt lat="47.3448" lon="-1.15882">
        <ele>11</ele>
        <time>2019-06-01T11:54:29Z</time>
      </trkpt>
      <trkpt lat="47.34477" lon="-1.1589">
        <ele>10</ele>
        <time>2019-06-01T11:54:30Z</time>
      </trkpt>
      <trkpt lat="47.34469" lon="-1.15904">
        <ele>10</ele>
        <time>2019-06-01T11:54:32Z</time>
      </trkpt>
      <trkpt lat="47.34464" lon="-1.15908">
        <ele>9</ele>
        <time>2019-06-01T11:54:33Z</time>
      </trkpt>
      <trkpt lat="47.34452" lon="-1.15909">
        <ele>9</ele>
        <time>2019-06-01T11:54:35Z</time>
      </trkpt>
      <trkpt lat="47.34447" lon="-1.15908">
        <ele>8</ele>
        <time>2019-06-01T11:54:36Z</time>
      </trkpt>
      <trkpt lat="47.34442" lon="-1.15907">
        <ele>8</ele>
        <time>2019-06-01T11:54:37Z</time>
      </trkpt>
      <trkpt lat="47.34429" lon="-1.15911">
        <ele>8</ele>
        <time>2019-06-01T11:54:40Z</time>
      </trkpt>
      <trkpt lat="47.34425" lon="-1.15914">
        <ele>9</ele>
        <time>2019-06-01T11:54:41Z</time>
      </trkpt>
      <trkpt lat="47.34414" lon="-1.15922">
        <ele>9</ele>
        <time>2019-06-01T11:54:44Z</time>
      </trkpt>
      <trkpt lat="47.34404" lon="-1.15929">
        <ele>10</ele>
        <time>2019-06-01T11:54:47Z</time>
      </trkpt>
      <trkpt lat="47.34401" lon="-1.15932">
        <ele>11</ele>
        <time>2019-06-01T11:54:48Z</time>
      </trkpt>
      <trkpt lat="47.34398" lon="-1.15939">
        <ele>11</ele>
        <time>2019-06-01T11:54:50Z</time>
      </trkpt>
      <trkpt lat="47.34398" lon="-1.15944">
        <ele>11</ele>
        <time>2019-06-01T11:54:51Z</time>
      </trkpt>
      <trkpt lat="47.344" lon="-1.15953">
        <ele>12</ele>
        <time>2019-06-01T11:54:53Z</time>
      </trkpt>
      <trkpt lat="47.34405" lon="-1.15967">
        <ele>12</ele>
        <time>2019-06-01T11:54:55Z</time>
      </trkpt>
      <trkpt lat="47.34411" lon="-1.16001">
        <ele>12</ele>
        <time>2019-06-01T11:54:59Z</time>
      </trkpt>
      <trkpt lat="47.34411" lon="-1.16007">
        <ele>12</ele>
        <time>2019-06-01T11:55:00Z</time>
      </trkpt>
      <trkpt lat="47.3441" lon="-1.16022">
        <ele>11</ele>
        <time>2019-06-01T11:55:03Z</time>
      </trkpt>
      <trkpt lat="47.34407" lon="-1.16038">
        <ele>10</ele>
        <time>2019-06-01T11:55:08Z</time>
      </trkpt>
      <trkpt lat="47.34406" lon="-1.16042">
        <ele>10</ele>
        <time>2019-06-01T11:55:09Z</time>
      </trkpt>
      <trkpt lat="47.34407" lon="-1.1605">
        <ele>10</ele>
        <time>2019-06-01T11:55:11Z</time>
      </trkpt>
      <trkpt lat="47.34409" lon="-1.16051">
        <ele>9</ele>
        <time>2019-06-01T11:55:12Z</time>
      </trkpt>
      <trkpt lat="47.34426" lon="-1.16054">
        <ele>9</ele>
        <time>2019-06-01T11:55:16Z</time>
      </trkpt>
      <trkpt lat="47.34448" lon="-1.16053">
        <ele>8</ele>
        <time>2019-06-01T11:55:20Z</time>
      </trkpt>
      <trkpt lat="47.34459" lon="-1.16053">
        <ele>8</ele>
        <time>2019-06-01T11:55:22Z</time>
      </trkpt>
      <trkpt lat="47.34488" lon="-1.16055">
        <ele>8</ele>
        <time>2019-06-01T11:55:28Z</time>
      </trkpt>
      <trkpt lat="47.34506" lon="-1.1605">
        <ele>8</ele>
        <time>2019-06-01T11:55:33Z</time>
      </trkpt>
      <trkpt lat="47.34515" lon="-1.1604">
        <ele>10</ele>
        <time>2019-06-01T11:55:38Z</time>
      </trkpt>
      <trkpt lat="47.34519" lon="-1.1603">
        <ele>11</ele>
        <time>2019-06-01T11:55:41Z</time>
      </trkpt>
      <trkpt lat="47.34521" lon="-1.16024">
        <ele>11</ele>
        <time>2019-06-01T11:55:43Z</time>
      </trkpt>
      <trkpt lat="47.34523" lon="-1.16025">
        <ele>12</ele>
        <time>2019-06-01T11:55:44Z</time>
      </trkpt>
      <trkpt lat="47.34523" lon="-1.16027">
        <ele>12</ele>
        <time>2019-06-01T11:55:45Z</time>
      </trkpt>
      <trkpt lat="47.34521" lon="-1.16037">
        <ele>12</ele>
        <time>2019-06-01T11:55:48Z</time>
      </trkpt>
      <trkpt lat="47.34513" lon="-1.16074">
        <ele>12</ele>
        <time>2019-06-01T11:55:54Z</time>
      </trkpt>
      <trkpt lat="47.34499" lon="-1.16125">
        <ele>11</ele>
        <time>2019-06-01T11:56:02Z</time>
      </trkpt>
      <trkpt lat="47.34488" lon="-1.16149">
        <ele>11</ele>
        <time>2019-06-01T11:56:06Z</time>
      </trkpt>
      <trkpt lat="47.34479" lon="-1.16165">
        <ele>10</ele>
        <time>2019-06-01T11:56:09Z</time>
      </trkpt>
      <trkpt lat="47.34475" lon="-1.1617">
        <ele>9</ele>
        <time>2019-06-01T11:56:10Z</time>
      </trkpt>
      <trkpt lat="47.34466" lon="-1.16187">
        <ele>9</ele>
        <time>2019-06-01T11:56:14Z</time>
      </trkpt>
      <trkpt lat="47.34463" lon="-1.16187">
        <ele>8</ele>
        <time>2019-06-01T11:56:15Z</time>
      </trkpt>
      <trkpt lat="47.3446" lon="-1.16186">
        <ele>8</ele>
        <time>2019-06-01T11:56:16Z</time>
      </trkpt>
      <trkpt lat="47.34458" lon="-1.16182">
        <ele>8</ele>
        <time>2019-06-01T11:56:17Z</time>
      </trkpt>
      <trkpt lat="47.34445" lon="-1.16154">
        <ele>7</ele>
        <time>2019-06-01T11:56:22Z</time>
      </trkpt>
      <trkpt lat="47.34443" lon="-1.16147">
        <ele>7</ele>
        <time>2019-06-01T11:56:23Z</time>
      </trkpt>
      <trkpt lat="47.34435" lon="-1.16126">
        <ele>6</ele>
        <time>2019-06-01T11:56:27Z</time>
      </trkpt>
      <trkpt lat="47.34434" lon="-1.16123">
        <ele>6</ele>
        <time>2019-06-01T11:56:28Z</time>
      </trkpt>
      <trkpt lat="47.34434" lon="-1.16121">
        <ele>6</ele>
        <time>2019-06-01T11:56:29Z</time>
      </trkpt>
    </trkseg>
  </trk>
</gpx>